     2.10           OBSERVATION DATA    G (GPS)             RINEX VERSION / TYPE
teqc 2005May6 SOPAC 20050707 00:22:08UTC                    PGM / RUN BY / DATE
Linux 2.4.20-8|Pentium IV|gcc|Linux|486/DX+                 COMMENT
BIT 2 OF LLI FLAGS DATA COLLECTED UNDER A/S CONDITION       COMMENT
395 LAS 116.45                                              MARKER NAME
2KW4                                                        MARKER NUMBER
Dave Mahan                                                  OBSERVER / AGENCY
0220160678 TRIMBLE 4700 1.30                                REC # / TYPE / VERS
0220159802 TRM33429.00+GP NONE                              ANT # / TYPE
 -2449861.0000 -4163309.0000  4153280.0000                  APPROX POSITION XYZ
        2.0000        0.0000        0.0000                  ANTENNA: DELTA H/E/N
     1     1                                                WAVELENGTH FACT L1/2
     6    L1    L2    C1    P2    P1    D1                  # / TYPES OF OBSERV
    15.0000                                                 INTERVAL
Northern California Height Modernization 2004               COMMENT
                                                            COMMENT
SOPAC - Scripps Orbit and Permanent Array Center            COMMENT
IGPP - Institute of Geophysics and Planetary Physics        COMMENT
SIO - Scripps Institution of Oceanography                   COMMENT
UCSD - University of California, San Diego                  COMMENT
                                                            COMMENT
email: archive@gpsmail.ucsd.edu                             COMMENT
ftp://garner.ucsd.edu                                       COMMENT
http://sopac.ucsd.edu                                       COMMENT
                                                            COMMENT
                                                            COMMENT
Approximate Lat, Lon : 40.879, -120.473                     COMMENT
                                                            COMMENT
SNR is mapped to RINEX snr flag value [0-9]                 COMMENT
L1 & L2: 2-19 dBHz = 1, 20-27 dBHz = 2, 28-31 dBHz = 3      COMMENT
32-35 dBHz = 4, 36-38 dBHz = 5, 39-41 dBHz = 6              COMMENT
42-44 dBHz = 7, 45-48 dBHz = 8, >= 49 dBHz = 9              COMMENT
  2004     9     3    14    46    0.0000000     GPS         TIME OF FIRST OBS
                                                            END OF HEADER
 04  9  3 14 46  0.0000000  0  8G 3G11G14G15G18G19G22G25
    169855.24057    118820.20453  23826918.5314   23826914.0864
     -3065.1414
   -155183.13958   -103248.99254  23169785.3364   23169779.0394
      2841.2034
     36874.85459     19535.20357  20175451.2504   20175444.4264
      -681.6724
    160864.35859    100321.29756  21364227.2894   21364222.2814
     -2954.3754
    136579.98056     81549.22752  23927017.3594   23927012.7774
     -2812.7664
     87402.78958     50677.10456  22415563.6564   22415556.5784
     -1596.1564
    100831.42259     59071.26357  21527766.5474   21527759.1174
     -1829.7814
   -179244.26257   -117809.11153  23497263.4924   23497259.5634
      3263.1094
 04  9  3 14 46 15.0000000  0  8G 3G11G14G15G18G19G22G25
    215859.69847    154667.79743  23835673.3364   23835669.1054
     -3068.9374
   -197755.05348   -136421.93244  23161684.4534   23161678.1294
      2834.8754
     47173.32249     27559.96947  20177411.0864   20177404.4654
      -691.6564
    205243.49749    134902.42146  21372672.1024   21372667.1454
     -2962.9374
    178796.99146    114445.54642  23935051.2814   23935046.3404
     -2816.4064
    111420.00348     69391.77446  22420134.2814   22420126.7274
     -1606.3594
    128316.86949     80488.46647  21532997.3054   21532989.7774
     -1835.0164
   -228162.95047   -155927.56843  23487954.7424   23487950.4804
      3259.1094
 04  9  3 14 46 30.0000000  0  8G 3G11G14G15G18G19G22G25
    261931.04747    190567.50143  23844440.2424   23844435.9654
     -3074.2194
   -240223.56548   -169514.28743  23153603.2194   23153596.2544
      2827.1884
     57630.72549     35708.58447  20179401.0314   20179394.3874
      -703.0164
    249760.38949    169590.88447  21381143.4064   21381138.4064
     -2972.9534
    221077.15346    147391.08042  23943097.1254   23943091.9104
     -2821.3124
    135599.33249     88232.78546  22424735.2974   22424728.1644
     -1617.9844
    155889.62849    101973.71447  21538244.3984   21538236.8134
     -1841.6094
   -277013.66547   -193993.04643  23478659.0394   23478654.2304
      3253.8754
 04  9  3 14 46 45.0000000  0  8G 3G11G14G15G18G19G22G25
    308084.70647    226531.35742  23853222.6644   23853218.7424
     -3079.6564
   -282572.68848   -202513.62843  23145543.4144   23145538.1254
      2819.3594
     68262.65949     43993.18847  20181424.2814   20181417.4774
      -714.5474
    294430.55449    204398.76446  21389644.0784   21389639.0274
     -2982.9844
    263436.15946    180398.04842  23951157.9064   23951152.4414
     -2826.4694
    159956.26449    107212.18046  22429370.1724   22429363.1724
     -1629.6414
    183565.35649    123539.18647  21543510.5314   21543503.1134
     -1848.4224
   -325780.20647   -231992.92843  23469378.5554   23469374.4494
      3248.3444
 04  9  3 14 47  0.0000000  0  8G 3G11G14G15G18G19G22G25
    354322.72147    262560.94643  23862022.1644   23862017.3164
     -3085.8284
   -324799.58148   -235417.69543  23137508.1484   23137502.1134
      2810.5474
     79071.42449     52415.58947  20183480.9614   20183474.6214
      -726.9844
    339256.31349    239327.90546  21398174.1024   21398169.0474
     -2994.0624
    305876.64546    213468.52242  23959234.3674   23959229.1174
     -2832.5784
    184492.98748    126331.68745  22434039.6804   22434032.3444
     -1642.2814
    211346.52649    145186.83447  21548797.4774   21548790.4694
     -1856.0624
   -374459.95847   -269925.19743  23460115.1414   23460110.9774
      3241.9844
 04  9  3 14 47 15.0000000  0  8G 3G11G14G15G18G19G22G25
    400653.14047    298662.52543  23870837.9844   23870833.9534
     -3091.7664
   -366895.67648   -268219.86844  23129497.9144   23129491.4884
      2802.0474
     90065.17249     60982.13047  20185572.9144   20185566.3674
      -739.1254
    384245.80249    274384.61346  21406735.0164   21406730.1604
     -3004.7974
    348406.72346    246608.77042  23967326.7194   23967322.6454
     -2838.4844
    209217.55549    145597.54945  22438744.5234   22438737.1524
     -1654.5314
    239241.37849    166923.06547  21554105.4774   21554097.8634
     -1863.4844
   -423044.12747   -307782.96343  23450869.7344   23450865.7464
      3235.7194
 04  9  3 14 47 30.0000000  0  8G 3G11G14G15G18G19G22G25
    447080.45447    334839.61943  23879672.4384   23879668.6524
     -3098.2664
   -408855.72748   -300916.02244  23121513.1174   23121506.3834
      2792.7344
    101248.60649     69696.47547  20187701.2504   20187695.0044
      -751.9064
    429403.75449    309572.59246  21415328.3914   21415323.9024
     -3016.1414
    391031.26946    279822.69042  23975437.5314   23975434.0234
     -2844.7974
    234134.55149    165013.37045  22443485.8914   22443478.8834
     -1667.5314
    267254.81049    188751.68747  21559436.3134   21559428.7114
     -1871.5624
   -471527.48547   -345562.19243  23441644.3834   23441639.9924
      3228.7974
 04  9  3 14 47 45.0000000  0  8G 3G11G14G15G18G19G22G25
    493601.39148    371089.68543  23888525.7664   23888521.0984
     -3104.3594
   -450682.42248   -333508.26244  23113554.0394   23113547.5164
      2784.1564
    112618.64749     78556.24247  20189864.9924   20189858.1374
      -764.0624
    474726.93449    344889.34146  21423953.4534   21423948.2504
     -3026.9064
    433747.42645    313107.97942  23983567.5004   23983562.6054
     -2850.6874
    259240.72048    184576.59945  22448263.5004   22448256.5474
     -1679.7814
    295383.84849    210670.40247  21564789.3284   21564781.9304
     -1878.9064
   -519912.72947   -383264.98143  23432436.9064   23432431.5944
      3222.6414
 04  9  3 14 48  0.0000000  0  8G 3G11G14G15G18G19G22G25
    540212.99748    407410.38043  23897395.8284   23897391.3914
     -3110.2664
   -492378.04348   -365998.35344  23105618.9454   23105612.9024
      2775.5634
    124172.54349     87559.26347  20192063.4304   20192057.0554
      -776.1254
    520212.66949    380332.73946  21432608.9534   21432604.2274
     -3037.5944
    476552.60345    346462.61142  23991711.8444   23991707.8164
     -2856.4694
    284533.44949    204285.19345  22453076.8284   22453069.3244
     -1692.1874
    323625.96449    232677.22447  21570163.5164   21570156.2114
     -1886.3284
   -568201.91147   -420892.86643  23423247.7814   23423242.8914
      3216.2814
 04  9  3 14 48 15.0000000  0  7G 3G11G14G15G19G22G25
    586911.24948    443798.58143  23906282.1884   23906277.3444
     -3116.0164
   -533946.00448   -398388.98944  23097708.9694   23097702.7664
      2766.9844
    135906.43549     96702.53847  20194296.2194   20194290.0274
      -788.2344
    565857.06949    415899.77646  21441294.6414   21441289.7384
     -3048.2034
    310008.60348    224135.94545  22457924.5234   22457916.8404
     -1704.3754
    351977.47449    254769.28447  21575558.5704   21575550.9884
     -1893.7344
   -616398.39647   -458448.55943  23414075.8834   23414071.5984
      3210.0634
 04  9  3 14 48 30.0000000  0  7G 3G11G14G15G19G22G25
    633693.76248    480252.47643  23915184.2814   23915179.9344
     -3121.5474
   -575388.04448   -430681.49343  23089822.8594   23089816.7344
      2758.7974
    147818.09849    105984.34047  20196563.1954   20196556.5594
      -799.8754
    611657.77549    451588.61447  21450010.0784   21450005.1564
     -3058.4374
    335663.88748    244127.04445  22462806.4694   22462799.1684
     -1716.2034
    380436.16649    276944.87547  21580973.8984   21580966.8204
     -1900.7034
   -664503.94846   -495933.38143  23404921.8054   23404916.7774
      3204.2664
 04  9  3 14 48 45.0000000  0  7G 3G11G14G15G19G22G25
    680554.67547    516767.42643  23924101.6254   23924097.2974
     -3126.7504
   -616709.37448   -462879.93543  23081959.6954   23081953.6684
      2750.6884
    159901.75649    115400.17147  20198862.3204   20198856.1524
      -811.3914
    657609.14549    487394.84246  21458754.5784   21458749.5594
     -3068.5164
    361493.45548    264253.96045  22467721.7194   22467714.4924
     -1727.8284
    408996.61849    299199.74847  21586408.9454   21586401.4774
     -1907.4844
   -712523.53147   -533351.21443  23395783.5234   23395779.5084
      3198.3444
 04  9  3 14 49  0.0000000  0  7G 3G11G14G15G19G22G25
    727491.97847    553341.92343  23933033.3594   23933029.2934
     -3131.4844
   -657911.31148   -494985.33444  23074119.5004   23074112.8954
      2743.0164
    172155.70849    124948.68647  20201194.2504   20201187.8484
      -822.3914
    703709.33649    523317.04246  21467527.2344   21467522.2894
     -3078.1254
    387495.48248    284515.26545  22472669.1884   22472662.6214
     -1739.0474
    437657.19449    321532.64247  21591862.9144   21591855.3954
     -1913.8444
   -760458.54147   -570703.17643  23386661.8754   23386657.1884
      3193.0634
 04  9  3 14 49 15.0000000  0  7G 3G11G14G15G19G22G25
    774498.74246    589970.53843  23941978.7504   23941974.7664
     -3135.8914
   -699000.20648   -527002.66744  23066300.3674   23066294.3754
      2735.6724
    184573.19949    134624.63847  20203557.1644   20203551.0904
      -833.1094
    749951.49449    559349.87146  21476326.9384   21476321.6334
     -3087.4064
    413663.09148    304905.58745  22477649.1334   22477641.8324
     -1749.8594
    466411.30049    343938.42747  21597334.8834   21597326.9844
     -1919.8914
   -808315.24747   -607994.10543  23377554.9384   23377550.5124
      3187.9844
 04  9  3 14 49 30.0000000  0  7G 3G11G14G15G19G22G25
    821574.63646    626653.03143  23950936.7814   23950932.9574
     -3140.8124
   -739975.57648   -558931.52244  23058503.0394   23058496.9414
      2727.8754
    197154.15949    144427.96647  20205951.4224   20205944.9804
      -844.2344
    796335.45249    595493.18846  21485153.3284   21485148.3794
     -3097.0474
    439996.11548    325424.80245  22482660.3834   22482653.2584
     -1761.0784
    495258.92549    366417.07947  21602824.1174   21602816.5434
     -1926.3444
   -856093.25247   -645223.70043  23368463.2424   23368458.4614
      3182.4694
 04  9  3 14 49 45.0000000  0  7G 3G11G14G15G19G22G25
    868720.48546    663390.00643  23959908.7504   23959904.5044
     -3144.9374
   -780835.98748   -590770.81244  23050728.0234   23050721.2234
      2720.5634
    209899.52449    154359.40847  20208376.9694   20208370.4144
      -854.7344
    842862.34949    631747.88646  21494007.2814   21494002.2424
     -3106.1414
    466495.45248    346073.61845  22487702.9924   22487695.3714
     -1771.7344
    524201.24249    388969.51747  21608331.7734   21608324.0984
     -1932.2194
   -903791.03146   -682390.79643  23359386.9844   23359382.3674
      3177.5004
 04  9  3 14 50  0.0000000  0  7G 3G11G14G15G19G22G25
    915926.59646    700173.96443  23968891.7504   23968887.8164
     -3148.9534
   -821590.59048   -622527.66644  23042972.3594   23042965.9884
      2713.5944
    222799.73749    164411.51547  20210831.6954   20210825.0744
      -865.0004
    889522.49448    668106.41546  21502886.4224   21502881.5984
     -3114.9224
    493151.40548    366844.45545  22492775.5634   22492768.0944
     -1782.0784
    553228.78949    411588.36447  21613855.5474   21613848.0984
     -1937.8594
   -951417.63847   -719502.42143  23350324.0864   23350318.6414
      3172.9224
 04  9  3 14 50 15.0000000  0  7G 3G11G14G15G19G22G25
    963188.98845    737001.76843  23977885.0314   23977881.5744
     -3152.5944
   -862242.67348   -654204.61244  23035236.6954   23035230.3634
      2706.6254
    235851.11848    174581.40647  20213315.1564   20213308.9774
      -875.1094
    936312.08749    704565.81746  21511790.3134   21511785.1214
     -3123.6094
    519960.19548    387734.39945  22497877.0784   22497869.4574
     -1792.3284
    582338.02849    434270.86147  21619394.9384   21619387.6174
     -1943.3124
   -998976.20747   -756561.04843  23341273.5314   23341268.7304
      3168.2974
 04  9  3 14 50 30.0000000  0  7G 3G11G14G15G19G22G25
   1010504.07046    773870.62842  23986889.0634   23986885.0944
     -3155.9534
   -902795.14748   -685803.95444  23027519.3984   23027513.1914
      2700.3594
    249050.15848    184866.36647  20215826.7814   20215820.1294
      -884.6874
    983227.71548    741123.42546  21520717.8594   21520712.6764
     -3131.7504
    546918.25448    408740.66645  22503007.2504   22502999.8284
     -1801.9064
    611525.71949    457014.49547  21624949.1334   21624941.5864
     -1948.2814
  -1046469.67847   -793568.93543  23332235.8674   23332231.0744
      3164.3444
 04  9  3 14 50 45.0000000  0  7G 3G11G14G15G19G22G25
   1057869.55445    810778.75542  23995902.5314   23995898.6764
     -3159.3914
   -943249.66048   -717326.94444  23019821.7034   23019815.0904
      2693.6564
    262394.71948    195264.70747  20218366.1414   20218359.8524
      -894.5314
   1030267.28149    777777.61046  21529669.1804   21529664.1644
     -3140.1094
    574023.29448    429861.46045  22508164.9454   22508157.4534
     -1811.8754
    640789.82549    479817.68147  21630517.9384   21630510.2544
     -1953.5474
  -1093899.57947   -830527.28143  23323210.3364   23323205.1134
      3159.8594
 04  9  3 14 51  0.0000000  0  7G 3G11G14G15G19G22G25
   1105282.35145    847723.77642  24004924.9304   24004921.0704
     -3162.3754
   -983608.74248   -748775.58044  23012141.4064   23012135.4104
      2687.5784
    275881.89348    205774.18847  20220932.7584   20220926.2304
      -903.7034
   1077427.67749    814525.94346  21538643.5554   21538638.6564
     -3147.9224
    601272.24948    451094.39645  22513350.0084   22513342.9534
     -1821.2504
    670127.61149    502678.27947  21636100.8524   21636093.5004
     -1958.2034
  -1141268.40547   -867438.02543  23314196.5234   23314191.8674
      3156.1094
 04  9  3 14 51 15.0000000  0  7G 3G11G14G15G19G22G25
   1152739.20345    884703.05642  24013955.3984   24013952.2584
     -3165.2034
  -1023874.86148   -780151.78544  23004478.9844   23004472.3204
      2681.3594
    289508.66749    216392.43347  20223525.8754   20223519.7384
      -913.0314
   1124705.76149    851365.98746  21547640.2664   21547634.9774
     -3155.6874
    628661.99348    472437.03445  22518562.2344   22518555.1454
     -1830.5944
    699536.29949    525594.12147  21641696.9774   21641689.1684
     -1962.8754
  -1188578.52847   -904303.06043  23305193.4844   23305189.2114
      3152.0634
 04  9  3 14 51 30.0000000  0  7G 3G11G14G15G19G22G25
   1200241.60545    921717.94342  24022995.1484   24022990.6174
     -3168.2034
  -1064045.83548   -811453.84944  22996834.6884   22996828.0944
      2674.9534
    303276.61349    227120.69947  20226145.6174   20226139.1254
      -922.4694
   1172103.23149    888299.05446  21556659.9454   21556655.1484
     -3163.7974
    656194.17048    493890.65645  22523801.3834   22523793.8134
     -1840.2344
    729017.60849    548566.55547  21647307.2664   21647299.9144
     -1967.7974
  -1235827.91947   -941120.75043  23296201.8524   23296197.8164
      3147.9384
 04  9  3 14 51 45.0000000  0  7G 3G11G14G15G19G22G25
   1247782.46445    958762.73742  24032042.0084   24032037.9024
     -3170.5004
  -1104128.19948   -842686.86544  22989206.8594   22989201.0984
      2669.2974
    317178.85449    237953.60147  20228791.5314   20228784.3754
      -931.1874
   1219613.10049    925319.71146  21565700.8054   21565696.0514
     -3170.9694
    683861.70149    515449.73845  22529066.4304   22529059.3404
     -1848.8914
    758564.73849    571590.25747  21652929.7194   21652922.5984
     -1971.9224
  -1283022.95447   -977896.10343  23287220.7734   23287216.7544
      3144.6564
 04  9  3 14 52  0.0000000  0  7G 3G11G14G15G19G22G25
   1295356.98446    995833.77842  24041095.1414   24041090.8754
     -3173.0004
  -1144126.13248   -873854.07544  22981595.9144   22981589.9534
      2663.4694
    331210.82549    248887.58447  20231461.5164   20231455.0634
      -940.0474
   1267230.75749    962424.35146  21574761.9454   21574757.3834
     -3178.2974
    711659.86249    537110.61945  22534356.4144   22534348.9264
     -1857.8594
    788173.24149    594661.81347  21658564.0234   21658557.1914
     -1976.1414
  -1330167.63947  -1014632.19543  23278249.7504   23278245.4264
      3141.0634
 04  9  3 14 52 15.0000000  0  7G 3G11G14G15G19G22G25
   1342970.76445   1032935.34642  24050155.3914   24050151.8914
     -3175.6564
  -1184033.39648   -904950.65244  22974001.7424   22973996.0164
      2657.4534
    345378.11248    259927.03947  20234157.5474   20234150.7504
      -948.9694
   1314961.92649    999617.44746  21583844.8674   21583840.2544
     -3185.8444
    739594.36048    558877.75445  22539672.1174   22539664.7854
     -1866.8444
    817848.96949    617785.74147  21664211.2034   21664203.5234
     -1980.6254
  -1377255.68647  -1051324.15543  23269289.7424   23269284.7704
      3137.2814
 04  9  3 14 52 30.0000000  0  7G 3G11G14G15G19G22G25
   1390619.45446   1070064.13842  24059223.2424   24059219.6054
     -3177.9224
  -1223853.61148   -935979.40444  22966424.1254   22966418.6804
      2651.7344
    359676.73849    271068.80147  20236878.6334   20236872.2194
      -957.7034
   1362802.44349   1036895.75346  21592948.9064   21592943.5864
     -3193.1094
    767660.94548    580747.79345  22545013.1254   22545005.8364
     -1875.5474
    847588.13749    640959.10047  21669870.2194   21669862.8834
     -1984.7974
  -1424290.82547  -1087974.92743  23260338.8524   23260334.4064
      3133.8444
 04  9  3 14 52 45.0000000  0  7G 3G11G14G15G19G22G25
   1438300.37345   1107218.10042  24068296.3524   24068292.2344
     -3179.8284
  -1263588.73848   -966941.84244  22958862.7664   22958856.8834
      2646.1724
    374104.21749    282310.98347  20239624.0784   20239617.6294
      -966.1254
   1410749.83049   1074257.32546  21602072.5864   21602067.6884
     -3200.0784
    795856.90948    602718.64545  22550378.7584   22550371.3984
     -1884.0474
    877388.31649    664180.00247  21675541.0474   21675533.5044
     -1988.7194
  -1471274.85947  -1124585.85543  23251397.4534   23251393.2854
      3130.5944
 04  9  3 14 53  0.0000000  0  7G 3G11G14G15G19G22G25
   1486011.39445   1144395.45142  24077375.4694   24077371.5164
     -3181.7194
  -1303240.40048   -997839.23144  22951317.2894   22951311.3794
      2640.6414
    388658.46349    293651.93847  20242393.6804   20242387.0434
      -974.5624
   1458801.99549   1111700.54746  21611216.6024   21611211.6764
     -3207.0004
    824180.18448    624788.70445  22555768.1254   22555760.9104
     -1892.5004
    907247.64149    687446.98547  21681223.1724   21681215.9344
     -1992.6564
  -1518209.34347  -1161158.17544  23242467.0314   23242461.7974
      3127.2504
 04  9  3 14 53 15.0000000  0  7G 3G11G14G15G19G22G25
   1533752.33445   1181596.16242  24086459.7974   24086456.2034
     -3183.5314
  -1342808.20648  -1028671.30444  22943787.9304   22943781.5514
      2635.1254
    403339.44448    305091.65747  20245187.1724   20245180.5704
      -982.9534
   1506958.95949   1149225.43046  21620380.8284   21620375.8204
     -3213.9224
    852630.75148    646957.96945  22561182.2424   22561174.9454
     -1900.8914
    937166.18649    710760.12447  21686916.3914   21686908.9614
     -1996.4844
  -1565093.70647  -1197691.43944  23233545.2504   23233540.5234
      3123.9534
 04  9  3 14 53 30.0000000  0  7G 3G11G14G15G19G22G25
   1581522.13146   1218819.34442  24095550.5084   24095547.1994
     -3185.3754
  -1382292.48548  -1059438.27144  22936274.0474   22936268.2034
      2629.6094
    418146.18249    316629.36947  20248004.8204   20247998.3324
      -991.1254
   1555219.68049   1186831.17246  21629564.5704   21629559.7034
     -3220.5944
    881207.46748    669225.51445  22566620.2194   22566612.6564
     -1909.1254
    967143.30149    734118.89147  21692620.9844   21692612.9774
     -2000.2344
  -1611928.39547  -1234185.98044  23224632.9694   23224628.0434
      3120.8754
 04  9  3 14 53 45.0000000  0  7G 3G11G14G15G19G22G25
   1629318.62445   1256063.33642  24104646.3054   24104642.3244
     -3187.6564
  -1421694.77148  -1090141.36344  22928776.2274   22928770.3324
      2623.8134
    433076.79649    328263.59947  20250846.0944   20250839.9414
      -999.7664
   1603582.09949   1224516.14946  21638767.9614   21638762.7464
     -3227.8284
    909908.27348    691589.75945  22572081.7814   22572074.6024
     -1917.7814
    997177.23349    757521.92547  21698336.1644   21698328.9694
     -2004.4694
  -1658714.85147  -1270642.97144  23215729.6094   23215724.9344
      3117.2194
 04  9  3 14 54  0.0000000  0  7G 3G11G14G15G19G22G25
   1677140.74145   1293327.27043  24113745.6644   24113742.6454
     -3188.9224
  -1461015.44048  -1120780.84144  22921293.9774   22921287.5744
      2618.6884
    448130.39549    339993.67447  20253710.6884   20253704.1604
     -1007.6414
   1652045.36749   1262279.70246  21647989.8754   21647984.9184
     -3234.1414
    938732.19948    714049.93545  22577566.9694   22577559.3714
     -1925.5784
   1027267.22249    780968.64947  21704062.0004   21704055.2114
     -2007.7814
  -1705453.24048  -1307062.48144  23206835.2424   23206830.9924
      3114.2974
 04  9  3 14 54 15.0000000  0  7G 3G11G14G15G19G22G25
   1724990.01946   1330612.42842  24122851.7424   24122848.0164
     -3191.1094
  -1500252.22048  -1151354.97744  22913827.4224   22913821.0744
      2612.7194
    463308.67649    351820.88747  20256599.0784   20256592.8164
     -1016.2504
   1700611.16349   1300123.15846  21657231.7194   21657226.6134
     -3241.4064
    967680.90348    736607.35145  22583075.6094   22583068.0594
     -1934.2194
   1057415.15749    804460.53647  21709799.6254   21709791.7234
     -2012.0164
  -1752141.46248  -1343442.91144  23197951.1954   23197946.2774
      3110.6884
 04  9  3 14 54 30.0000000  0  7G 3G11G14G15G19G22G25
   1772865.53547   1367917.97642  24131961.9774   24131958.4454
     -3192.3754
  -1539405.56148  -1181864.07944  22906376.7344   22906371.1174
      2607.5634
    478610.91749    363744.69847  20259510.9694   20259504.6024
     -1024.1564
   1749278.59049   1338045.82146  21666493.0474   21666488.0514
     -3247.7344
    996753.38148    759261.21045  22588607.6334   22588600.6294
     -1942.1094
   1087620.40049    827997.07547  21715546.9694   21715539.9224
     -2015.4374
  -1798779.74748  -1379784.40644  23189075.7424   23189071.3244
      3107.6884
 04  9  3 14 54 45.0000000  0  7G 3G11G14G15G19G22G25
   1820758.31047   1405236.95042  24141075.7584   24141072.1954
     -3193.3754
  -1578483.71148  -1212314.57844  22898940.5004   22898933.9734
      2602.7194
    494028.33549    375758.25847  20262444.7734   20262438.5044
     -1031.6254
   1798038.88049   1376040.81046  21675771.7424   21675766.6484
     -3253.7344
   1025940.70448    782004.55145  22594162.1884   22594154.5314
     -1949.5784
   1117874.28649    851571.50447  21721304.3134   21721297.0784
     -2018.5314
  -1845376.39948  -1416093.47744  23180208.9384   23180204.5634
      3105.1094
 04  9  3 14 55  0.0000000  0  8G 3G11G14G15G 1G19G22G25
   1868671.18947   1442571.64343  24150193.1804   24150189.6524
     -3194.9064
  -1617483.09248  -1242703.72444  22891519.0314   22891513.1214
      2597.2034
    509563.81049    387863.82247  20265401.0864   20265394.8444
     -1039.7034
   1846895.12749   1414110.60146  21685068.6884   21685063.7274
     -3260.3444
   -144103.65556    -95981.05853  23910051.3364   23910047.1884
      3072.7344
   1055245.89047    804839.73845  22599738.8364   22599731.1214
     -1957.7504
   1148180.04049    875186.35947  21727071.1884   21727063.6724
     -2022.2034
  -1891927.75647  -1452367.23744  23171350.3364   23171345.6294
      3101.7814
 04  9  3 14 55 15.0000000  0  8G 3G11G14G15G 1G19G22G25
   1916603.53647   1479921.48943  24159315.0554   24159310.3444
     -3196.4844
  -1656403.91848  -1273031.63244  22884112.4304   22884106.3244
      2591.7974
    525216.81549    400060.96147  20268380.0634   20268373.1914
     -1047.7504
   1895846.72149   1452254.68646  21694383.9454   21694379.2154
     -3266.8444
   -190169.36447   -131876.41242  23901285.3914   23901281.4144
      3069.1414
   1084668.29848    827766.27445  22605337.8754   22605330.6414
     -1965.6724
   1178537.32749    898841.37047  21732847.9614   21732841.0204
     -2025.8284
  -1938433.77048  -1488605.69544  23162500.5084   23162496.1214
      3098.6254
 04  9  3 14 55 30.0000000  0  8G 3G11G14G15G 1G19G22G25
   1964555.65847   1517286.74843  24168439.8204   24168435.4694
     -3197.3754
  -1695245.07048  -1303297.47944  22876721.4454   22876715.3674
      2586.8594
    540987.89249    412350.09647  20271380.9064   20271374.8404
     -1055.2344
   1944893.99849   1490473.30546  21703716.9144   21703712.1954
     -3272.9224
   -236182.40347   -167730.74943  23892528.9614   23892525.3164
      3065.9224
   1114208.30348    850784.43045  22610959.0314   22610951.7274
     -1973.1564
   1208946.83349    922537.07447  21738634.7734   21738627.2934
     -2028.9534
  -1984893.46248  -1524808.03744  23153659.5704   23153654.8834
      3095.9224
 04  9  3 14 55 45.0000000  0  8G 3G11G14G15G 1G19G22G25
   2012525.00047   1554665.41943  24177568.0234   24177564.3094
     -3198.5624
  -1734008.57548  -1333502.80344  22869345.1644   22869338.6914
      2581.5634
    556874.54148    424729.30347  20274404.5084   20274397.7934
     -1063.0474
   1994034.54149   1528764.61446  21713068.2504   21713063.4184
     -3279.2974
   -282144.95447   -203545.68742  23883782.8284   23883778.6454
      3062.3594
   1143863.22848    873892.14245  22616602.3524   22616594.9104
     -1980.9374
   1239406.19448    946271.61547  21744431.1724   21744423.5514
     -2032.3754
  -2031308.79848  -1560975.82644  23144826.6174   23144822.1954
      3092.7034
 04  9  3 14 56  0.0000000  0  8G 3G11G14G15G 1G19G22G25
   2060513.85747   1592059.30243  24186699.3984   24186696.0394
     -3199.8124
  -1772691.37448  -1363645.26244  22861983.7344   22861977.8134
      2576.2814
    572879.36749    437200.57947  20277449.8674   20277443.2074
     -1070.8594
   2043270.88249   1567130.57446  21722437.7034   21722433.1414
     -3285.5314
   -328054.03646   -239318.99142  23875046.3204   23875042.3794
      3058.8444
   1173635.64448    897091.40345  22622267.8914   22622260.2704
     -1988.6254
   1269918.31749    970047.28147  21750237.5084   21750229.9344
     -2035.8594
  -2077676.73748  -1597106.66744  23136003.3834   23135999.0904
      3089.6884
 04  9  3 14 56 15.0000000  0  8G 3G11G14G15G 1G19G22G25
   2108519.97947   1629466.62042  24195835.5784   24195831.5394
     -3201.1094
  -1811294.98348  -1393726.00444  22854637.5864   22854631.8554
      2570.7344
    589000.43848    449762.44647  20280517.3054   20280510.8134
     -1078.7504
   2092600.98849   1605569.59346  21731824.9924   21731820.2664
     -3291.9844
   -373911.38746   -275052.00542  23866320.1414   23866315.6524
      3055.2344
   1203523.51948    920380.63045  22627955.4064   22627948.0204
     -1996.5314
   1300481.21848    993862.51447  21756053.2734   21756045.5984
     -2039.3594
  -2123998.66948  -1633201.67744  23127188.5234   23127183.9774
      3086.3754
 04  9  3 14 56 30.0000000  0  8G 3G11G14G15G 1G19G22G25
   2156544.43847   1666888.26242  24204974.4454   24204970.0434
     -3201.9844
  -1849817.90848  -1423743.86044  22847307.2034   22847300.8834
      2565.6884
    605238.86949    462415.76547  20283607.1884   20283601.1294
     -1086.2814
   2142025.85149   1644082.44946  21741230.1094   21741225.1094
     -3297.9844
   -419715.50346   -310743.50442  23857603.7034   23857600.4614
      3052.0784
   1233527.60748    943760.42645  22633664.6804   22633657.6954
     -2003.9224
   1331096.18149   1017718.30947  21761879.2034   21761872.0124
     -2042.5474
  -2170273.06647  -1669259.63543  23118382.8834   23118378.5124
      3083.5004
 04  9  3 14 56 45.0000000  0  8G 3G11G14G15G 1G19G22G25
   2204583.07447   1704320.93342  24214115.2274   24214111.5984
     -3203.0474
  -1888263.59148  -1453701.54344  22839991.1804   22839985.1524
      2560.3754
    621590.47448    475157.26747  20286719.0394   20286712.9384
     -1093.9694
   2191541.40649   1682665.98146  21750652.3984   21750647.8524
     -3304.0944
   -465469.95846   -346396.32142  23848896.7584   23848892.8554
      3048.5634
   1263643.82548    967227.59545  22639395.8524   22639388.2814
     -2011.5004
   1361759.30449   1041611.62747  21767713.8984   21767706.6604
     -2045.9064
  -2216503.29447  -1705283.15644  23109585.4924   23109581.3484
      3080.5164
 04  9  3 14 57  0.0000000  0  8G 3G11G14G15G 1G19G22G25
   2252635.14647   1741764.06442  24223259.1804   24223256.1094
     -3203.8754
  -1926632.15048  -1483599.11144  22832689.8444   22832684.0594
      2555.3134
    638054.72349    487986.54647  20289852.3284   20289845.9494
     -1101.3754
   2241147.12149   1721319.74946  21760092.6254   21760087.5274
     -3310.0944
   -511174.95546   -382010.59842  23840199.4454   23840195.5204
      3045.2814
   1293871.66948    990781.73945  22645147.9534   22645140.7774
     -2018.9224
   1392470.32249   1065542.28447  21773558.1644   21773550.9064
     -2048.9844
  -2262689.31847  -1741272.24144  23100796.6174   23100792.6844
      3077.5944
 04  9  3 14 57 15.0000000  0  7G11G14G15G 1G19G22G25
  -1964920.17948  -1513433.94644  22825404.1414   22825397.9774
      2549.9224
    654634.47949    500905.83347  20293007.0864   20293000.7424
     -1109.0314
   2290845.76649   1760045.95646  21769549.7504   21769544.9414
     -3316.2344
   -556827.30246   -417583.83642  23831512.7194   23831507.9344
      3041.7974
   1324213.77548   1014424.92245  22650921.6884   22650915.1334
     -2026.5164
   1423232.31249   1089512.64747  21779412.1484   21779404.6604
     -2052.3754
  -2308827.82348  -1777224.33343  23092016.9304   23092012.4344
      3074.4534
 04  9  3 14 57 30.0000000  0  7G11G14G15G 1G19G22G25
  -2003126.72448  -1543205.27644  22818133.2424   22818127.3364
      2544.2504
    671330.29048    513915.54247  20296184.2194   20296177.3754
     -1117.0624
   2340637.77049   1798844.89146  21779024.7734   21779019.9494
     -3322.6874
   -602426.14846   -453115.42242  23822835.5314   23822831.3594
      3038.2034
   1354670.50748   1038157.41345  22656717.2584   22656710.3984
     -2034.3754
   1454045.79849   1113523.12947  21785275.7114   21785268.3794
     -2056.0944
  -2354917.75748  -1813138.54943  23083245.8914   23083241.3634
      3070.9224
 04  9  3 14 57 45.0000000  0  7G11G14G15G 1G19G22G25
  -2041250.66748  -1572912.24944  22810878.7344   22810872.7074
      2539.3594
    688142.85649    527016.23047  20299383.3984   20299376.8484
     -1124.2344
   2390523.89849   1837717.17746  21788518.0234   21788513.3914
     -3328.3914
   -647970.40247   -488604.43042  23814168.6414   23814164.5664
      3035.0004
   1385242.53448   1061979.74045  22662535.0784   22662528.0554
     -2041.4534
   1484911.70749   1137574.46847  21791149.4924   21791141.6684
     -2058.9844
  -2400957.69748  -1849013.80644  23074484.7194   23074480.7624
      3068.2034
 04  9  3 14 58  0.0000000  0  7G11G14G15G 1G19G22G25
  -2079297.24148  -1602558.93744  22803638.9304   22803632.6134
      2533.7194
    705066.36749    540203.37047  20302603.8914   20302597.4694
     -1131.9694
   2440498.30349   1876658.25046  21798028.0474   21798022.9614
     -3334.6254
   -693465.56447   -524055.22542  23805511.5554   23805506.8754
      3031.1884
   1415923.90348   1085887.28145  22668374.1024   22668366.8404
     -2049.1254
   1515824.42049   1161662.27947  21797031.7974   21797024.0164
     -2062.5314
  -2446953.03948  -1884854.32744  23065732.6644   23065727.8984
      3064.8134
 04  9  3 14 58 15.0000000  0  7G11G14G15G 1G19G22G25
  -2117262.27848  -1632142.09445  22796414.3524   22796407.9344
      2528.2974
    722104.52149    553479.84247  20305846.3364   20305839.6564
     -1139.6874
   2490564.58249   1915670.91346  21807555.0474   21807550.6134
     -3340.8124
   -738907.51147   -559464.51542  23796864.0554   23796860.0554
      3027.6254
   1446718.14148   1109882.78245  22674233.8984   22674226.1254
     -2056.7664
   1546787.82449   1185789.60147  21802924.1804   21802916.6254
     -2065.9064
  -2492899.43048  -1920656.68544  23056988.9924   23056984.4064
      3061.4534
 04  9  3 14 58 30.0000000  0  7G11G14G15G 1G19G22G25
  -2155147.97249  -1661663.39845  22789204.8524   22789198.5944
      2522.8914
    739254.49949    566843.45547  20309109.9844   20309102.9104
     -1147.1874
   2540720.04049   1954753.05846  21817099.4614   21817094.6024
     -3346.8284
   -784298.63047   -594834.22342  23788226.2734   23788221.8834
      3024.2344
   1477622.50848   1133964.07045  22680114.7114   22680107.3634
     -2064.1254
   1577799.44449   1209954.48047  21808825.0704   21808817.7734
     -2069.2504
  -2538799.19848  -1956422.75244  23048254.4614   23048250.1024
      3058.2664
 04  9  3 14 58 45.0000000  0  7G11G14G15G 1G19G22G25
  -2192950.28749  -1691119.75344  22782011.5784   22782005.1804
      2517.6254
    756519.95449    580297.04647  20312395.3914   20312388.8164
     -1154.6094
   2590968.24149   1993907.46746  21826661.5784   21826656.8834
     -3352.7034
   -829634.91647   -630161.21042  23779599.1174   23779594.5744
      3020.7504
   1508640.42048   1158133.87245  22686017.1094   22686010.3404
     -2071.3914
   1608862.96049   1234159.79947  21814736.3834   21814729.2934
     -2072.4534
  -2584648.22448  -1992149.23444  23039529.3754   23039525.3284
      3055.1564
 04  9  3 14 59  0.0000000  0  7G11G14G15G 1G19G22G25
  -2230676.08549  -1720516.48244  22774832.3444   22774825.9924
      2512.2344
    773893.48149    593834.85747  20315701.0704   20315694.4574
     -1162.1254
   2641301.69949   2033128.32946  21836239.4384   21836234.8834
     -3358.7034
   -874923.47746   -665450.98742  23770980.8984   23770976.3794
      3017.3284
   1539764.35248   1182386.24945  22691939.8284   22691932.4024
     -2078.7974
   1639971.09449   1258399.89447  21820656.1724   21820648.3524
     -2075.6414
  -2630453.29848  -2027841.47844  23030813.6484   23030808.7894
      3051.9224
 04  9  3 14 59 15.0000000  0  7G11G14G15G 1G19G22G25
  -2268319.69248  -1749849.17144  22767668.7584   22767662.8524
      2506.7504
    791380.33549    607460.96647  20319029.3444   20319022.3554
     -1169.6094
   2691725.65749   2072419.69546  21845834.7974   21845830.3204
     -3364.6414
   -920158.68846   -700699.23242  23762372.7974   23762368.8244
      3013.8594
   1570999.40149   1206725.22345  22697883.8914   22697876.5124
     -2086.1094
   1671129.44849   1282679.10747  21826585.3524   21826577.6484
     -2079.0004
  -2676208.50847  -2063494.87444  23022106.5634   23022102.1954
      3048.6414
 04  9  3 14 59 30.0000000  0  7G11G14G15G 1G19G22G25
  -2305881.95249  -1779118.47044  22760521.1724   22760514.5124
      2501.3594
    808979.19849    621174.35847  20322377.9694   20322371.1604
     -1177.1414
   2742238.72749   2111780.50446  21855447.3284   21855442.6994
     -3370.6094
   -965341.45846   -735906.58042  23753774.6484   23753770.7704
      3010.1724
   1602344.17148   1231149.71145  22703848.6334   22703841.3134
     -2093.4224
   1702336.73649   1306996.46247  21832523.9534   21832516.3054
     -2082.2664
  -2721914.81548  -2099110.16144  23013409.2734   23013404.4884
      3045.3444
 04  9  3 14 59 45.0000000  0  7G11G14G15G 1G19G22G25
  -2343365.15849  -1808326.15544  22753388.4304   22753381.9184
      2496.1094
    826687.28849    634972.86347  20325747.6884   20325740.9964
     -1184.2504
   2792838.21749   2151208.65546  21865076.1414   21865071.1684
     -3376.2664
  -1010474.17047   -771074.91742  23745186.6724   23745182.6174
      3007.0784
   1633795.81148   1255657.45745  22709833.4614   22709825.9654
     -2100.4694
   1733590.50149   1331350.02147  21838471.4384   21838463.4614
     -2085.2194
  -2767574.20248  -2134688.87644  23004720.0314   23004715.7894
      3042.2814
 04  9  3 15  0  0.0000000  0  7G11G14G15G 1G19G22G25
  -2380767.52249  -1837470.85544  22746271.0164   22746264.7934
      2490.9534
    844505.87349    648857.46647  20329138.8204   20329132.3284
     -1191.4374
   2843525.29049   2190705.05946  21874721.1174   21874716.9224
     -3381.9064
  -1055555.23347   -806203.00942  23736606.8914   23736603.2774
      3003.8914
   1665355.46048   1280249.37145  22715839.1094   22715832.4104
     -2107.4694
   1764892.06149   1355740.84347  21844427.8834   21844420.3794
     -2088.2034
  -2813185.00948  -2170229.73844  22996040.8134   22996036.4224
      3039.2194
 04  9  3 15  0 15.0000000  0  7G11G14G15G 1G19G22G25
  -2418088.61549  -1866552.22944  22739169.0704   22739162.3094
      2485.2814
    862434.71949    662827.98547  20332550.2194   20332543.6844
     -1199.0314
   2894299.63949   2230269.45046  21884383.1954   21884378.9494
     -3387.9694
  -1100584.52247   -841290.80443  23728038.5314   23728035.0864
      3000.1884
   1697022.74748   1304925.15145  22721865.1254   22721857.8674
     -2114.8284
   1796241.45349   1380168.91547  21850393.4144   21850385.7544
     -2091.6874
  -2858746.87048  -2205732.46844  22987370.4144   22987366.0554
      3035.7034
 04  9  3 15  0 30.0000000  0  7G11G14G15G 1G19G22G25
  -2455327.02549  -1895569.18244  22732082.7114   22732076.1914
      2479.6564
    880474.87249    676885.23647  20335983.4614   20335976.8134
     -1206.5474
   2945162.24649   2269902.62746  21894062.5004   21894057.6764
     -3393.9064
  -1145560.68147   -876337.14243  23719480.5394   23719476.6884
      2996.5634
   1728798.61848   1329685.54945  22727911.6724   22727904.8674
     -2122.1414
   1827639.95849   1404635.26647  21856368.4534   21856360.7584
     -2095.0004
  -2904258.29848  -2241195.90644  22978709.6414   22978705.5394
      3032.2194
 04  9  3 15  0 45.0000000  0  7G11G14G15G 1G19G22G25
  -2492484.65749  -1924523.18544  22725012.0704   22725005.3984
      2474.5164
    898623.93649    691027.35947  20339436.6884   20339430.4104
     -1213.5004
   2996110.74649   2309602.72746  21903757.4064   21903752.5004
     -3399.4224
  -1190485.61747   -911343.59043  23710930.9774   23710927.1094
      2993.2664
   1760680.66348   1354528.67545  22733979.0554   22733971.8954
     -2128.8914
   1859085.31949   1429138.13047  21862352.4224   21862345.0984
     -2097.8594
  -2949721.13948  -2276621.47844  22970058.4304   22970054.0594
      3029.3134
 04  9  3 15  1  0.0000000  0  7G11G14G15G 1G19G22G25
  -2529560.05349  -1953413.10544  22717956.7504   22717950.2274
      2469.0474
    916882.82449    705255.04447  20342911.5474   20342904.7974
     -1220.8594
   3047145.91749   2349370.36546  21913469.1024   21913464.7624
     -3405.2344
  -1235358.13747   -946309.18943  23702392.7734   23702388.5124
      2989.7504
   1792669.53748   1379455.05845  22740066.5784   22740059.1844
     -2136.0944
   1890578.66749   1453678.38247  21868345.2894   21868337.7304
     -2101.1414
  -2995133.87948  -2312007.99944  22961416.6644   22961412.2274
      3025.8754
 04  9  3 15  1 15.0000000  0  7G11G14G15G 1G19G22G25
  -2566555.01849  -1982240.36344  22710917.0164   22710910.3164
      2463.5474
    935249.34549    719566.61647  20346406.3984   20346400.2034
     -1228.0784
   3098265.52249   2389203.80546  21923196.9454   21923192.3204
     -3410.7974
  -1280180.04446   -981235.33743  23693863.1884   23693858.9184
      2986.4534
   1824762.96448   1404462.89645  22746173.2274   22746166.7734
     -2143.1254
   1922117.94249   1478254.43047  21874347.0084   21874339.6374
     -2104.1874
  -3040498.10848  -2347356.73244  22952784.4454   22952779.6054
      3022.5784
 04  9  3 15  1 30.0000000  0  7G11G14G15G 1G19G22G25
  -2603469.04149  -2011004.53944  22703892.1804   22703885.5744
      2458.3754
    953723.67049    733962.18847  20349921.8594   20349915.6054
     -1235.0624
   3149469.78349   2429103.20645  21932940.5634   21932936.5314
     -3416.2814
  -1324950.80146  -1016121.63343  23685343.3754   23685339.5864
      2983.1094
   1856960.87148   1429552.15945  22752300.6024   22752293.4534
     -2149.9064
   1953703.44749   1502866.49747  21880357.4144   21880349.8014
     -2107.0624
  -3085813.17448  -2382667.14644  22944161.0784   22944156.9264
      3019.5004
 04  9  3 15  1 45.0000000  0  7G11G14G15G 1G19G22G25
  -2640304.79949  -2039707.72044  22696882.5944   22696876.3014
      2453.0314
    972302.35849    748439.08047  20353457.5864   20353450.9384
     -1242.0784
   3200755.21649   2469065.86345  21942700.1094   21942695.6214
     -3421.7504
  -1369673.52047  -1050970.49643  23676833.1334   23676828.7974
      2979.8444
   1889259.86848   1454720.18445  22758446.8444   22758439.4344
     -2156.6094
   1985331.98049   1527512.09346  21886376.2034   21886368.4574
     -2110.0474
  -3131082.07548  -2417941.58544  22935546.6254   22935542.0554
      3016.3754
 04  9  3 15  2  0.0000000  0  7G11G14G15G 1G19G22G25
  -2677059.37749  -2068347.65345  22689888.4384   22689882.2734
      2447.4844
    990987.78449    762999.14047  20357013.2114   20357006.6094
     -1249.3284
   3252124.17349   2509093.58145  21952475.3594   21952470.9304
     -3427.5314
  -1414345.41047  -1085779.74343  23668332.0314   23668328.0664
      2976.3914
   1921662.25248   1479968.77845  22764612.4614   22764605.0204
     -2163.7504
   2017006.18349   1552193.27646  21892403.7584   21892396.1294
     -2113.2974
  -3176301.61748  -2453177.55444  22926941.9144   22926937.1024
      3012.9064
 04  9  3 15  2 15.0000000  0  7G11G14G15G 1G19G22G25
  -2713709.34849  -2096906.08145  22682914.7274   22682907.2934
      2440.0634
   1009802.83049    777660.20947  20360593.4454   20360586.8204
     -1258.4224
   3303599.47149   2549204.18246  21962270.3754   21962266.3484
     -3434.9694
  -1458943.21347  -1120531.27043  23659845.7114   23659841.7034
      2970.9694
   1954190.75348   1505315.64045  22770802.5164   22770795.1954
     -2172.5004
   2048749.11549   1576928.01446  21898444.1254   21898436.6804
     -2118.2344
  -3221448.36648  -2488356.81544  22918350.1564   22918345.8524
      3007.5944
 04  9  3 15  2 30.0000000  0  7G11G14G15G 1G19G22G25
  -2750266.51049  -2125392.19045  22675957.8754   22675951.3674
      2434.3914
   1028735.35049    792412.80647  20364196.2504   20364189.9734
     -1265.7664
   3355169.02249   2589388.20646  21972084.1094   21972079.2344
     -3440.8444
  -1503478.65747  -1155234.20943  23651370.6094   23651366.1644
      2967.2814
   1986833.09648   1530751.20145  22777014.6094   22777007.3134
     -2179.6874
   2080548.76649   1601706.94046  21904495.2274   21904487.9454
     -2121.5004
  -3266533.87448  -2523488.35044  22909771.2424   22909766.6524
      3003.9224
 04  9  3 15  2 45.0000000  0  7G11G14G15G 1G19G22G25
  -2786740.88849  -2153813.78644  22669016.8834   22669010.6134
      2429.0784
   1047774.75949    807248.71247  20367819.3284   20367813.1374
     -1272.6564
   3406822.11649   2629637.35445  21981913.2424   21981908.8594
     -3446.0944
  -1547962.03347  -1189896.55543  23642905.6804   23642901.6524
      2964.0944
   2019578.59047   1556267.16245  22783245.5004   22783238.4804
     -2186.2664
   2112394.69848   1626521.93846  21910555.6884   21910548.0824
     -2124.3594
  -3311568.34348  -2558580.10744  22901201.0474   22901196.4694
      3000.8284
 04  9  3 15  3  0.0000000  0  7G11G14G15G 1G19G22G25
  -2823133.88249  -2182171.95945  22662091.5634   22662084.9924
      2423.7194
   1066919.23249    822166.46647  20371462.2504   20371455.5864
     -1279.5944
   3458556.93849   2669950.17045  21991758.0314   21991753.5824
     -3451.5314
  -1592394.79947  -1224519.47143  23634450.1094   23634446.2854
      2960.7664
   2052425.19448   1581861.88045  22789496.3364   22789489.0514
     -2192.8594
   2144285.38749   1651371.80846  21916623.9844   21916616.9024
     -2127.3124
  -3356552.90748  -2593632.99144  22892640.8594   22892636.3134
      2997.5164
 04  9  3 15  3 15.0000000  0  7G11G14G15G 1G19G22G25
  -2859443.98249  -2210465.54744  22655181.8054   22655175.7704
      2418.1094
   1086169.86349    837166.95347  20375125.6884   20375119.3164
     -1286.7194
   3510374.57849   2710327.52545  22001618.8754   22001613.9344
     -3457.0944
  -1636775.42546  -1259101.78043  23626005.2344   23626000.9414
      2957.1414
   2085374.02548   1607536.28345  22795766.3754   22795758.8444
     -2199.7664
   2176222.07849   1676257.52447  21922701.5234   21922694.3364
     -2130.4534
  -3401485.98548  -2628645.75544  22884090.4144   22884085.7664
      2994.0944
 04  9  3 15  3 30.0000000  0  7G11G14G15G 1G19G22G25
  -2895671.82649  -2238695.05245  22648287.6254   22648281.6334
      2412.2814
   1105525.34549    852249.12947  20378809.1094   20378802.2544
     -1293.9694
   3562273.68449   2750768.35845  22011494.3674   22011490.5824
     -3462.7974
  -1681104.93346  -1293644.23543  23617569.4924   23617565.7304
      2953.4694
   2118423.55448   1633289.13345  22802055.1334   22802048.3484
     -2206.7974
   2208203.71649   1701178.25847  21928787.4694   21928779.9844
     -2133.7664
  -3446368.28347  -2663618.95344  22875549.7504   22875545.1804
      2990.2974
 04  9  3 15  3 45.0000000  0  7G11G14G15G 1G19G22G25
  -2931816.00849  -2266859.33845  22641409.7974   22641403.1564
      2406.7194
   1124986.70249    867413.83147  20382512.4534   20382505.9304
     -1301.0164
   3614255.14549   2791273.36845  22021386.6484   22021381.9574
     -3468.2814
  -1725381.89646  -1328145.76243  23609144.1334   23609139.2704
      2949.9064
   2151574.67348   1659121.16245  22808363.6254   22808356.3834
     -2213.5164
   2240231.47849   1726134.93947  21934882.2274   21934874.5354
     -2136.8284
  -3491198.34748  -2698551.42644  22867018.6644   22867013.9924
      2986.8754
 04  9  3 15  4  0.0000000  0  7G11G14G15G 1G19G22G25
  -2967876.40349  -2294958.34645  22634547.8594   22634541.6454
      2401.1414
   1144553.49449    882660.66347  20386235.7274   20386229.4104
     -1308.0004
   3666318.58849   2831842.25446  22031293.9384   22031289.1644
     -3473.7664
  -1769606.39047  -1362606.37443  23600728.0634   23600724.1954
      2946.5784
   2184826.92248   1685031.98145  22814691.4224   22814684.4844
     -2220.2034
   2272305.08249   1751127.34247  21940985.5704   21940978.0984
     -2139.8754
  -3535975.92348  -2733443.01244  22858497.5234   22858493.0314
      2983.4224
 04  9  3 15  4 15.0000000  0  7G11G14G15G 1G19G22G25
  -3003854.15849  -2322992.95644  22627701.8054   22627695.2814
      2395.6094
   1164224.06549    897988.37247  20389979.1414   20389972.1724
     -1314.8594
   3718462.33749   2872473.72445  22041216.5234   22041212.0634
     -3479.0474
  -1813779.62547  -1397027.05743  23592322.1414   23592318.0164
      2943.0944
   2218178.46348   1711020.18345  22821038.2424   22821030.8984
     -2226.7664
   2304423.14249   1776154.38747  21947097.3444   21947089.4574
     -2142.7814
  -3580702.09348  -2768294.54444  22849986.8754   22849982.1804
      2979.9534
 04  9  3 15  4 30.0000000  0  7G11G14G15G 1G19G22G25
  -3039747.86349  -2350962.08945  22620871.0554   22620864.7234
      2389.8284
   1183999.32749    913397.66047  20393742.0084   20393735.1294
     -1322.0784
   3770687.19849   2913168.39545  22051154.7664   22051149.7934
     -3484.5624
  -1857900.44547  -1431406.89643  23583926.4844   23583922.6134
      2939.3594
   2251630.07048   1737086.33545  22827404.0234   22827396.7854
     -2233.6564
   2336586.66049   1801216.85546  21953217.9064   21953210.0824
     -2145.9694
  -3625375.57548  -2803105.02644  22841485.6414   22841480.7854
      2976.2344
 04  9  3 15  4 45.0000000  0  7G11G14G15G 1G19G22G25
  -3075557.93249  -2378866.04345  22614057.0554   22614050.3134
      2384.5004
   1203878.48849    928887.90447  20397524.8134   20397518.0004
     -1328.7344
   3822992.39949   2953925.66146  22061107.9924   22061103.7854
     -3489.7974
  -1901969.25447  -1465746.22443  23575540.7344   23575536.1604
      2936.0784
   2285180.85948   1763229.80045  22833788.5394   22833781.2734
     -2240.0314
   2368795.14149   1826314.35446  21959347.2504   21959339.4104
     -2148.8124
  -3669996.55048  -2837874.58044  22832994.4694   22832989.7274
      2972.9064
 04  9  3 15  5  0.0000000  0  7G11G14G15G 1G19G22G25
  -3111282.98549  -2406703.75345  22607258.6724   22607252.0204
      2378.9064
   1223862.18949    944459.61547  20401327.4534   20401320.9104
     -1335.5944
   3875378.62149   2994746.07045  22071076.9844   22071072.6134
     -3495.0314
  -1945984.94447  -1500044.15743  23567164.7504   23567160.8404
      2932.7194
   2318831.48148   1789451.04245  22840191.7734   22840184.6214
     -2246.5474
   2401049.51749   1851447.61546  21965484.5944   21965477.4024
     -2151.7034
  -3714563.73848  -2872602.24544  22824513.3754   22824508.6914
      2969.4064
 04  9  3 15  5 15.0000000  0  7G11G14G15G 1G19G22G25
  -3146926.68849  -2434478.07345  22600475.6414   22600469.1484
      2373.2974
   1243946.30049    960109.55947  20405149.4614   20405143.1054
     -1342.5004
   3927841.60349   3035626.29245  22081060.2274   22081056.0824
     -3500.3914
  -1989951.25747  -1534303.58643  23558797.6804   23558794.1844
      2929.1254
   2352577.61448   1815746.70645  22846613.8054   22846606.4844
     -2253.1724
   2433345.78249   1876613.52546  21971630.8134   21971623.3984
     -2154.7194
  -3759080.71548  -2907290.77344  22816042.8134   22816037.5744
      2965.8284
 04  9  3 15  5 30.0000000  0  7G11G14G15G 1G19G22G25
  -3182485.78449  -2462186.46445  22593708.9064   22593703.0514
      2367.8444
   1264133.71049    975840.00247  20408990.9534   20408984.7704
     -1349.1414
   3980384.15149   3076568.50745  22091058.4774   22091054.4064
     -3505.3754
  -2033865.05447  -1568522.11543  23550441.7274   23550437.2424
      2925.9224
   2386421.89848   1842118.86245  22853053.9454   22853046.9734
     -2259.4534
   2465686.87849   1901814.35446  21977784.6884   21977777.5864
     -2157.4694
  -3803544.11748  -2941937.54144  22807581.0314   22807575.7544
      2962.5784
 04  9  3 15  5 45.0000000  0  7G11G14G15G 1G19G22G25
  -3217961.69049  -2489830.01845  22586958.1094   22586952.0864
      2362.0634
   1284422.42649    991649.39047  20412851.8524   20412845.2194
     -1356.1564
   4033004.27549   3117571.18245  22101072.0394   22101067.7074
     -3510.7814
  -2077727.95547  -1602700.99243  23542094.6644   23542090.3634
      2922.3754
   2420362.26248   1868565.88245  22859512.2974   22859505.2774
     -2266.0784
   2498071.05449   1927048.76046  21983947.5704   21983940.3364
     -2160.5624
  -3847955.24648  -2976543.59444  22799130.1254   22799125.1884
      2958.7664
 04  9  3 15  6  0.0000000  0  7G11G14G15G 1G19G22G25
  -3253352.23249  -2517407.07345  22580223.6954   22580217.3094
      2356.5164
   1304814.30849   1007539.15747  20416732.3674   20416725.4694
     -1362.8914
   4085703.70649   3158635.63845  22111100.7664   22111096.1724
     -3515.9374
  -2121537.77447  -1636838.50443  23533757.9694   23533753.6954
      2918.9064
   2454400.39548   1895089.07145  22865990.0704   22865982.6374
     -2272.4844
   2530500.29849   1952318.28246  21990118.3524   21990110.7234
     -2163.4064
  -3892311.81748  -3011107.13544  22790689.2814   22790684.2854
      2955.2194
 04  9  3 15  6 15.0000000  0  7G11G14G15G 1G19G22G25
  -3288656.91949  -2544917.21945  22573505.1414   22573499.3444
      2350.7974
   1325309.06349   1023509.07947  20420632.6724   20420625.7814
     -1369.7814
   4138482.24849   3199761.75045  22121144.2344   22121139.7074
     -3521.1254
  -2165294.29247  -1670934.49243  23525430.8444   23525426.8984
      2915.2504
   2488535.98648   1921688.21045  22872485.0784   22872478.5664
     -2278.9844
   2562974.76749   1977623.04346  21996298.2114   21996291.0124
     -2166.5004
  -3936613.45548  -3045627.86044  22782258.6804   22782253.6254
      2951.5944
 04  9  3 15  6 30.0000000  0  7G11G14G15G 1G19G22G25
  -3323877.73949  -2572362.01645  22566803.0474   22566796.7854
      2345.1094
   1345904.36749   1039557.36847  20424551.6094   20424545.0274
     -1376.4694
   4191337.48549   3240947.62445  22131201.7424   22131197.5084
     -3526.3124
  -2208999.63247  -1704990.57543  23517114.0084   23517110.0864
      2911.8754
   2522766.57748   1948361.38645  22878999.7734   22878992.5474
     -2285.3284
   2595492.20249   2002961.29146  22002485.9534   22002479.0434
     -2169.4224
  -3980862.05548  -3080107.27044  22773838.6884   22773834.0634
      2947.9384
 04  9  3 15  6 45.0000000  0  7G11G14G15G 1G19G22G25
  -3359010.13949  -2599737.92545  22560117.7974   22560111.8164
      2339.3914
   1366604.16649   1055687.08447  20428490.6334   20428483.9264
     -1383.2974
   4244273.39049   3282196.35345  22141275.4454   22141270.8874
     -3531.6094
  -2252649.36047  -1739003.37943  23508808.1024   23508803.9774
      2908.2504
   2557095.99948   1975111.56845  22885532.2424   22885524.8634
     -2291.6874
   2628056.76949   2028336.26446  22008683.2814   22008675.8754
     -2172.3914
  -4025052.94748  -3114541.71944  22765428.8834   22765424.4614
      2944.2814
 04  9  3 15  7  0.0000000  0  7G11G14G15G 1G19G22G25
  -3394055.19549  -2627045.75945  22553448.6024   22553442.6214
      2333.2974
   1387406.92049   1071897.00547  20432449.3984   20432443.1374
     -1390.4224
   4297288.32349   3323506.66545  22151363.8134   22151358.9494
     -3537.1094
  -2296244.74447  -1772973.79643  23500512.4144   23500507.9614
      2904.4064
   2591522.62248   2001937.48545  22892082.9454   22892076.1094
     -2298.5004
   2660667.13349   2053746.91546  22014888.5944   22014881.5274
     -2175.6874
  -4069187.06048  -3148931.91944  22757030.5474   22757026.2114
      2940.2034
 04  9  3 15  7 15.0000000  0  7G11G14G15G 1G19G22G25
  -3429012.18749  -2654284.96445  22546796.6414   22546790.6994
      2327.5784
   1408312.86349   1088187.34247  20436427.7194   20436421.0554
     -1397.1414
   4350382.47049   3364878.69445  22161467.7274   22161462.9224
     -3542.2194
  -2339785.13247  -1806901.34343  23492227.2344   23492222.6844
      2900.8754
   2626046.50648   2028839.19144  22898653.2894   22898646.2154
     -2304.7194
   2693323.81549   2079193.65846  22021102.8594   22021095.5784
     -2178.6564
  -4113263.78648  -3183277.40344  22748643.1644   22748638.2934
      2936.5634
 04  9  3 15  7 30.0000000  0  7G11G14G15G 1G19G22G25
  -3463884.86749  -2681458.49545  22540160.6884   22540154.6214
      2321.8594
   1429317.74649   1104554.77747  20440424.8134   20440418.0084
     -1403.7664
   4403551.62649   3406309.19045  22171584.8834   22171580.4804
     -3547.2814
  -2383274.38747  -1840789.08243  23483950.1334   23483947.0004
      2897.4064
   2660663.30248   2055813.29345  22905239.8284   22905233.0474
     -2311.0164
   2726022.67349   2104673.26846  22027325.5704   22027318.3284
     -2181.4534
  -4157286.78848  -3217581.02044  22740265.9774   22740260.9884
      2932.9694
 04  9  3 15  7 45.0000000  0  7G11G14G15G 1G19G22G25
  -3498669.22749  -2708563.18545  22533541.1884   22533535.1724
      2315.9844
   1450425.03649   1121002.00747  20444441.3524   20444434.6644
     -1410.4694
   4456799.12849   3447800.71045  22181717.9064   22181713.5394
     -3552.4374
  -2426708.77447  -1874634.02643  23475686.1954   23475682.0474
      2893.8134
   2695376.29048   2082862.36244  22911846.4144   22911838.9414
     -2317.4374
   2758767.32849   2130188.57146  22033556.3204   22033548.7464
     -2184.4694
  -4201252.01348  -3251839.62345  22731899.5084   22731894.8094
      2929.1414
 04  9  3 15  8  0.0000000  0  7G11G14G15G 1G19G22G25
  -3533367.58249  -2735600.87345  22526938.6564   22526932.8244
      2310.3134
   1471632.03449   1137526.93247  20448476.8674   20448470.3484
     -1417.1094
   4510122.26549   3489351.17245  22191864.8754   22191860.0784
     -3557.3444
  -2470090.58448  -1908438.04143  23467430.1334   23467425.8794
      2890.3914
   2730182.58848   2109984.12844  22918469.1334   22918462.5394
     -2323.4374
   2791555.25949   2155737.59046  22039795.7194   22039788.5434
     -2187.2344
  -4245161.61748  -3286054.87145  22723544.1724   22723539.5314
      2925.4694
 04  9  3 15  8 15.0000000  0  7G11G14G15G 1G19G22G25
  -3567980.53449  -2762571.99845  22520351.8364   22520345.6684
      2304.8754
   1492937.54449   1154128.62147  20452530.7664   20452524.6684
     -1423.3914
   4563519.94149   3530959.72645  22202026.3284   22202021.8364
     -3562.1414
  -2513420.57547  -1942201.67843  23459185.0394   23459180.6724
      2887.1564
   2765080.99748   2137177.66844  22925110.2114   22925103.5044
     -2329.4064
   2824385.62449   2181319.67646  22046043.0704   22046036.1524
     -2189.8914
  -4289016.17048  -3320227.24445  22715198.8914   22715194.1884
      2921.9534
 04  9  3 15  8 30.0000000  0  7G11G14G15G 1G19G22G25
  -3602505.67849  -2789474.71045  22513781.9384   22513776.1804
      2298.7814
   1514343.46449   1170808.55647  20456604.5474   20456598.2894
     -1430.4694
   4616993.87849   3572627.70345  22212201.8674   22212197.1804
     -3567.4064
  -2556696.48647  -1975923.17043  23450949.5004   23450945.2814
      2883.2974
   2800073.22348   2164444.32245  22931769.3674   22931762.0594
     -2335.9534
   2857260.48649   2206936.43347  22052298.8444   22052292.1994
     -2193.1724
  -4332813.22748  -3354354.79445  22706864.3834   22706859.4184
      2917.9694
 04  9  3 15  8 45.0000000  0  7G11G14G15G 1G19G22G25
  -3636942.16049  -2816308.31745  22507228.8754   22507222.8244
      2293.0004
   1535850.10749   1187566.96147  20460696.8054   20460690.6024
     -1436.9374
   4670544.37948   3614355.33245  22222392.1414   22222387.9884
     -3572.4064
  -2599917.54947  -2009601.91943  23442724.8364   23442720.8054
      2879.7194
   2835159.72048   2191784.43544  22938446.0864   22938438.8484
     -2342.0624
   2890180.33749   2232588.24246  22058563.2194   22058556.5124
     -2196.0004
  -4376551.84648  -3388436.81245  22698541.2194   22698536.0314
      2914.1254
 04  9  3 15  9  0.0000000  0  7G11G14G15G 1G19G22G25
  -3671292.59049  -2843074.90245  22500692.1564   22500685.9884
      2286.8754
   1557454.41049   1204401.48447  20464808.2974   20464801.4184
     -1443.7974
   4724168.22249   3656140.12645  22232596.7734   22232592.0084
     -3577.6094
  -2643086.64046  -2043240.16843  23434509.8594   23434505.5474
      2875.9064
   2870337.01548   2219195.28445  22945139.8284   22945132.9534
     -2348.4064
   2923142.18049   2258272.78346  22064835.7344   22064828.7894
     -2199.1254
  -4420234.68548  -3422475.37945  22690228.6564   22690223.6764
      2910.0474
 04  9  3 15  9 15.0000000  0  7G11G14G15G 1G19G22G25
  -3705556.37949  -2869773.94745  22494171.7114   22494165.7074
      2281.2034
   1579156.43349   1221312.14747  20468938.2504   20468931.4534
     -1450.1564
   4777865.64949   3697982.24945  22242814.6804   22242810.3674
     -3582.4694
  -2686203.23046  -2076837.47343  23426305.3444   23426301.3754
      2872.6414
   2905605.04648   2246676.85945  22951850.9844   22951844.5124
     -2354.3124
   2956146.43949   2283990.36446  22071116.6564   22071109.2704
     -2201.8444
  -4463860.94448  -3456469.84045  22681926.8444   22681922.3204
      2906.3754
 04  9  3 15  9 30.0000000  0  7G11G14G15G 1G19G22G25
  -3739733.27749  -2896405.29245  22487668.3914   22487661.8874
      2275.4064
   1600955.98249   1238298.79647  20473086.5164   20473079.6604
     -1456.7344
   4831636.30549   3739881.42445  22253046.9384   22253042.6914
     -3587.3124
  -2729267.12446  -2110393.75843  23418110.4844   23418106.4804
      2868.9224
   2940963.58848   2274228.93344  22958579.4924   22958572.5664
     -2360.4224
   2989193.10949   2309740.99146  22077404.9064   22077397.5984
     -2204.7194
  -4507430.22948  -3490419.92245  22673636.0004   22673630.9414
      2902.5634
 04  9  3 15  9 45.0000000  0  7G11G14G15G 1G19G22G25
  -3773821.37949  -2922967.45245  22481181.5704   22481175.4694
      2269.5634
   1622854.43949   1255362.52047  20477253.5554   20477247.0784
     -1463.2034
   4885481.54549   3781838.73745  22263293.6174   22263289.0204
     -3592.1564
  -2772276.73247  -2143907.73643  23409925.8284   23409922.0204
      2865.4844
   2976413.78948   2301852.45644  22965325.7664   22965319.0164
     -2366.3754
   3022283.73749   2335525.88246  22083702.3134   22083694.9494
     -2207.4844
  -4550940.87448  -3524324.30945  22665356.2194   22665351.2774
      2898.7344
 04  9  3 15 10  0.0000000  0  7G11G14G15G 1G19G22G25
  -3807822.85349  -2949462.12045  22474711.4924   22474705.4534
      2263.9224
   1644849.09749   1272501.20647  20481438.6644   20481432.4494
     -1469.4694
   4939398.69749   3823852.06145  22273553.9144   22273549.1174
     -3596.8284
  -2815234.23747  -2177381.10543  23401751.8754   23401747.7624
      2862.1724
   3011953.04048   2329545.34144  22972088.6484   22972081.7074
     -2372.1414
   3055415.91749   2361343.15446  22090006.6954   22089999.5084
     -2210.1564
  -4594394.86048  -3558184.54944  22657086.9454   22657081.9494
      2895.1254
 04  9  3 15 10 15.0000000  0  7G11G14G15G 1G19G22G25
  -3841732.86949  -2975885.50545  22468258.4694   22468251.9454
      2257.7194
   1666944.27849   1289718.22247  20485643.3674   20485637.0904
     -1476.2504
   4993391.96349   3865924.70945  22283827.8984   22283823.8284
     -3601.9844
  -2858134.93447  -2210810.20843  23393588.2194   23393583.8324
      2858.2664
   3047585.36748   2357310.78144  22978869.4774   22978861.8134
     -2378.4694
   3088594.13649   2387196.28246  22096320.5554   22096313.3094
     -2213.2344
  -4637787.12948  -3591996.68045  22648829.5634   22648824.5004
      2890.8134
 04  9  3 15 10 30.0000000  0  7G11G14G15G 1G19G22G25
  -3875554.13549  -3002239.75145  22461822.7584   22461816.3054
      2251.8444
   1689136.44149   1307010.81047  20489866.5084   20489860.2624
     -1482.6414
   5047457.88649   3908053.97445  22294116.8984   22294111.9024
     -3606.7344
  -2900981.99947  -2244197.53743  23385434.5394   23385430.3284
      2854.7344
   3083307.15148   2385145.90945  22985667.0554   22985659.7464
     -2384.3444
   3121815.08149   2413082.71547  22102642.2424   22102635.0554
     -2216.0944
  -4681120.67948  -3625763.08145  22640583.6804   22640578.4734
      2886.9844
 04  9  3 15 10 45.0000000  0  7G11G14G15G 1G19G22G25
  -3909286.06449  -3028524.36545  22455403.5944   22455397.2894
      2245.7034
   1711426.17949   1324379.41747  20494108.4144   20494101.5944
     -1489.4534
   5101596.83649   3950240.12345  22304419.1174   22304414.8674
     -3611.9224
  -2943774.61247  -2277542.40243  23377291.7194   23377286.6604
      2850.8754
   3119118.81648   2413051.08945  22992481.3914   22992475.2114
     -2390.6254
   3155079.39049   2439002.93846  22108972.4534   22108965.3794
     -2219.2814
  -4724394.67348  -3659483.05445  22632348.6644   22632344.1174
      2882.7974
 04  9  3 15 11  0.0000000  0  7G11G14G15G 1G19G22G25
  -3942924.42749  -3054736.08545  22449002.5314   22448995.6454
      2239.5474
   1733817.17149   1341826.94347  20498368.8524   20498362.2464
     -1495.9224
   5155812.49649   3992486.08345  22314736.0784   22314731.4804
     -3616.7974
  -2986508.61147  -2310841.62543  23369159.5944   23369154.9104
      2847.0634
   3155023.96148   2441029.09945  22999313.9844   22999307.0824
     -2396.6414
   3188391.02549   2464960.04047  22115311.5314   22115303.6684
     -2222.2504
  -4767604.66948  -3693153.17045  22624126.3674   22624121.4414
      2878.6884
 04  9  3 15 11 15.0000000  0  7G11G14G15G 1G19G22G25
  -3976472.32949  -3080877.31745  22442618.8524   22442612.1484
      2233.4844
   1756305.63349   1359350.41247  20502648.4534   20502641.7934
     -1502.5004
   5210101.15249   4034788.90445  22325066.9454   22325062.2624
     -3621.7504
  -3029187.45246  -2344097.86143  23361037.7194   23361033.8054
      2843.3914
   3191018.59248   2469076.82645  23006163.6484   23006157.2704
     -2402.6414
   3221746.50149   2490951.29946  22121658.9064   22121651.4224
     -2225.2034
  -4810753.89148  -3726775.91345  22615915.1954   22615910.4734
      2874.5474
 04  9  3 15 11 30.0000000  0  7G11G14G15G 1G19G22G25
  -4009932.08149  -3106949.85445  22436251.3204   22436245.3364
      2227.7034
   1778888.87549   1376947.73647  20506946.0234   20506939.2384
     -1508.7814
   5264459.97148   4077146.39345  22335410.5394   22335406.3874
     -3626.2974
  -3071813.49946  -2377312.93743  23352926.3204   23352922.1954
      2839.8914
   3227099.82548   2497192.05644  23013029.7114   23013022.9654
     -2408.3124
   3255143.34849   2516974.79746  22128013.8914   22128006.6804
     -2227.8754
  -4853844.53048  -3760353.02345  22607715.2424   22607710.2034
      2870.7344
 04  9  3 15 11 45.0000000  0  7G11G14G15G 1G19G22G25
  -4043301.65649  -3132952.11045  22429901.2344   22429895.4414
      2221.3754
   1801568.33249   1394620.03547  20511261.9614   20511255.3794
     -1515.4374
   5318890.47848   4119559.74745  22345769.0164   22345764.2584
     -3631.3284
  -3114384.82746  -2410485.39243  23344824.8914   23344821.1804
      2835.9224
   3263269.16648   2525375.94645  23019912.8914   23019905.8794
     -2414.5624
   3288583.09649   2543031.72846  22134376.9534   22134369.6804
     -2230.9374
  -4896874.54248  -3793882.88445  22599527.0784   22599522.3794
      2866.3754
 04  9  3 15 12  0.0000000  0  7G11G14G15G 1G19G22G25
  -4076579.83949  -3158883.15245  22423568.6954   22423562.4144
      2215.6414
   1824344.76149   1412367.89147  20515596.4694   20515589.7704
     -1521.4534
   5373393.27149   4162029.42845  22356140.4924   22356135.9304
     -3635.7974
  -3156900.47146  -2443614.44743  23336734.8054   23336730.6254
      2832.6724
   3299527.14048   2553628.89544  23026812.3364   23026805.4964
     -2420.0314
   3322066.76349   2569122.87446  22140749.0554   22140741.8444
     -2233.5164
  -4939842.62848  -3827364.48445  22591350.2344   22591345.6604
      2862.6094
 04  9  3 15 12 15.0000000  0  7G11G14G15G 1G19G22G25
  -4109766.78849  -3184743.12445  22417253.4064   22417247.0204
      2209.5634
   1847217.51749   1430190.80847  20519948.5864   20519942.3484
     -1527.9374
   5427967.66749   4204554.90445  22366525.2664   22366520.5664
     -3640.6094
  -3199360.63446  -2476700.27443  23328654.8444   23328650.8134
      2828.9534
   3335872.97148   2581950.29744  23033728.8364   23033722.0474
     -2425.8914
   3355593.79449   2595247.81647  22147128.9144   22147122.0274
     -2236.4374
  -4982748.93148  -3860797.94245  22583185.0704   22583180.3594
      2858.4694
 04  9  3 15 12 30.0000000  0  7G11G14G15G 1G19G22G25
  -4142863.20249  -3210532.54345  22410955.2114   22410948.9414
      2203.2664
   1870185.29249   1448087.77647  20524319.2274   20524312.7194
     -1534.4694
   5482612.32249   4247135.13845  22376924.0784   22376919.3674
     -3645.4224
  -3241766.35246  -2509743.68143  23320585.1724   23320581.1954
      2825.0634
   3372305.12748   2610338.95944  23040661.8134   23040655.0984
     -2431.7974
   3389163.21549   2621405.79246  22153517.2194   22153509.4024
     -2239.4534
  -5025594.21148  -3894183.85745  22575032.3054   22575027.2464
      2854.1094
 04  9  3 15 12 45.0000000  0  7G11G14G15G 1G19G22G25
  -4175868.88849  -3236251.26045  22404674.3134   22404668.0594
      2197.3444
   1893247.64849   1466058.41747  20528708.0554   20528701.6844
     -1540.6414
   5537326.83048   4289769.78445  22387335.7424   22387331.3404
     -3650.0004
  -3284117.52746  -2542744.56943  23312526.1024   23312521.6764
      2821.5314
   3408823.28448   2638794.64944  23047610.9064   23047604.0634
     -2437.5004
   3422774.95049   2647596.72546  22159913.1334   22159905.5704
     -2242.2344
  -5068378.01048  -3927521.86045  22566890.8674   22566886.0704
      2850.1564
 04  9  3 15 13  0.0000000  0  7G11G14G15G 1G19G22G25
  -4208783.18349  -3261898.75845  22398411.3364   22398404.7504
      2191.2504
   1916404.98149   1484103.08747  20533114.5164   20533108.1724
     -1546.9374
   5592111.46649   4332459.07145  22397760.9924   22397756.5044
     -3654.6254
  -3326413.48747  -2575702.42943  23304477.1334   23304473.2154
      2817.9384
   3445427.54348   2667317.42245  23054576.6334   23054569.4844
     -2443.1414
   3456429.47749   2673821.00946  22166317.2344   22166310.2154
     -2245.0624
  -5111099.61748  -3960811.39945  22558761.3754   22558756.1764
      2846.0314
 04  9  3 15 13 15.0000000  0  7G11G14G15G 1G19G22G25
  -4241606.87849  -3287475.66745  22392165.1024   22392158.4614
      2185.1564
   1939655.94049   1502220.70247  20537539.1024   20537532.7894
     -1553.2974
   5646964.95249   4375202.02545  22408199.2894   22408194.7894
     -3659.3444
  -3368655.12247  -2608617.97943  23296439.1564   23296434.7504
      2814.2034
   3482116.53448   2695906.22145  23061558.3284   23061551.2814
     -2448.8124
   3490125.68849   2700077.78646  22172729.7504   22172722.1254
     -2247.8914
  -5153759.74648  -3994053.03845  22550642.9144   22550638.0354
      2841.8284
 04  9  3 15 13 30.0000000  0  7G11G14G15G 1G19G22G25
  -4274338.09749  -3312980.52045  22385936.8134   22385930.0514
      2178.9534
   1963001.73049   1520412.22647  20541981.4454   20541975.0704
     -1559.5624
   5701888.44148   4417999.50645  22418651.1094   22418646.4454
     -3663.8754
  -3410840.90747  -2641490.00543  23288411.8364   23288407.1484
      2810.5944
   3518891.31448   2724561.87345  23068556.4064   23068549.1094
     -2454.4224
   3523864.92049   2726368.08246  22179150.1724   22179142.8954
     -2250.7194
  -5196356.71648  -4027245.45345  22542537.3444   22542532.1214
      2837.7034
 04  9  3 15 13 45.0000000  0  7G11G14G15G 1G19G22G25
  -4306977.64249  -3338413.92445  22379725.4694   22379719.1024
      2173.0314
   1986441.12949   1538676.67247  20546441.6414   20546435.4534
     -1565.6414
   5756880.60648   4460850.50145  22429115.7734   22429111.3364
     -3668.3124
  -3452971.78348  -2674319.24943  23280394.3984   23280389.7504
      2806.9844
   3555750.42948   2753283.23644  23075570.0314   23075563.5634
     -2459.9694
   3557646.12449   2752691.05946  22185578.4534   22185571.3674
     -2253.3444
  -5238891.21949  -4060389.20745  22534443.2034   22534438.2894
      2833.6564
 04  9  3 15 14  0.0000000  0  7G11G14G15G 1G19G22G25
  -4339525.60649  -3363775.98545  22373531.8054   22373525.5824
      2166.6884
   2009973.67349   1557013.72447  20550919.7894   20550913.0984
     -1572.0784
   5811941.02348   4503754.71745  22439593.4454   22439588.8794
     -3673.0944
  -3495047.75947  -2707105.70943  23272386.9144   23272382.8984
      2803.1564
   3592693.48748   2782070.01344  23082600.6334   23082593.6724
     -2465.7664
   3591469.28349   2779046.77146  22192014.7734   22192007.7814
     -2256.4534
  -5281362.91048  -4093484.01345  22526361.6484   22526356.3634
      2829.2344
 04  9  3 15 14 15.0000000  0  7G11G14G15G 1G19G22G25
  -4371979.90649  -3389065.04645  22367356.1254   22367349.6844
      2160.5004
   2033600.95349   1575424.57147  20555416.1484   20555409.5124
     -1578.2344
   5867071.10248   4546713.17445  22450084.1954   22450079.5354
     -3677.6414
  -3537066.90947  -2739847.87143  23264391.7344   23264387.5434
      2799.3754
   3629721.78248   2810923.20644  23089646.3054   23089639.5394
     -2471.3594
   3625335.95649   2805436.36046  22198459.3054   22198451.8364
     -2259.1414
  -5323769.81348  -4126528.33545  22518291.1804   22518286.5354
      2824.9224
 04  9  3 15 14 30.0000000  0  7G11G14G15G 1G19G22G25
  -4404341.81549  -3414282.11745  22361197.5704   22361191.0514
      2154.4224
   2057321.26249   1593907.91147  20559929.7274   20559923.6454
     -1584.4374
   5922269.06948   4589724.54745  22460587.8444   22460583.9654
     -3682.0784
  -3579030.64847  -2772546.87743  23256406.0704   23256401.7854
      2795.6414
   3666833.41248   2839841.33044  23096708.8524   23096701.9064
     -2476.8444
   3659244.56649   2831858.63046  22204911.8754   22204905.0394
     -2261.9224
  -5366113.17548  -4159523.15245  22510233.6484   22510228.9344
      2820.7974
 04  9  3 15 14 45.0000000  0  7G11G14G15G 1G19G22G25
  -4436611.23449  -3439427.11645  22355056.9694   22355050.7774
      2148.5004
   2081134.08349   1612463.35647  20564461.4144   20564454.6724
     -1590.2814
   5977534.43748   4632788.43744  22471104.7734   22471100.2464
     -3686.3284
  -3620939.15247  -2805202.85043  23248430.8134   23248426.8524
      2792.2974
   3704027.73448   2868823.91344  23103786.3204   23103779.6414
     -2482.0164
   3693195.01449   2858313.51046  22211372.7034   22211365.1374
     -2264.4064
  -5408392.88448  -4192468.34045  22502187.9534   22502183.5514
      2816.8134
 04  9  3 15 15  0.0000000  0  7G11G14G15G 1G19G22G25
  -4468788.94649  -3464500.66645  22348933.7114   22348927.1914
      2142.1564
   2105038.10649   1631089.85747  20569010.1254   20569003.5124
     -1596.6094
   6032865.98149   4675903.90245  22481633.9924   22481629.3674
     -3690.9064
  -3662793.25347  -2837816.41343  23240466.4694   23240462.1844
      2788.5004
   3741303.42148   2897869.86645  23110879.7424   23110872.9774
     -2487.7344
   3727186.22949   2884800.15746  22217840.9384   22217833.4344
     -2267.4374
  -5450609.77148  -4225364.60945  22494154.3674   22494149.3284
      2812.4064
 04  9  3 15 15 15.0000000  0  7G11G14G15G 1G19G22G25
  -4500872.48549  -3489500.82645  22342827.9534   22342822.2894
      2135.7194
   2129035.19449   1649788.87947  20573576.6334   20573570.3444
     -1602.9844
   6088265.46748   4719072.29544  22492176.2114   22492171.6914
     -3695.6564
  -3704590.78747  -2870385.91643  23232512.6174   23232508.5204
      2784.5944
   3778662.17148   2926980.55744  23117988.6724   23117981.9224
     -2493.3914
   3761220.21649   2911320.12246  22224317.3834   22224309.9574
     -2270.4224
  -5492761.23748  -4258209.87645  22486133.3444   22486128.2114
      2807.8754
 04  9  3 15 15 30.0000000  0  7G11G14G15G 1G19G22G25
  -4532860.41249  -3514426.47845  22336741.2584   22336735.1764
      2129.3594
   2153126.32549   1668561.17747  20578161.1484   20578154.3554
     -1609.1094
   6143733.82048   4762294.35445  22502731.1484   22502727.2734
     -3700.2034
  -3746330.33347  -2902910.23543  23224569.7894   23224565.6294
      2780.6884
   3816104.89348   2956156.67244  23125114.5004   23125107.1524
     -2498.9374
   3795298.15249   2937874.34146  22230801.8984   22230794.9384
     -2273.2664
  -5534845.61148  -4291002.88045  22478124.7424   22478119.8914
      2803.4064
 04  9  3 15 15 45.0000000  0  7G11G14G15G 1G19G22G25
  -4564754.86149  -3539279.29545  22330672.1094   22330665.7544
      2122.8284
   2177308.94649   1687404.77147  20582762.6644   20582756.7234
     -1615.5784
   6199268.33548   4805567.97144  22513299.5864   22513295.1454
     -3704.7814
  -3788014.28247  -2935391.22543  23216637.6094   23216632.8404
      2776.7344
   3853628.64948   2985395.95044  23132254.6334   23132248.0944
     -2504.6254
   3829417.57449   2964460.89046  22237294.7894   22237287.6644
     -2276.3594
  -5576865.21548  -4323745.39845  22470128.7424   22470123.7934
      2798.8134
 04  9  3 15 16  0.0000000  0  7G11G14G15G 1G19G22G25
  -4596554.56849  -3564058.29645  22324620.6724   22324614.5274
      2116.9694
   2201583.85849   1706320.26547  20587382.4064   20587376.1604
     -1621.2814
   6254869.84348   4848893.79744  22523880.0864   22523875.3324
     -3708.8914
  -3829641.37947  -2967827.91643  23208716.0944   23208712.2544
      2773.3754
   3891234.34348   3014699.06144  23139410.6804   23139404.0514
     -2509.6564
   3863579.81349   2991080.78646  22243795.8444   22243788.4534
     -2278.8444
  -5618818.55948  -4356436.30945  22462145.2734   22462140.8714
      2794.8134
 04  9  3 15 16 15.0000000  0  7G11G14G15G 1G19G22G25
  -4628261.44949  -3588764.94345  22318587.0164   22318580.4734
      2110.3754
   2225948.69949   1725305.85547  20592019.0704   20592012.3284
     -1627.5314
   6310535.99248   4892269.97644  22534472.5004   22534468.4774
     -3713.4844
  -3871213.63847  -3000221.88344  23200805.2034   23200800.7504
      2769.4064
   3928919.40648   3044064.00944  23146581.9454   23146575.2034
     -2515.2194
   3897782.50549   3017732.22146  22250304.6334   22250297.0664
     -2281.7664
  -5660707.39848  -4389076.93745  22454173.7814   22454169.5274
      2790.1884
 04  9  3 15 16 30.0000000  0  7G11G14G15G 1G19G22G25
  -4659872.19449  -3613396.72545  22312572.0554   22312565.7234
      2104.0784
   2250405.97349   1744363.46047  20596672.8524   20596666.2544
     -1633.5784
   6366269.26948   4935698.47144  22545078.6884   22545074.6374
     -3717.8444
  -3912728.08447  -3032570.78543  23192905.1174   23192900.5904
      2765.6724
   3966686.32148   3073492.75844  23153769.0314   23153761.7424
     -2520.6094
   3932028.49349   3044417.39046  22256821.2424   22256814.0004
     -2284.5474
  -5702528.64348  -4421664.89245  22446215.4614   22446210.5744
      2785.7814
 04  9  3 15 16 45.0000000  0  7G11G14G15G 1G19G22G25
  -4691389.37449  -3637955.55645  22306574.2424   22306567.8954
      2098.1564
   2274952.74349   1763490.80147  20601343.6884   20601337.3834
     -1639.3754
   6422066.71748   4979176.97145  22555696.6334   22555692.1174
     -3721.8284
  -3954187.23347  -3064876.59643  23185015.2194   23185011.8094
      2762.1414
   4004532.00148   3102982.88044  23160970.6564   23160963.8524
     -2525.5314
   3966315.03849   3071134.15846  22263345.5944   22263338.7034
     -2287.0164
  -5744284.60248  -4454201.99045  22438269.8834   22438264.7464
      2781.6094
 04  9  3 15 17  0.0000000  0  7G11G14G15G 1G19G22G25
  -4722811.36949  -3662440.23545  22300595.0004   22300588.5394
      2091.7194
   2299590.10449   1782688.73247  20606032.2974   20606025.7974
     -1645.4374
   6477929.34248   5022706.25545  22566326.9144   22566322.8634
     -3726.2974
  -3995589.76747  -3097138.31143  23177137.2504   23177133.0314
      2758.3754
   4042457.31748   3132535.04244  23168187.2734   23168180.5984
     -2530.8594
   4000643.35549   3097883.47446  22269878.0004   22269870.3674
     -2289.8284
  -5785973.66648  -4486686.96145  22430336.8284   22430331.4884
      2777.0784
 04  9  3 15 17 15.0000000  0  7G11G14G15G 1G19G22G25
  -4754138.13949  -3686850.70845  22294633.4774   22294627.5234
      2085.1254
   2324317.73849   1801957.01447  20610737.7114   20610731.0904
     -1651.5944
   6533856.71648   5066286.00344  22576969.8754   22576965.2304
     -3730.7344
  -4036935.67947  -3129355.89943  23169269.0084   23169264.9494
      2754.4384
   4080461.93048   3162149.00144  23175419.8054   23175413.2344
     -2536.3914
   4035013.32749   3124665.25346  22276419.0164   22276411.4264
     -2292.8124
  -5827595.63448  -4519119.63745  22422416.1954   22422411.4804
      2772.4224
 04  9  3 15 17 30.0000000  0  7G11G14G15G 1G19G22G25
  -4785366.42049  -3711184.42745  22288691.1724   22288684.7074
      2078.7034
   2349138.31849   1821297.71447  20615461.0634   20615454.5554
     -1657.6414
   6589851.53948   5109918.29145  22587625.2664   22587620.6414
     -3735.0314
  -4078221.92247  -3161526.98943  23161412.8054   23161408.8244
      2750.6564
   4118548.21548   3191826.61144  23182666.9614   23182660.3054
     -2541.6414
   4069427.84749   3151481.74346  22282967.4774   22282960.3094
     -2295.6564
  -5869147.38048  -4551497.60245  22414509.2504   22414504.4964
      2768.0004
 04  9  3 15 17 45.0000000  0  7G11G14G15G 1G19G22G25
  -4816497.51549  -3735442.42145  22282767.1174   22282761.1764
      2072.3594
   2374050.05149   1840709.44147  20620201.4924   20620195.3324
     -1663.5784
   6645911.94248   5153601.69544  22598293.2274   22598289.0784
     -3739.3284
  -4119449.97147  -3193652.71944  23153566.8364   23153562.9924
      2746.8284
   4156714.14548   3221566.26044  23189929.8524   23189923.5594
     -2546.7814
   4103885.31649   3178331.69046  22289524.3914   22289516.9494
     -2298.3124
  -5910630.02348  -4583821.72945  22406615.3054   22406610.5204
      2763.4064
 04  9  3 15 18  0.0000000  0  7G11G14G15G 1G19G22G25
  -4847534.33349  -3759626.95445  22276860.4774   22276854.3524
      2065.9224
   2399049.53649   1860189.55147  20624958.5784   20624952.3914
     -1669.6564
   6702034.38548   5197333.43344  22608972.5474   22608968.5824
     -3743.5944
  -4160622.74247  -3225735.39444  23145732.4454   23145728.2154
      2743.0474
   4194956.33048   3251365.34044  23197206.5554   23197200.1054
     -2551.9534
   4138382.56149   3205212.63846  22296089.0704   22296081.5984
     -2301.2034
  -5952046.50348  -4616094.28645  22398733.8914   22398729.0004
      2758.7974
 04  9  3 15 18 15.0000000  0  7G11G14G15G 1G19G22G25
  -4878476.61249  -3783737.82846  22270972.5084   22270966.7234
      2059.6254
   2424136.49049   1879737.82047  20629732.5474   20629726.5634
     -1675.4534
   6758218.62848   5241113.33144  22619664.5944   22619660.0164
     -3747.6874
  -4201740.14047  -3257774.91944  23137908.0084   23137903.8954
      2739.2194
   4233274.38648   3281223.55444  23204499.0474   23204491.9924
     -2557.1414
   4172919.64549   3232124.63446  22302661.3444   22302653.9344
     -2303.9694
  -5993396.47848  -4648315.02045  22390865.0394   22390860.5354
      2754.3594
 04  9  3 15 18 30.0000000  0  7G11G14G15G 1G19G22G25
  -4909321.85149  -3807773.08145  22265103.1024   22265096.9924
      2053.1094
   2449312.99649   1899355.86147  20634523.5634   20634517.3714
     -1681.4064
   6814466.71048   5284942.97244  22630367.9924   22630363.6414
     -3752.0164
  -4242799.81247  -3289769.46944  23130095.0704   23130090.5514
      2735.3444
   4271670.21548   3311142.35444  23211805.2974   23211798.6174
     -2562.2974
   4207498.78449   3259069.39446  22309241.5234   22309234.2814
     -2306.6724
  -6034677.35648  -4680481.93145  22383009.9384   22383004.6294
      2749.7194
 04  9  3 15 18 45.0000000  0  7G11G14G15G 1G19G22G25
  -4940070.65249  -3831733.18545  22259251.8594   22259245.7624
      2046.7344
   2474577.91949   1919042.81547  20639331.1174   20639324.7344
     -1687.2194
   6870777.37448   5328821.38544  22641083.4614   22641079.6644
     -3756.0004
  -4283802.58947  -3321719.66544  23122292.6334   23122288.1414
      2731.6094
   4310142.49948   3341120.73044  23219126.3134   23219119.4384
     -2567.2194
   4242118.96449   3286046.13846  22315829.7194   22315822.5394
     -2309.2974
  -6075889.66148  -4712595.39945  22375167.1724   22375162.2194
      2745.2664
 04  9  3 15 19  0.0000000  0  7G11G14G15G 1G19G22G25
  -4970726.36449  -3855620.74245  22253418.5784   22253412.3554
      2040.3914
   2499927.46549   1938795.68647  20644155.0004   20644148.6644
     -1693.0314
   6927146.83648   5372745.59144  22651810.2344   22651806.3874
     -3760.1414
  -4324751.88147  -3353628.21644  23114499.6954   23114495.4774
      2727.8914
   4348687.20348   3371155.53344  23226461.2734   23226454.1724
     -2572.3284
   4276776.64649   3313052.10846  22322424.5784   22322417.1374
     -2312.0004
  -6117036.73148  -4744658.02945  22367337.1954   22367332.4654
      2740.7344
 04  9  3 15 19 15.0000000  0  7G11G14G15G 1G19G22G25
  -5001284.61949  -3879432.37145  22247603.0784   22247596.9184
      2034.0314
   2525365.29449   1958617.37347  20648995.5314   20648989.4414
     -1698.7664
   6983578.87048   5416718.58544  22662548.5864   22662544.8404
     -3764.1724
  -4365643.51447  -3385491.81644  23106718.5944   23106714.4264
      2724.2814
   4387308.19248   3401249.79244  23233810.9304   23233803.7974
     -2577.2504
   4311475.93049   3340090.48946  22329027.6174   22329020.5904
     -2314.6414
  -6158114.12648  -4776666.38845  22359520.3204   22359515.5554
      2736.2664
 04  9  3 15 19 30.0000000  0  7G11G14G15G 1G19G22G25
  -5031744.69049  -3903167.49546  22241807.0164   22241800.9534
      2027.3134
   2550891.68749   1978508.05447  20653853.2894   20653846.6644
     -1704.7814
   7040073.67448   5460740.48044  22673299.5164   22673295.6024
     -3768.5164
  -4406476.90047  -3417310.01144  23098948.2194   23098943.9414
      2720.2034
   4426005.50648   3431403.52144  23241174.0864   23241167.6604
     -2582.4224
   4346217.16049   3367161.56046  22335638.8284   22335631.5744
     -2317.5164
  -6199121.12048  -4808619.86645  22351717.2814   22351712.2504
      2731.3284
 04  9  3 15 19 45.0000000  0  7G11G14G15G 1G19G22G25
  -5062106.81349  -3926826.29146  22236029.0394   22236022.8054
      2020.8594
   2576505.94249   1998467.20347  20658727.8914   20658721.3054
     -1710.5624
   7096630.46448   5504810.67444  22684061.9064   22684057.7114
     -3772.5784
  -4447252.46447  -3449083.18344  23091189.0704   23091184.5904
      2716.4064
   4464778.20148   3461615.99144  23248553.1564   23248545.9414
     -2587.3594
   4380999.85249   3394264.94046  22342257.7894   22342250.5514
     -2320.3124
  -6240057.77648  -4840518.53645  22343927.0944   22343921.8984
      2726.7034
 04  9  3 15 20  0.0000000  0  7G11G14G15G 1G19G22G25
  -5092370.43649  -3950408.33746  22230269.9694   22230263.5744
      2014.3284
   2602208.17049   2018494.90047  20663618.4144   20663611.9104
     -1716.4064
   7153249.28448   5548929.19444  22694836.4384   22694831.9614
     -3776.6874
  -4487969.74747  -3480810.91044  23083440.2894   23083436.0204
      2712.5784
   4503626.32548   3491887.23944  23255945.7894   23255938.7194
     -2592.3754
   4415824.29349   3421400.84646  22348884.3984   22348877.3554
     -2322.9224
  -6280923.53648  -4872361.97745  22336150.5864   22336145.7974
      2722.0634
 04  9  3 15 20 15.0000000  0  7G11G14G15G 1G19G22G25
  -5122534.34149  -3973912.67545  22224530.0634   22224523.8444
      2007.7194
   2627999.23749   2038591.82747  20668526.0864   20668519.9534
     -1722.2504
   7209931.00648   5593096.73844  22705622.5004   22705618.7034
     -3780.8444
  -4528627.39648  -3512492.17144  23075703.8054   23075699.0124
      2708.6094
   4542550.58548   3522217.79544  23263352.2584   23263345.2194
     -2597.3124
   4450691.68948   3448570.23046  22355519.6954   22355512.8404
     -2325.8124
  -6321716.77748  -4904148.90845  22328387.8674   22328382.6374
      2717.2504
 04  9  3 15 20 30.0000000  0  7G11G14G15G 1G19G22G25
  -5152597.48949  -3997338.50746  22218809.2814   22218803.0984
      2000.7974
   2653879.48049   2058758.24647  20673451.2734   20673444.9734
     -1728.3754
   7266675.88748   5637313.48844  22716420.9694   22716416.5354
     -3785.1724
  -4569224.80547  -3544126.51644  23067977.6484   23067974.0474
      2704.4694
   4581551.15648   3552607.82544  23270774.0634   23270767.0704
     -2602.6564
   4485602.54849   3475773.47146  22362162.7664   22362155.8984
     -2328.8754
  -6362436.70048  -4935878.70745  22320639.0164   22320633.8484
      2712.1254
 04  9  3 15 20 45.0000000  0  7G11G14G15G 1G19G22G25
  -5182562.60749  -4020687.95845  22213107.1724   22213100.9024
      1994.4224
   2679845.65949   2078991.61347  20678392.5084   20678386.0004
     -1734.0314
   7323480.67548   5681576.94244  22727230.2664   22727226.2934
     -3788.9694
  -4609764.83748  -3575716.16544  23060263.7194   23060259.3164
      2700.7034
   4620624.72048   3583054.72944  23278209.6024   23278202.9494
     -2607.4064
   4520553.73948   3503008.14546  22368813.9304   22368807.0274
     -2331.5004
  -6403086.08748  -4967553.53745  22312903.7504   22312898.8164
      2707.5634
 04  9  3 15 21  0.0000000  0  7G11G14G15G 1G19G22G25
  -5212430.36549  -4043961.53146  22207423.5474   22207417.0044
      1987.9534
   2705896.67949   2099291.09847  20683349.8674   20683343.3984
     -1739.5004
   7380344.13148   5725886.07844  22738050.8754   22738047.4224
     -3792.7664
  -4650248.26447  -3607261.65744  23052559.5784   23052555.4184
      2697.0474
   4659769.94048   3613557.48544  23285658.5784   23285651.7774
     -2612.0314
   4555544.42248   3530273.59246  22375472.8834   22375465.4774
     -2334.0314
  -6443665.53048  -4999173.86845  22305181.5474   22305176.6174
      2702.9844
 04  9  3 15 21 15.0000000  0  7G11G14G15G 1G19G22G25
  -5242200.99449  -4067159.42146  22201758.2344   22201751.9574
      1981.0944
   2732031.85349   2119656.16047  20688323.3984   20688316.7344
     -1745.5784
   7437265.53747   5770240.39944  22748882.8284   22748878.8954
     -3797.0624
  -4690675.36247  -3638763.27944  23044866.3054   23044862.7464
      2692.8914
   4698986.14248   3644115.52944  23293121.5784   23293114.3284
     -2617.1564
   4590574.20648   3557569.50446  22382138.4454   22382131.3324
     -2337.0164
  -6484175.07448  -5030739.73745  22297472.9064   22297468.5594
      2697.8754
 04  9  3 15 21 30.0000000  0  7G11G14G15G 1G19G22G25
  -5271867.28849  -4090276.02346  22196113.0084   22196106.6254
      1974.5784
   2758257.73349   2140091.90747  20693313.8134   20693307.4654
     -1751.1254
   7494251.49348   5814645.00444  22759726.7734   22759723.0164
     -3800.9064
  -4731039.23347  -3670215.63744  23037185.5234   23037181.3954
      2689.0474
   4738279.67948   3674733.85444  23300598.7664   23300592.1724
     -2621.8284
   4625649.80148   3584901.11946  22388813.1094   22388805.3794
     -2339.6564
  -6524607.60048  -5062245.58745  22289778.6954   22289774.0744
      2693.1884
 04  9  3 15 21 45.0000000  0  7G11G14G15G 1G19G22G25
  -5301435.34049  -4113316.05046  22190486.3524   22190480.4694
      1967.9534
   2784567.71749   2160593.16947  20698320.3984   20698314.1334
     -1756.7814
   7551295.33647   5859094.70544  22770582.2814   22770577.8134
     -3804.8444
  -4771346.12647  -3701623.58844  23029515.3284   23029511.5004
      2685.2664
   4777643.82148   3705407.17944  23308089.2504   23308082.4104
     -2626.5784
   4660764.79048   3612263.42446  22395495.1644   22395488.2034
     -2342.2664
  -6564969.09048  -5093696.09545  22282098.7114   22282093.2194
      2688.4694
 04  9  3 15 22  0.0000000  0  7G11G14G15G 1G19G22G25
  -5330907.44549  -4136281.32646  22184878.0784   22184872.0664
      1961.5314
   2810959.23549   2181157.98347  20703342.5004   20703336.0004
     -1762.1874
   7608394.38948   5903587.43944  22781447.8914   22781443.3714
     -3808.5474
  -4811598.32848  -3732988.93544  23021855.3674   23021851.4574
      2681.5314
   4817075.70848   3736133.30544  23315593.0704   23315585.9494
     -2631.1254
   4695916.90448   3639654.65846  22402184.7114   22402177.7154
     -2344.7664
  -6605261.56648  -5125092.80545  22274431.0474   22274425.9224
      2683.8134
 04  9  3 15 22 15.0000000  0  7G11G14G15G 1G19G22G25
  -5360277.86149  -4159167.36146  22179289.0314   22179282.9614
      1954.6564
   2837437.42149   2201790.32647  20708381.6564   20708374.9924
     -1768.0314
   7665553.69848   5948127.13444  22792324.8674   22792320.9304
     -3812.6254
  -4851790.34748  -3764307.38044  23014207.5944   23014203.5864
      2677.5314
   4856580.40148   3766916.12944  23323110.1804   23323104.0864
     -2636.0624
   4731111.41448   3667078.93446  22408881.8754   22408875.0554
     -2347.7034
  -6645479.32848  -5156431.31445  22266777.5164   22266772.6254
      2678.7504
 04  9  3 15 22 30.0000000  0  7G11G14G15G 1G19G22G25
  -5389546.44849  -4181974.06346  22173719.5164   22173713.6294
      1948.0784
   2864001.83549   2222489.85447  20713436.2424   20713429.7464
     -1773.5624
   7722772.81048   5992713.42244  22803213.2894   22803209.1214
     -3816.2814
  -4891922.25948  -3795578.96644  23006570.7974   23006566.0314
      2673.7034
   4896157.33048   3797755.29244  23330641.8364   23330635.0984
     -2640.5944
   4766348.12248   3694536.07346  22415587.0554   22415580.5474
     -2350.2974
  -6685622.35948  -5187711.58545  22259138.9454   22259133.7974
      2674.0004
 04  9  3 15 22 45.0000000  0  7G11G14G15G 1G19G22G25
  -5418716.32849  -4204703.83146  22168168.6484   22168162.4694
      1941.2664
   2890648.96949   2243253.84747  20718507.2974   20718501.0664
     -1779.3594
   7780048.15548   6037343.51744  22814112.9454   22814108.4104
     -3820.2814
  -4931997.29447  -3826806.28544  22998944.2974   22998940.1684
      2669.7344
   4935802.77148   3828647.81344  23338186.0004   23338179.5944
     -2645.4224
   4801623.65249   3722023.47646  22422299.8444   22422292.8014
     -2353.0784
  -6725693.65848  -5218935.96045  22251513.7664   22251508.5744
      2668.9694
 04  9  3 15 23  0.0000000  0  7G11G14G15G 1G19G22G25
  -5447785.74549  -4227355.32346  22162636.9144   22162630.6724
      1934.4844
   2917380.08849   2264083.28747  20723593.7974   20723587.5204
     -1784.9694
   7837380.98848   6082018.41544  22825022.9144   22825018.5664
     -3824.2504
  -4972013.77348  -3857987.93744  22991329.8754   22991325.4414
      2665.6884
   4975518.02648   3859594.73344  23345743.4384   23345737.1214
     -2650.0944
   4836939.63949   3749542.40446  22429020.2814   22429013.4694
     -2355.9064
  -6765691.28648  -5250102.94545  22243901.7344   22243897.0084
      2663.9384
 04  9  3 15 23 15.0000000  0  7G11G14G15G 1G19G22G25
  -5476755.06449  -4249928.83346  22157124.2584   22157117.9884
      1927.8134
   2944194.32649   2284977.47647  20728696.4454   20728690.3014
     -1790.5164
   7894770.46248   6126737.46844  22835943.4064   22835939.1884
     -3827.9374
  -5011972.14548  -3889124.33044  22983726.3204   22983720.9264
      2661.8914
   5015302.07448   3890595.25244  23353314.2194   23353307.4964
     -2654.6724
   4872295.47149   3777092.38546  22435748.5704   22435741.3364
     -2358.5784
  -6805615.39148  -5281212.61046  22236304.8134   22236299.7274
      2659.0784
 04  9  3 15 23 30.0000000  0  7G11G14G15G 1G19G22G25
  -5505622.30749  -4272422.78146  22151631.2664   22151624.6884
      1921.0474
   2971092.97249   2305937.44847  20733814.7504   20733808.7304
     -1796.1094
   7952217.86148   6171501.62844  22846875.4774   22846871.2114
     -3831.8124
  -5051870.72048  -3920214.11544  22976133.4224   22976129.0514
      2657.9064
   5055156.10448   3921650.33544  23360898.5554   23360891.9224
     -2659.1874
   4907692.64549   3804674.58046  22442484.1024   22442476.8324
     -2361.2344
  -6845464.14249  -5312263.58446  22228722.1884   22228716.8984
      2654.0474
 04  9  3 15 23 45.0000000  0  7G11G14G15G 1G19G22G25
  -5534387.72249  -4294837.39346  22146156.8754   22146150.9534
      1914.2504
   2998075.50549   2326962.79247  20738949.6884   20738943.4774
     -1801.7034
   8009722.48448   6216310.37444  22857818.4614   22857814.2464
     -3835.5784
  -5091709.77048  -3951257.51944  22968552.4534   22968547.9884
      2653.8594
   5095079.35748   3952759.33144  23368495.6644   23368488.5234
     -2663.9064
   4943130.80049   3832288.71146  22449228.0084   22449220.8164
     -2363.9374
  -6885237.70949  -5343255.96045  22221153.2974   22221148.2814
      2649.0164
 04  9  3 15 24  0.0000000  0  7G11G14G15G 1G19G22G25
  -5563051.54749  -4317172.83446  22140702.6094   22140696.3874
      1907.6414
   3025141.34249   2348053.05347  20744099.9694   20744093.8014
     -1807.0784
   8067283.65347   6261163.20144  22868771.4144   22868767.8594
     -3839.2504
  -5131489.59948  -3982254.77344  22960982.3834   22960978.2424
      2650.0784
   5135071.02848   3983921.65344  23376105.8204   23376099.0124
     -2668.2664
   4978609.47449   3859934.40946  22455979.3524   22455973.0984
     -2366.4694
  -6924936.14849  -5374189.79446  22213598.7344   22213593.8794
      2644.1254
 04  9  3 15 24 15.0000000  0  7G11G14G15G 1G19G22G25
  -5591613.24149  -4339428.70246  22135267.4694   22135261.5124
      1900.5944
   3052290.11849   2369207.92847  20749266.5164   20749260.2974
     -1812.7664
   8124901.22147   6306059.97144  22879736.3204   22879732.1564
     -3843.1874
  -5171210.09748  -4013205.80544  22953424.1254   22953419.5204
      2645.9064
   5175130.72448   4015136.98144  23383728.1644   23383721.9264
     -2673.0164
   5014128.72849   3887611.72446  22462738.7194   22462731.8914
     -2369.4374
  -6964559.13649  -5405064.85146  22206059.1644   22206054.0204
      2638.8914
 04  9  3 15 24 30.0000000  0  7G11G14G15G 1G19G22G25
  -5620071.71949  -4361604.14746  22129851.6644   22129845.3984
      1893.8134
   3079522.65149   2390428.07647  20754448.5394   20754442.3054
     -1818.2974
   8182575.76148   6351001.13744  22890711.3834   22890707.5354
     -3846.9064
  -5210870.20648  -4044109.77244  22945876.6484   22945872.3954
      2641.9844
   5215259.06948   4046405.78644  23391364.5474   23391357.9654
     -2677.4844
   5049689.52849   3915321.41246  22469505.3364   22469498.2814
     -2372.1414
  -7004105.46149  -5435880.15246  22198533.4224   22198528.4064
      2633.8914
 04  9  3 15 24 45.0000000  0  7G11G14G15G 1G19G22G25
  -5648429.65349  -4383701.23246  22124455.6094   22124449.0554
      1887.1724
   3106835.73049   2411710.97548  20759646.0554   20759639.4574
     -1823.5314
   8240304.10248   6395984.19644  22901696.3674   22901692.7384
     -3850.3124
  -5250472.69448  -4074968.83344  22938340.8284   22938336.2504
      2638.2974
   5255452.82048   4077725.56644  23399013.8204   23399006.8874
     -2681.7664
   5085288.82949   3943061.10246  22476279.8054   22476272.6094
     -2374.5004
  -7043577.68149  -5466637.71246  22191022.0864   22191017.4184
      2629.0164
 04  9  3 15 25  0.0000000  0  7G11G14G15G 1G19G22G25
  -5676685.42349  -4405718.71346  22119079.0634   22119072.6374
      1880.1884
   3134230.51049   2433057.54247  20764859.3444   20764852.9694
     -1829.1564
   8298087.27648   6441010.03544  22912692.2664   22912688.6644
     -3854.1254
  -5290016.10748  -4105781.88044  22930815.7424   22930811.3364
      2634.0944
   5295712.86548   4109097.00944  23406675.1564   23406668.1374
     -2686.2814
   5120927.93949   3970831.82446  22483061.7814   22483054.2664
     -2377.3914
  -7082974.02549  -5497336.14046  22183525.2664   22183520.2704
      2623.7664
 04  9  3 15 25 15.0000000  0  7G11G14G15G 1G19G22G25
  -5704840.54149  -4427657.76946  22113720.7974   22113714.7424
      1873.6254
   3161705.07949   2454466.29147  20770087.4774   20770081.5354
     -1834.2974
   8355923.30148   6486077.03244  22923698.1884   22923694.5634
     -3857.4694
  -5329501.95848  -4136550.07044  22923301.9454   22923297.2934
      2630.3754
   5336037.07048   4140518.43044  23414348.2274   23414341.3984
     -2690.5164
   5156605.24649   3998632.30246  22489851.0084   22489844.0314
     -2379.7344
  -7122296.02749  -5527976.64846  22176042.6094   22176037.3324
      2618.9384
 04  9  3 15 25 30.0000000  0  7G11G14G15G 1G19G22G25
  -5732891.97149  -4449516.03946  22108383.1954   22108376.5984
      1866.4534
   3189261.94249   2475939.17047  20775331.5554   20775325.3014
     -1840.0164
   8413814.69748   6531187.17844  22934714.5394   22934710.2734
     -3861.3444
  -5368927.39448  -4167271.18644  22915799.4064   22915794.9924
      2626.1414
   5376427.93148   4171991.79244  23422034.2974   23422028.3834
     -2695.0474
   5192323.43849   4026464.64346  22496648.0554   22496640.4304
     -2382.7034
  -7161540.55849  -5558556.79046  22168574.4144   22168569.5164
      2613.5784
 04  9  3 15 25 45.0000000  0  7G11G14G15G 1G19G22G25
  -5760840.50849  -4471294.11246  22103064.6254   22103058.3524
      1859.7194
   3216899.84049   2497475.17347  20780590.6564   20780584.4534
     -1845.2814
   8471760.15647   6576339.43144  22945741.2814   22945737.0904
     -3864.9064
  -5408293.33448  -4197945.93144  22908308.1094   22908303.5004
      2622.3594
   5416883.95048   4203515.93244  23429732.8204   23429726.6724
     -2699.2974
   5228081.42049   4054327.98746  22503452.2894   22503446.1844
     -2385.2344
  -7200708.30349  -5589077.10346  22161121.3134   22161115.8014
      2608.5784
 04  9  3 15 26  0.0000000  0  7G11G14G15G 1G19G22G25
  -5788683.91149  -4492990.27546  22097766.1804   22097759.3674
      1852.8444
   3244620.37649   2519075.58147  20785865.8674   20785859.3674
     -1850.7034
   8529761.20047   6621535.01944  22956778.5634   22956774.1294
     -3868.4374
  -5447597.85048  -4228572.80844  22900829.2424   22900824.1524
      2618.3594
   5457406.71648   4235092.09244  23437443.9694   23437437.3674
     -2703.6254
   5263881.07749   4082223.79446  22510264.6254   22510258.3634
     -2387.9534
  -7239796.99749  -5619535.81846  22153682.9844   22153677.9534
      2603.4064
 04  9  3 15 26 15.0000000  0  7G11G14G15G 1G19G22G25
  -5816424.83349  -4514606.57346  22092487.2584   22092481.0944
      1845.7504
   3272420.45349   2540737.97647  20791155.8984   20791150.0474
     -1856.1564
   8587814.72747   6666771.49044  22967825.9454   22967821.7544
     -3872.1414
  -5486843.64547  -4259153.93444  22893360.3364   22893355.9104
      2614.2504
   5497992.90848   4266717.66244  23445167.1564   23445160.6294
     -2708.0624
   5299719.61649   4110149.91446  22517084.7194   22517077.7664
     -2390.6874
  -7278809.19848  -5649934.91946  22146259.2974   22146253.8204
      2598.1254
 04  9  3 15 26 30.0000000  0  7G11G14G15G 1G19G22G25
  -5844057.85949  -4536138.80446  22087228.7814   22087222.1334
      1838.7034
   3300304.90749   2562466.11447  20796462.1804   20796455.9024
     -1861.6564
   8645925.44847   6712052.54044  22978883.4064   22978879.7464
     -3875.8914
  -5526025.58347  -4289685.30344  22885904.8284   22885899.9494
      2610.0944
   5538647.26548   4298396.35044  23452903.7664   23452897.0394
     -2712.4534
   5335602.10649   4138110.28146  22523913.1024   22523906.0274
     -2393.5314
  -7317739.61648  -5680270.30846  22138851.0634   22138845.4804
      2592.8134
 04  9  3 15 26 45.0000000  0  7G11G14G15G 1G19G22G25
  -5871587.08549  -4557590.14646  22081989.7504   22081983.5474
      1831.8284
   3328269.34549   2584256.57747  20801783.6174   20801777.1954
     -1866.9694
   8704088.93947   6757374.70744  22989951.6564   22989947.8674
     -3879.2814
  -5565147.69047  -4320170.04444  22878459.9614   22878455.1844
      2606.0474
   5579365.15648   4330124.57344  23460652.5474   23460645.7074
     -2716.5944
   5371524.25549   4166101.53246  22530748.6414   22530741.9224
     -2396.1564
  -7356592.13448  -5710544.97646  22131457.5704   22131452.4654
      2587.5314
 04  9  3 15 27  0.0000000  0  7G11G14G15G 1G19G22G25
  -5899011.93749  -4578960.18146  22076771.3594   22076765.5514
      1824.7814
   3356313.75449   2606109.35347  20807120.0394   20807113.8914
     -1872.3444
   8762305.21648   6802737.98744  23001030.5394   23001026.1884
     -3882.9064
  -5604209.55847  -4350607.87044  22871026.1484   22871021.7774
      2602.0944
   5620146.54648   4361902.24544  23468412.9384   23468405.8794
     -2720.9844
   5407486.33449   4194123.91546  22537592.2034   22537585.1054
     -2398.8754
  -7395366.12148  -5740758.46146  22124078.8754   22124073.4104
      2582.2034
 04  9  3 15 27 15.0000000  0  7G11G14G15G 1G19G22G25
  -5926333.07749  -4600249.37146  22071572.3444   22071565.7974
      1817.9844
   3384437.04249   2628023.59647  20812472.1564   20812465.8914
     -1877.4844
   8820572.93647   6848141.37143  23012117.8594   23012114.3054
     -3886.1874
  -5643212.00447  -4380999.35544  22863604.8444   22863600.4104
      2598.2194
   5660990.10148   4393728.35744  23476185.3594   23476178.2384
     -2724.8914
   5443487.43349   4222176.69746  22544442.7424   22544435.8484
     -2401.2814
  -7434062.18448  -5770911.23446  22116715.5474   22116710.0164
      2577.1724
 04  9  3 15 27 30.0000000  0  7G11G14G15G 1G19G22G25
  -5953548.29149  -4621456.02646  22066393.3594   22066386.8714
      1810.9694
   3412640.85949   2650000.57447  20817839.2424   20817833.1174
     -1882.8284
   8878893.86247   6893586.22743  23023216.4774   23023212.6414
     -3889.6094
  -5682152.99048  -4411342.98244  22856194.6174   22856190.2504
      2594.1884
   5701897.41048   4425604.16144  23483969.4454   23483962.7194
     -2729.1564
   5479529.45548   4250261.37846  22551301.6024   22551294.8134
     -2404.0164
  -7472678.06848  -5801001.51646  22109367.0234   22109361.8404
      2571.8914
 04  9  3 15 27 45.0000000  0  7G11G14G15G 1G19G22G25
  -5980657.31949  -4642579.95846  22061234.9454   22061228.8914
      1803.5004
   3440924.98349   2672040.15047  20823221.4694   20823215.0554
     -1888.5164
   8937267.75747   6939072.31843  23034325.0944   23034321.0004
     -3893.5784
  -5721032.46648  -4441638.67244  22848795.9454   22848791.1294
      2589.6414
   5742868.14548   4457529.36444  23491765.7114   23491759.2584
     -2733.7344
   5515612.31949   4278377.87546  22558167.7194   22558161.1094
     -2407.1724
  -7511213.43048  -5831029.05746  22102034.2344   22102028.6564
      2566.1094
 04  9  3 15 28  0.0000000  0  7G11G14G15G 1G19G22G25
  -6007661.98949  -4663622.54845  22056095.9304   22056089.5234
      1796.8594
   3469287.19849   2694140.57047  20828618.3914   20828611.9964
     -1893.3124
   8995692.36147   6984597.95044  23045442.5394   23045438.8134
     -3896.6094
  -5759852.26548  -4471887.85944  22841408.9614   22841404.3164
      2586.0944
   5783899.87148   4489502.12044  23499573.7114   23499567.3324
     -2737.3284
   5551734.12748   4306524.70446  22565041.3284   22565034.6884
     -2409.3594
  -7549669.88948  -5860995.11146  22094715.9454   22094710.7734
      2561.1414
 04  9  3 15 28 15.0000000  0  7G11G14G15G 1G19G22G25
  -6034563.80649  -4684585.01546  22050976.4534   22050970.6334
      1789.8594
   3497725.60449   2716300.35147  20834030.2814   20834023.9104
     -1898.6254
   9054165.63148   7030161.49243  23056569.7974   23056566.0004
     -3900.0314
  -5798614.06048  -4502091.84944  22834032.5474   22834028.7114
      2581.9844
   5824990.43348   4521520.70444  23507393.4844   23507386.9574
     -2741.4694
   5587893.10549   4334700.50346  22571922.2344   22571915.4924
     -2412.0164
  -7588048.86448  -5890900.79846  22087412.8204   22087407.7074
      2555.8444
 04  9  3 15 28 30.0000000  0  7G11G14G15G 1G19G22G25
  -6061360.39949  -4705465.47346  22045877.1254   22045870.8094
      1782.7194
   3526241.79349   2738520.75247  20839456.2894   20839450.2344
     -1903.7504
   9112689.25647   7075764.27244  23067706.6724   23067703.2384
     -3903.3754
  -5837315.78648  -4532249.02544  22826667.9534   22826663.7424
      2578.0004
   5866141.52248   4553586.46144  23515224.2194   23515217.5824
     -2745.6564
   5624091.19349   4362906.79946  22578811.0084   22578803.7234
     -2414.6414
  -7626348.18448  -5920744.41346  22080124.8444   22080118.8484
      2550.5004
 04  9  3 15 28 45.0000000  0  7G11G14G15G 1G19G22G25
  -6088049.22049  -4726261.97145  22040798.7344   22040791.9224
      1775.6724
   3554837.99949   2760803.49847  20844898.1094   20844892.0744
     -1909.0784
   9171265.35747   7121407.97143  23078853.1024   23078848.7034
     -3906.8444
  -5875954.90748  -4562357.41944  22819314.5784   22819310.6524
      2573.8444
   5907355.06348   4585700.88243  23523066.9844   23523060.3794
     -2749.6564
   5660330.79748   4391145.43146  22585706.9304   22585700.2074
     -2417.3754
  -7664565.16348  -5950523.86446  22072851.9924   22072846.8834
      2545.0474
 04  9  3 15 29  0.0000000  0  7G11G14G15G 1G19G22G25
  -6114630.86249  -4746974.93545  22035740.1644   22035733.8324
      1768.8914
   3583513.26349   2783147.84447  20850355.0394   20850348.5474
     -1914.0004
   9229892.89347   7167091.73044  23090009.6024   23090005.4574
     -3909.7344
  -5914532.02248  -4592417.50344  22811974.3524   22811970.0274
      2570.0944
   5948629.87048   4617863.03244  23530921.1954   23530914.6684
     -2753.3284
   5696611.17948   4419415.83046  22592610.5394   22592604.1954
     -2419.6414
  -7702700.20348  -5980239.46846  22065595.3754   22065589.8954
      2539.9534
 04  9  3 15 29 15.0000000  0  7G11G14G15G 1G19G22G25
  -6141109.45649  -4767607.61446  22030701.6484   22030694.9654
      1761.6884
   3612262.75549   2805550.04147  20855825.8594   20855819.9454
     -1919.1874
   9288566.96847   7212811.73043  23101174.7894   23101170.4304
     -3913.2664
  -5953051.55148  -4622432.72844  22804644.2664   22804639.5744
      2565.9844
   5989961.20048   4650069.23944  23538786.4304   23538779.4024
     -2757.3594
   5732927.81148   4447714.49746  22599521.4304   22599515.0354
     -2422.3594
  -7740757.54649  -6009894.53146  22058353.2194   22058347.9104
      2534.4694
 04  9  3 15 29 30.0000000  0  7G11G14G15G 1G19G22G25
  -6167482.85049  -4788158.30646  22025682.9924   22025676.5204
      1754.4384
   3641088.20349   2828011.42147  20861311.4924   20861304.7734
     -1924.4844
   9347289.21948   7258569.29344  23112349.5554   23112345.6134
     -3916.6724
  -5991511.53748  -4652401.52944  22797325.3754   22797321.0594
      2561.7974
   6031350.47248   4682320.58944  23546662.5234   23546656.1884
     -2761.4064
   5769282.43648   4476042.74346  22606439.5864   22606432.9924
     -2425.1414
  -7778734.91548  -6039487.27346  22051126.0474   22051120.6994
      2528.9694
 04  9  3 15 29 45.0000000  0  7G11G14G15G 1G19G22G25
  -6193746.96249  -4808623.85346  22020685.0944   22020678.4694
      1747.2504
   3669993.25049   2850534.82347  20866811.7504   20866805.7584
     -1929.7034
   9406063.29548   7304367.23544  23123533.6724   23123530.4574
     -3920.0314
  -6029907.94548  -4682320.79544  22790018.7814   22790014.6254
      2557.5784
   6072801.16348   4714619.80643  23554550.1804   23554543.8834
     -2765.4844
   5805678.99348   4504403.68145  22613366.0164   22613358.6214
     -2427.8914
  -7816628.22048  -6069014.51646  22043915.0004   22043910.4104
      2523.3444
 04  9  3 15 30  0.0000000  0  7G11G14G15G 1G19G22G25
  -6219903.73149  -4829005.75146  22015707.7584   22015701.0434
      1740.2814
   3698975.50349   2873118.39447  20872326.8984   20872320.8244
     -1934.6414
   9464886.74147   7350203.65544  23134727.3444   23134723.4964
     -3923.0474
  -6068242.90148  -4712192.18144  22782723.6884   22782719.3914
      2553.7344
   6114310.76248   4746964.93244  23562449.3674   23562442.8834
     -2769.1094
   5842115.31548   4532795.59146  22620299.1024   22620293.0274
     -2430.2814
  -7854439.15848  -6098477.57646  22036720.1334   22036715.0124
      2518.0784
 04  9  3 15 30 15.0000000  0  7G11G14G15G 1G19G22G25
  -6245955.56249  -4849305.88246  22010750.2664   22010743.8444
      1733.2974
   3728031.99249   2895759.78947  20877856.2734   20877849.8914
     -1939.6094
   9523756.54648   7396076.18744  23145930.2274   23145926.3364
     -3926.2034
  -6106519.03448  -4742017.72044  22775440.3134   22775436.2384
      2549.7814
   6155876.17948   4779353.53844  23570358.9534   23570352.1884
     -2772.9064
   5878588.57548   4561216.28846  22627240.1484   22627233.3984
     -2432.7504
  -7892170.15848  -6127878.34046  22029540.2194   22029535.1764
      2512.7194
 04  9  3 15 30 30.0000000  0  7G11G14G15G 1G19G22G25
  -6271899.14649  -4869521.66546  22005813.4774   22005806.7584
      1726.2194
   3757165.52149   2918461.24847  20883400.0634   20883394.0274
     -1944.5784
   9582675.39348   7441986.94844  23157142.1564   23157138.4694
     -3929.2504
  -6144733.17148  -4771794.96544  22768168.1724   22768164.0554
      2545.7664
   6197500.01448   4811787.66544  23578279.7894   23578273.1764
     -2776.6414
   5915101.95048   4589668.24946  22634188.4224   22634181.5864
     -2435.3444
  -7929817.89448  -6157214.22446  22022376.1094   22022370.7894
      2507.3284
 04  9  3 15 30 45.0000000  0  7G11G14G15G 1G19G22G25
  -6297733.49949  -4889652.32946  22000897.1254   22000890.5664
      1718.6094
   3786376.71249   2941223.19347  20888958.7974   20888952.4654
     -1950.0624
   9641643.90848   7487936.39244  23168363.7814   23168359.4454
     -3932.9224
  -6182884.34748  -4801523.14344  22760908.3834   22760904.0664
      2541.2974
   6239182.86348   4844267.79344  23586211.8914   23586204.9024
     -2780.7814
   5951656.20948   4618152.06346  22641144.4454   22641137.4414
     -2438.3754
  -7967381.36348  -6186484.45246  22015228.0004   22015223.3164
      2501.3444
 04  9  3 15 31  0.0000000  0  7G11G14G15G 1G19G22G25
  -6323459.09249  -4909698.26346  21996001.8054   21995995.1174
      1711.3754
   3815664.56649   2964044.88547  20894531.9224   20894525.5434
     -1955.1254
   9700661.01247   7533923.72144  23179594.0474   23179590.3874
     -3936.1254
  -6220973.13747  -4831202.72344  22753660.6024   22753656.1724
      2537.0944
   6280923.53348   4876792.95244  23594154.9304   23594148.2774
     -2784.6874
   5988250.60348   4646667.15545  22648107.7974   22648101.3594
     -2441.0164
  -8004860.80348  -6215689.19946  22008095.7664   22008090.7464
      2495.7664
 04  9  3 15 31 15.0000000  0  7G11G14G15G 1G19G22G25
  -6349077.82749  -4929660.90946  21991126.6414   21991120.5554
      1704.3284
   3845026.77349   2986924.50947  20900119.3134   20900113.3204
     -1960.0164
   9759724.39548   7579947.07244  23190833.4614   23190830.0234
     -3939.1414
  -6259001.62947  -4860835.30944  22746424.0474   22746420.2734
      2533.1884
   6322719.42048   4909361.16144  23602108.1954   23602101.7774
     -2788.3284
   6024883.01948   4675211.87745  22655078.9224   22655072.2234
     -2443.4694
  -8042258.03848  -6244829.88846  22000979.5634   22000974.4884
      2490.3444
 04  9  3 15 31 30.0000000  0  7G11G14G15G 1G19G22G25
  -6374588.79249  -4949539.58946  21986272.2894   21986266.1644
      1697.4064
   3874463.65049   3009862.33847  20905720.9224   20905714.7194
     -1964.7034
   9818834.34647   7626006.74444  23202081.7584   23202078.2774
     -3942.0164
  -6296969.11647  -4890420.35544  22739198.6724   22739194.3984
      2529.4224
   6364570.90548   4941972.68243  23610072.1884   23610066.2234
     -2791.6564
   6061554.06948   4703786.70346  22662057.3674   22662050.4924
     -2445.7034
  -8079572.24448  -6273905.88546  21993878.9304   21993873.7624
      2485.0784
 04  9  3 15 31 45.0000000  0  7G11G14G15G 1G19G22G25
  -6399991.05149  -4969333.56146  21981438.1564   21981431.9964
      1689.8914
   3903975.60349   3032858.64747  20911336.8134   20911330.7154
     -1969.9374
   9877991.21847   7672102.95243  23213338.9534   23213335.4694
     -3945.3284
  -6334874.76747  -4919957.21944  22731985.8524   22731981.1524
      2524.9384
   6406478.20548   4974627.70543  23618047.5944   23618040.8754
     -2795.6724
   6098264.35848   4732392.08746  22669043.3284   22669036.5984
     -2448.6414
  -8116802.52148  -6302916.48746  21986794.0634   21986788.8364
      2479.2504
 04  9  3 15 32  0.0000000  0  7G11G14G15G 1G19G22G25
  -6425284.99749  -4989043.12046  21976624.9844   21976618.5474
      1682.5784
   3933561.85749   3055912.86847  20916967.0944   20916961.1334
     -1974.9694
   9937194.16947   7718235.12243  23224604.9614   23224600.9064
     -3948.5314
  -6372719.16147  -4949446.35744  22724784.0634   22724779.4384
      2520.7814
   6448440.35148   5007325.44443  23626031.6954   23626025.6804
     -2799.3444
   6135013.29148   4761027.60246  22676036.2814   22676029.6414
     -2451.3124
  -8153949.11349  -6331861.86746  21979725.5394   21979720.2504
      2473.5164
 04  9  3 15 32 15.0000000  0  7G11G14G15G 1G19G22G25
  -6450470.48949  -5008668.18246  21971832.1644   21971826.1214
      1675.5164
   3963222.07349   3079024.70347  20922611.3134   20922604.8364
     -1979.6564
   9996442.85547   7764402.86343  23235879.3834   23235875.8244
     -3951.2344
  -6410502.16147  -4978887.65144  22717593.9224   22717589.8524
      2516.9534
   6490456.85148   5040065.54443  23634027.6094   23634021.1724
     -2802.7974
   6171800.87148   4789693.22945  22683036.5314   22683030.1094
     -2453.6414
  -8191011.68149  -6360741.79846  21972672.6564   21972666.9494
      2468.1564
 04  9  3 15 32 30.0000000  0  7G11G14G15G 1G19G22G25
  -6475545.89649  -5028207.46846  21967060.6024   21967054.4774
      1668.0314
   3992957.45549   3102195.13147  20928269.8364   20928263.6024
     -1984.8124
  10055738.31747   7810607.06743  23247163.2274   23247159.8404
     -3954.5784
  -6448222.38048  -5008280.01844  22710416.0164   22710412.0164
      2512.6254
   6532528.76248   5072848.81344  23642034.0704   23642026.9534
     -2806.5944
   6208628.28148   4818389.89945  22690044.4774   22690037.4924
     -2456.4534
  -8227988.57849  -6389554.94046  21965636.1094   21965630.8484
      2462.2664
 04  9  3 15 32 45.0000000  0  7G11G14G15G 1G19G22G25
  -6500511.83549  -5047661.44946  21962309.5864   21962303.2464
      1660.6724
   4022766.89549   3125423.25447  20933942.2734   20933936.3524
     -1989.8124
  10115079.37147   7856846.80743  23258455.1644   23258452.0124
     -3957.6724
  -6485880.66448  -5037624.13144  22703250.0234   22703246.0234
      2508.3754
   6574654.83648   5105674.29643  23650050.0864   23650043.8134
     -2810.3284
   6245494.62949   4847116.89545  22697060.0164   22697052.9224
     -2459.1564
  -8264880.45349  -6418301.85046  21958615.6564   21958610.4574
      2456.4384
 04  9  3 15 33  0.0000000  0  7G11G14G15G 1G19G22G25
  -6525368.02349  -5067029.90046  21957579.7894   21957573.6954
      1653.4694
   4052650.17649   3148708.90447  20939628.8834   20939622.5234
     -1994.6414
  10174465.71947   7903121.83243  23269755.8524   23269752.5594
     -3960.5164
  -6523476.86048  -5066919.87445  22696095.5164   22696091.4534
      2504.4064
   6616834.65548   5138541.68744  23658076.4694   23658070.1954
     -2813.7034
   6282400.00048   4875874.30045  22704083.3524   22704076.3594
     -2461.5624
  -8301686.93648  -6446982.22246  21951611.9384   21951606.8134
      2450.8754
 04  9  3 15 33 15.0000000  0  7G11G14G15G 1G19G22G25
  -6550115.70349  -5086313.81446  21952870.4924   21952864.0514
      1646.0784
   4082605.69549   3172050.86347  20945329.1174   20945322.9924
     -1999.6254
  10233895.81847   7949430.97843  23281064.8284   23281061.5514
     -3963.6414
  -6561012.11147  -5096168.10744  22688952.9384   22688948.8014
      2500.0634
   6659066.50848   5171449.56744  23666113.1484   23666106.8594
     -2817.2814
   6319343.13148   4904661.14145  22711112.9304   22711105.8324
     -2464.2664
  -8338409.06648  -6475596.84946  21944623.5784   21944618.2194
      2445.2194
 04  9  3 15 33 30.0000000  0  7G11G14G15G 1G19G22G25
  -6574752.70249  -5105511.46846  21948181.6724   21948175.7854
      1638.8914
   4112635.01249   3195450.31947  20951043.8674   20951037.7154
     -2004.2664
  10293371.20147   7995775.36543  23292383.2584   23292379.4884
     -3966.4224
  -6598484.51447  -5125367.36745  22681822.5864   22681818.0004
      2496.1254
   6701351.87548   5204399.19043  23674160.0474   23674153.5704
     -2820.7344
   6356325.83048   4933478.81445  22718150.6954   22718143.6724
     -2466.7194
  -8375044.52549  -6504143.95146  21937652.1564   21937647.1804
      2439.5784
 04  9  3 15 33 45.0000000  0  7G11G14G15G 1G19G22G25
  -6599278.36649  -5124622.37446  21943514.9224   21943508.7854
      1631.2664
   4142738.36649   3218907.46347  20956772.1724   20956765.9064
     -2009.4224
  10352891.96547   8042155.14643  23303709.8524   23303706.2774
     -3969.5784
  -6635893.60948  -5154517.30844  22674704.2034   22674699.4224
      2491.7974
   6743690.66548   5237390.40643  23682216.6804   23682210.1294
     -2824.4224
   6393348.38649   4962327.53245  22725195.7274   22725188.7034
     -2469.5474
  -8411592.82749  -6532623.14546  21930697.1954   21930691.6884
      2433.5474
 04  9  3 15 34  0.0000000  0  7G11G14G15G 1G19G22G25
  -6623692.25049  -5143646.18446  21938869.2734   21938862.8364
      1623.9384
   4172915.68949   3242422.24447  20962514.9774   20962508.6374
     -2014.1724
  10412458.06647   8088570.25943  23315045.0634   23315041.4494
     -3972.5004
  -6673239.04148  -5183617.63145  22667597.0234   22667592.7854
      2487.6254
   6786082.84748   5270423.24243  23690283.5474   23690277.1804
     -2827.8284
   6430411.00648   4991207.47745  22732248.5554   22732242.0394
     -2472.1094
  -8448053.41349  -6561033.98246  21923759.2664   21923753.7544
      2427.8754
 04  9  3 15 34 15.0000000  0  7G11G14G15G 1G19G22G25
  -6647993.92649  -5162582.57246  21934245.0164   21934238.7894
      1616.2664
   4203167.16049   3265994.81647  20968271.5554   20968265.4534
     -2019.2974
  10472069.44047   8135020.59843  23326387.7424   23326384.4964
     -3975.7344
  -6710520.46448  -5212668.09144  22660502.6884   22660498.4384
      2483.1414
   6828528.25448   5303497.56143  23698360.3594   23698354.1804
     -2831.5164
   6467513.93048   5020118.82345  22739308.9534   22739302.0394
     -2474.9694
  -8484425.73249  -6589376.04946  21916837.7504   21916832.3284
      2421.7814
 04  9  3 15 34 30.0000000  0  7G11G14G15G 1G19G22G25
  -6672183.50949  -5181431.58346  21929641.7814   21929635.5704
      1608.9694
   4233491.92549   3289624.47847  20974041.7734   20974036.2344
     -2024.0004
  10531725.40847   8181505.73243  23337740.4534   23337737.0234
     -3978.5004
  -6747738.19948  -5241668.91444  22653419.9384   22653415.8834
      2479.1564
   6871026.06248   5336612.70643  23706447.9534   23706441.4344
     -2834.9374
   6504656.74048   5049061.24045  22746377.1644   22746369.5704
     -2477.5004
  -8520709.89349  -6617649.41346  21909932.6414   21909928.0394
      2416.0944
 04  9  3 15 34 45.0000000  0  7G11G14G15G 1G19G22G25
  -6696262.26049  -5200194.25946  21925059.6254   21925053.4064
      1601.5164
   4263888.25849   3313309.92447  20979826.2734   20979820.5944
     -2028.8284
  10591424.15247   8228024.19543  23349100.9614   23349097.9574
     -3981.3444
  -6784893.74248  -5270621.28644  22646349.7274   22646345.5004
      2474.9844
   6913574.38748   5369767.18844  23714544.5704   23714537.6844
     -2838.2974
   6541837.88848   5078033.55345  22753452.9304   22753445.5124
     -2480.0624
  -8556907.10949  -6645855.02946  21903044.8134   21903039.5514
      2410.2194
 04  9  3 15 35  0.0000000  0  7G11G14G15G 1G19G22G25
  -6720229.78549  -5218870.25146  21920498.9304   21920492.3874
      1594.3134
   4294356.18149   3337051.15647  20985624.0004   20985618.0314
     -2033.3444
  10651165.59847   8274575.91243  23360469.1484   23360465.7544
     -3983.8754
  -6821986.75148  -5299524.92244  22639291.1564   22639286.8364
      2471.0004
   6956173.05448   5402960.92943  23722650.9454   23722644.3484
     -2841.3444
   6579057.51949   5107035.83145  22760535.4454   22760528.2274
     -2482.3594
  -8593016.87449  -6673992.50446  21896173.4534   21896168.1844
      2404.6724
 04  9  3 15 35 15.0000000  0  7G11G14G15G 1G19G22G25
  -6744088.47949  -5237461.45146  21915958.6484   21915952.5904
      1586.7974
   4324892.82449   3360845.92847  20991435.1024   20991428.8134
     -2038.1724
  10710946.75347   8321158.60743  23371845.8524   23371841.6454
     -3986.9224
  -6859019.72248  -5328381.77444  22632243.8754   22632239.7154
      2466.6884
   6998818.99948   5436191.50544  23730766.2114   23730759.4694
     -2844.7344
   6616313.10148   5136066.13845  22767624.6334   22767617.4534
     -2485.0314
  -8629041.56149  -6702063.68746  21889318.0634   21889312.8164
      2398.6724
 04  9  3 15 35 30.0000000  0  7G11G14G15G 1G19G22G25
  -6767835.58749  -5255965.68946  21911439.6414   21911433.2934
      1579.1414
   4355500.51949   3384696.06747  20997259.7424   20997253.6374
     -2043.1724
  10770769.94647   8367774.04843  23383229.5234   23383225.5124
     -3989.8284
  -6895990.03648  -5357189.80944  22625208.7114   22625204.2234
      2462.2814
   7041514.37448   5469460.60143  23738891.0234   23738884.3984
     -2848.2974
   6653607.13248   5165126.39945  22774721.5084   22774715.1914
     -2487.8124
  -8664978.30149  -6730066.33646  21882479.4614   21882474.3874
      2392.5634
 04  9  3 15 35 45.0000000  0  7G11G14G15G 1G19G22G25
  -6791470.10549  -5274382.19246  21906942.0164   21906935.7624
      1572.0004
   4386179.84049   3408602.02147  21003097.5784   21003091.7464
     -2047.5474
  10830635.73547   8414422.64743  23394621.6024   23394617.5904
     -3992.3594
  -6932896.75248  -5385948.27644  22618186.0164   22618181.4964
      2458.4384
   7084259.75548   5502768.64343  23747024.6094   23747018.3404
     -2851.1564
   6690940.40648   5194217.23645  22781825.6094   22781819.3324
     -2490.0784
  -8700825.97549  -6757999.58046  21875657.5704   21875652.5004
      2386.9694
 04  9  3 15 36  0.0000000  0  7G11G14G15G 1G19G22G25
  -6814991.95449  -5292710.91546  21902466.2424   21902460.0824
      1564.1094
   4416930.21549   3432563.33447  21008949.0394   21008942.9964
     -2052.6254
  10890543.47447   8461103.95643  23406022.2274   23406018.2734
     -3995.4844
  -6969740.12548  -5414657.39144  22611174.5474   22611170.3244
      2453.8594
   7127054.39448   5536115.09043  23755168.2194   23755161.7154
     -2854.9224
   6728312.55548   5223338.36745  22788937.5314   22788930.7814
     -2493.0474
  -8736584.57149  -6785863.42046  21868853.2664   21868848.0044
      2380.6414
 04  9  3 15 36 15.0000000  0  7G11G14G15G 1G19G22G25
  -6838399.52849  -5310950.59346  21898012.0164   21898005.5234
      1556.5164
   4447752.92349   3456581.02547  21014814.8444   21014808.6254
     -2057.4064
  10950494.34147   8507818.89043  23417429.8984   23417426.4884
     -3998.3124
  -7006518.51748  -5443315.87245  22604175.9694   22604171.5394
      2449.5004
   7169899.30848   5569500.71944  23763322.0004   23763315.2194
     -2858.1874
   6765725.09348   5252490.97345  22796056.9064   22796050.0944
     -2495.6564
  -8772252.29749  -6813656.44746  21862066.4534   21862061.3134
      2374.5784
 04  9  3 15 36 30.0000000  0  7G11G14G15G 1G19G22G25
  -6861693.77649  -5329101.94846  21893579.1334   21893572.8364
      1549.1564
   4478646.58649   3480653.99747  21020693.6414   21020687.2934
     -2061.9374
  11010486.88047   8554566.27043  23428846.5084   23428842.8014
     -4000.9224
  -7043233.08348  -5471924.63145  22597189.6954   22597185.2734
      2445.4844
   7212792.90848   5602924.26243  23771483.9304   23771477.5004
     -2861.2664
   6803176.73648   5281674.04946  22803183.7734   22803177.3404
     -2498.0784
  -8807830.14649  -6841379.45046  21855295.3444   21855289.8714
      2368.8284
 04  9  3 15 36 45.0000000  0  7G11G14G15G 1G19G22G25
  -6884875.97749  -5347166.00846  21889167.6094   21889161.4964
      1541.7504
   4509609.37749   3504780.84647  21026585.7344   21026579.4064
     -2066.4534
  11070519.22748   8601344.70043  23440270.1254   23440266.5594
     -4003.5474
  -7079885.21548  -5500484.71444  22590215.0004   22590210.3714
      2441.4064
   7255733.34448   5636384.33043  23779655.1884   23779649.0434
     -2864.2664
   6840666.03148   5310886.46745  22810318.0084   22810311.1724
     -2500.5164
  -8843319.22649  -6869033.26946  21848541.9924   21848536.8244
      2362.9534
 04  9  3 15 37  0.0000000  0  7G11G14G15G 1G19G22G25
  -6907944.86449  -5365141.76546  21884777.8284   21884771.3054
      1534.1094
   4540642.11449   3528962.17747  21032490.7814   21032484.6174
     -2071.2344
  11130592.09448   8648154.66743  23451701.9064   23451698.2624
     -4006.2034
  -7116473.83448  -5528995.32044  22583251.8364   22583247.7074
      2437.0164
   7298721.20648   5669881.31244  23787835.3914   23787828.9614
     -2867.4064
   6878193.96848   5340128.99245  22817459.1884   22817452.2624
     -2503.2034
  -8878718.38949  -6896617.02546  21841806.0704   21841801.0704
      2356.8444
 04  9  3 15 37 15.0000000  0  7G11G14G15G 1G19G22G25
  -6930898.50849  -5383027.71346  21880409.6024   21880403.9344
      1526.6564
   4571746.34349   3553199.21947  21038409.7734   21038403.6294
     -2075.6724
  11190706.96447   8694997.36943  23463140.9924   23463137.5124
     -4008.7194
  -7152997.10948  -5557454.99445  22576302.0234   22576297.7934
      2432.9384
   7341757.90748   5703416.40044  23796025.6954   23796019.2274
     -2870.3594
   6915762.30748   5369402.98545  22824608.0944   22824600.8754
     -2505.6094
  -8914025.53249  -6924129.07446  21835087.5004   21835082.1174
      2351.0314
 04  9  3 15 37 30.0000000  0  7G11G14G15G 1G19G22G25
  -6953740.58949  -5400826.74146  21876063.4144   21876056.8164
      1518.8914
   4602917.88949   3577488.72447  21044341.5234   21044335.3874
     -2080.5314
  11250859.74047   8741869.63243  23474587.4144   23474584.6884
     -4011.7194
  -7189458.81948  -5585866.71845  22569363.4064   22569358.7274
      2428.5004
   7384839.20048   5736986.18643  23804223.2274   23804217.1994
     -2873.8444
   6953367.09448   5398705.39045  22831763.8984   22831757.8134
     -2508.4694
  -8949244.17749  -6951572.17946  21828385.5784   21828380.2814
      2344.7504
 04  9  3 15 37 45.0000000  0  7G11G14G15G 1G19G22G25
  -6976467.33849  -5418535.89846  21871738.8054   21871731.9454
      1511.3754
   4634160.07249   3601833.27747  21050286.5634   21050280.9264
     -2084.9694
  11311053.67648   8788773.93443  23486042.3594   23486039.1844
     -4014.1094
  -7225855.38648  -5614227.67545  22562437.3444   22562432.8954
      2424.4534
   7427968.19748   5770593.17543  23812430.8524   23812424.2424
     -2876.7034
   6991011.80648   5428038.90645  22838927.4454   22838921.0434
     -2510.8124
  -8984370.54049  -6978943.36246  21821700.9614   21821695.6644
      2338.9064
 04  9  3 15 38  0.0000000  0  7G11G14G15G 1G19G22G25
  -6999081.66649  -5436157.45046  21867435.0634   21867428.7114
      1503.7504
   4665469.42149   3626230.15847  21056245.0704   21056238.6254
     -2089.7034
  11371285.20348   8835707.54743  23497503.9534   23497501.0394
     -4016.7974
  -7262189.96048  -5642540.32045  22555523.1484   22555518.6094
      2420.0634
   7471141.18448   5804234.41643  23820645.9144   23820639.7344
     -2879.7664
   7028693.20749   5457401.03145  22846098.2274   22846091.0824
     -2513.4064
  -9019407.59049  -7006244.95846  21815033.9694   21815028.6994
      2332.7504
 04  9  3 15 38 15.0000000  0  7G11G14G15G 1G19G22G25
  -7021581.99449  -5453690.18446  21863153.3524   21863147.1644
      1496.5004
   4696847.15449   3650680.32447  21062215.6414   21062209.7544
     -2093.9064
  11431555.51647   8882671.36143  23508972.9454   23508970.3014
     -4019.0314
  -7298460.93348  -5670803.40045  22548620.7344   22548616.4304
      2416.1564
   7514359.45048   5837910.96544  23828870.3054   23828864.3204
     -2882.4844
   7066412.80348   5486792.89545  22853276.1484   22853269.0944
     -2515.6564
  -9054353.59049  -7033475.59847  21808383.9384   21808378.6914
      2326.9384
 04  9  3 15 38 30.0000000  0  7G11G14G15G 1G19G22G25
  -7043966.14049  -5471132.37546  21858893.6094   21858887.6094
      1488.2504
   4728295.06349   3675185.18047  21068200.0314   21068194.3674
     -2099.0164
  11491866.26547   8929666.73143  23520450.1484   23520446.4924
     -4022.1874
  -7334666.26148  -5699015.34145  22541731.5554   22541726.8954
      2411.4384
   7557624.45248   5871623.94343  23837103.6644   23837096.9734
     -2885.9694
   7104172.52448   5516216.03445  22860461.6024   22860454.6254
     -2518.7504
  -9089206.14749  -7060633.43146  21801751.6564   21801746.3794
      2320.2194
 04  9  3 15 38 45.0000000  0  7G11G14G15G 1G19G22G25
  -7066231.52649  -5488482.03646  21854656.9534   21854650.5274
      1480.5474
   4759815.26349   3699746.36847  21074197.9614   21074192.2734
     -2103.6094
  11552219.50047   8976695.17843  23531934.5314   23531931.4144
     -4024.8284
  -7370803.48248  -5727174.20645  22534854.9384   22534850.3634
      2406.9534
   7600938.21348   5905374.88443  23845346.0554   23845339.5554
     -2889.0944
   7141974.71349   5545672.26245  22867654.8594   22867648.2734
     -2521.4064
  -9123962.67849  -7087716.44846  21795137.9064   21795132.2504
      2314.0164
 04  9  3 15 39  0.0000000  0  7G11G14G15G 1G19G22G25
  -7088379.44849  -5505740.14846  21850442.2114   21850436.0664
      1472.8444
   4791406.06849   3724362.56247  21080209.7734   21080203.5044
     -2108.2664
  11612613.40647   9023755.30843  23543427.3134   23543424.6174
     -4027.3914
  -7406874.02948  -5755281.12645  22527990.7974   22527986.5514
      2402.7194
   7644298.80548   5939162.30543  23853596.7424   23853590.1374
     -2892.0944
   7179817.86749   5575160.40145  22874856.4534   22874849.8634
     -2524.0474
  -9158624.52549  -7114725.66746  21788541.6954   21788536.5704
      2307.8594
 04  9  3 15 39 15.0000000  0  7G11G14G15G 1G19G22G25
  -7110415.66149  -5522911.22946  21846249.1414   21846242.4224
      1465.1414
   4823061.06649   3749028.78447  21086233.4774   21086227.6484
     -2112.6094
  11673041.61947   9070842.17943  23554926.1174   23554923.1684
     -4029.8284
  -7442883.85348  -5783340.72145  22521138.1954   22521134.1054
      2398.4064
   7687699.74848   5972981.19843  23861856.3444   23861849.4694
     -2894.8444
   7217695.82948   5604675.66445  22882064.9064   22882057.8794
     -2526.5314
  -9193197.32549  -7141665.50646  21781962.7734   21781957.4454
      2301.7344
 04  9  3 15 39 30.0000000  0  7G11G14G15G 1G19G22G25
  -7132337.97649  -5539993.55946  21842077.1174   21842070.8834
      1457.6564
   4854782.25549   3773746.58547  21092269.3984   21092263.3554
     -2116.9224
  11733506.00347   9117957.23743  23566432.4224   23566429.6414
     -4032.1254
  -7478830.73948  -5811351.26745  22514297.8984   22514293.3554
      2394.3594
   7731142.80748   6006832.93843  23870123.2194   23870116.7774
     -2897.5164
   7255610.78648   5634219.78245  22889279.1484   22889272.1024
     -2528.8124
  -9227678.55249  -7168533.99346  21775401.0864   21775395.8554
      2295.7034
 04  9  3 15 39 45.0000000  0  7G11G14G15G 1G19G22G25
  -7154145.55549  -5556986.47846  21837927.3444   21837920.8954
      1449.9224
   4886569.86449   3798516.14347  21098318.7974   21098312.7814
     -2121.4224
  11794006.86247   9165100.70043  23577945.8914   23577942.8914
     -4034.6874
  -7514714.09548  -5839312.31245  22507469.6254   22507465.0044
      2390.0474
   7774628.16948   6040717.58643  23878398.2194   23878392.0394
     -2900.5164
   7293563.20948   5663793.07245  22896501.2814   22896494.4804
     -2531.5164
  -9262067.57549  -7195330.62746  21768857.1174   21768851.6414
      2289.4534
 04  9  3 15 40  0.0000000  0  7G11G14G15G 1G19G22G25
  -7175836.19649  -5573888.27646  21833799.6334   21833793.3674
      1442.0314
   4918425.52249   3823338.71547  21104380.8204   21104374.7854
     -2126.0944
  11854545.73147   9212273.78943  23589465.2814   23589462.6604
     -4037.2814
  -7550531.97948  -5867222.35045  22500652.8054   22500649.0004
      2385.5944
   7818157.24248   6074636.32143  23886681.8364   23886674.6334
     -2903.5474
   7331555.00648   5693397.03645  22903730.9384   22903724.1294
     -2534.2344
  -9296362.21149  -7222053.72347  21762331.2344   21762325.8834
      2283.0634
 04  9  3 15 40 15.0000000  0  7G11G14G15G 1G19G22G25
  -7197412.17049  -5590700.72446  21829694.3134   21829687.8984
      1434.4534
   4950346.82849   3848212.45347  21110455.1174   21110448.7704
     -2130.3594
  11915120.12847   9259474.56443  23600992.6884   23600989.7894
     -4039.5474
  -7586286.46148  -5895082.98045  22493849.9144   22493845.4964
      2381.3914
   7861727.46748   6108587.11143  23894972.9454   23894965.4734
     -2906.1724
   7369583.95048   5723029.96845  22910967.9534   22910961.1134
     -2536.6094
  -9330564.35249  -7248704.73547  21755822.8914   21755818.0554
      2276.9844
 04  9  3 15 40 30.0000000  0  7G11G14G15G 1G19G22G25
  -7218870.96749  -5607421.86946  21825610.3914   21825604.5044
      1426.7194
   4982335.54949   3873138.72147  21116542.0634   21116536.5944
     -2134.7814
  11975731.69748   9306704.31943  23612527.4694   23612523.6564
     -4041.9844
  -7621975.49848  -5922892.61145  22487058.0084   22487053.6334
      2377.1254
   7905340.56148   6142571.32943  23903271.8364   23903265.3204
     -2908.9534
   7407651.97748   5752693.34345  22918211.8674   22918205.0394
     -2539.0944
  -9364671.76849  -7275281.93647  21749332.4454   21749327.1294
      2270.7504
 04  9  3 15 40 45.0000000  0  7G11G14G15G 1G19G22G25
  -7240212.42649  -5624051.57846  21821549.4614   21821543.2894
      1418.8284
   5014391.60249   3898117.44847  21122642.3134   21122636.3554
     -2139.3284
  12036380.29947   9353962.92343  23624068.1954   23624064.8794
     -4044.5314
  -7657598.94748  -5950651.12045  22480279.9064   22480275.1374
      2372.7034
   7948996.11647   6176588.61343  23911579.6174   23911572.8134
     -2911.7664
   7445759.22248   5782387.27345  22925463.8914   22925456.6054
     -2541.8284
  -9398684.10749  -7301785.04747  21742859.9774   21742854.6994
      2264.2974
 04  9  3 15 41  0.0000000  0  7G11G14G15G 1G19G22G25
  -7261435.18948  -5640588.79346  21817510.6954   21817504.6994
      1410.9534
   5046515.65049   3923149.16847  21128755.3134   21128749.9064
     -2143.8124
  12097066.63947   9401250.94343  23635616.1644   23635613.1604
     -4046.9374
  -7693155.64848  -5978357.63745  22473513.0084   22473508.7464
      2368.2974
   7992694.73447   6210639.43343  23919894.8914   23919888.4734
     -2914.5314
   7483906.59548   5812112.47945  22932722.6254   22932716.0044
     -2544.4534
  -9432600.09049  -7328213.09246  21736405.8914   21736400.3634
      2257.9384
 04  9  3 15 41 15.0000000  0  7G11G14G15G 1G19G22G25
  -7282539.85949  -5657033.99146  21813494.9304   21813488.6844
      1402.9534
   5078706.63949   3948233.04647  21134880.9304   21134874.9654
     -2148.3754
  12157789.52447   9448567.41243  23647171.6954   23647167.9104
     -4049.4844
  -7728646.38948  -6006012.75245  22466759.5234   22466755.0314
      2363.7504
   8036435.23147   6244722.89043  23928218.5164   23928212.1134
     -2917.4534
   7522093.25048   5841868.29045  22939989.4384   22939982.5044
     -2547.1564
  -9466420.19249  -7354566.40946  21729970.0864   21729965.0864
      2251.3284
 04  9  3 15 41 30.0000000  0  7G11G14G15G 1G19G22G25
  -7303527.60549  -5673388.07046  21809500.9384   21809494.8284
      1395.5474
   5110963.28449   3973368.07647  21141019.3054   21141013.5594
     -2152.4224
  12218547.59948   9495911.32543  23658732.7734   23658729.9654
     -4051.5164
  -7764072.19248  -6033617.26345  22460017.9844   22460013.7854
      2359.7814
   8080216.09547   6278837.84743  23936549.5234   23936543.4384
     -2919.8754
   7560318.07848   5871653.84645  22947263.4694   22947256.3484
     -2549.4224
  -9500145.28449  -7380845.69146  21723552.3134   21723546.9024
      2245.3594
 04  9  3 15 41 45.0000000  0  7G11G14G15G 1G19G22G25
  -7324399.77849  -5689652.11546  21805528.9454   21805522.4844
      1387.5474
   5143283.50749   3998552.66147  21147169.7974   21147163.6764
     -2156.9224
  12279338.76848   9543281.03743  23670302.2034   23670297.5354
     -4053.9694
  -7799434.79848  -6061172.52945  22453288.6484   22453284.3524
      2355.3134
   8124035.13747   6312982.53643  23944887.9694   23944882.1804
     -2922.6724
   7598579.30248   5901467.77145  22954544.1414   22954537.7774
     -2552.1414
  -9533776.83549  -7407052.09646  21717152.4384   21717147.9694
      2238.8594
 04  9  3 15 42  0.0000000  0  7G11G14G15G 1G19G22G25
  -7345154.52449  -5705824.63646  21801579.3134   21801573.1804
      1379.4844
   5175668.97449   4023788.07747  21153332.5004   21153326.7974
     -2161.4224
  12340164.52948   9590677.68743  23681875.9844   23681872.3524
     -4056.3594
  -7834732.29348  -6088677.06145  22446572.1564   22446567.5204
      2350.8284
   8167893.77247   6347158.04243  23953234.1804   23953227.8204
     -2925.4374
   7636878.65448   5931311.38745  22961832.5784   22961825.6724
     -2554.7034
  -9567312.90149  -7433184.08446  21710770.8674   21710765.6994
      2232.3754
 04  9  3 15 42 15.0000000  0  7G11G14G15G 1G19G22G25
  -7365790.08749  -5721904.30546  21797652.7424   21797646.5274
      1371.8444
   5208120.95149   4049075.31947  21159507.5634   21159501.8014
     -2165.5944
  12401026.21747   9638102.31843  23693457.7974   23693454.4024
     -4058.5164
  -7869963.09248  -6116129.61845  22439867.8364   22439863.4224
      2346.5784
   8211793.15747   6381365.33943  23961587.7814   23961582.0354
     -2927.8444
   7675217.70049   5961185.96145  22969128.2344   22969120.8914
     -2557.1724
  -9600751.63949  -7459240.24347  21704407.8914   21704402.5084
      2226.1254
 04  9  3 15 42 30.0000000  0  7G11G14G15G 1G19G22G25
  -7386306.49149  -5737891.10946  21793748.5704   21793742.0944
      1363.8444
   5240638.81449   4074413.89847  21165695.9064   21165690.0044
     -2170.0474
  12461923.08248   9685554.38043  23705046.3674   23705042.7154
     -4060.9534
  -7905127.38848  -6143530.35745  22433175.9304   22433171.7074
      2341.9534
   8255732.61847   6415603.82643  23969950.0234   23969943.3094
     -2930.6564
   7713596.06048   5991091.15245  22976431.1174   22976424.6564
     -2559.9224
  -9634093.07449  -7485220.57246  21698062.9144   21698057.6914
      2219.4694
 04  9  3 15 42 45.0000000  0  7G11G14G15G 1G19G22G25
  -7406702.85349  -5753784.38646  21789867.1174   21789860.9384
      1355.8134
   5273223.07849   4099804.23847  21171896.6484   21171890.7934
     -2174.3754
  12522855.63648   9733034.24643  23716640.8054   23716637.7544
     -4063.2194
  -7940224.51648  -6170878.75445  22426497.3674   22426493.0474
      2337.6884
   8299712.46347   6449873.83243  23978318.7734   23978312.1174
     -2933.1564
   7752014.45348   6021027.54145  22983741.9774   22983735.2074
     -2562.4374
  -9667336.12049  -7511124.24147  21691737.0234   21691732.2154
      2213.0004
 04  9  3 15 43  0.0000000  0  7G11G14G15G 1G19G22G25
  -7426981.76349  -5769586.13446  21786008.6484   21786002.4064
      1347.8754
   5305870.74049   4125243.95047  21178109.2504   21178103.1174
     -2178.7974
  12583820.82648   9780539.57243  23728242.3594   23728239.6134
     -4065.5784
  -7975257.09249  -6198176.86145  22419830.9144   22419826.5314
      2333.1884
   8343729.50447   6484172.76243  23986694.7974   23986688.9614
     -2935.7504
   7790469.98348   6050992.85945  22991059.7664   22991053.0824
     -2565.0784
  -9700483.28149  -7536953.19447  21685429.6094   21685424.1884
      2206.4384
 04  9  3 15 43 15.0000000  0  7G11G14G15G 1G19G22G25
  -7447140.79749  -5785294.48146  21782172.1954   21782165.8874
      1339.9534
   5338583.77849   4150734.62347  21184334.3284   21184328.0664
     -2183.0784
  12644820.60047   9828071.80342  23739850.1094   23739847.4494
     -4067.8594
  -8010222.81948  -6225422.87145  22413176.9844   22413173.0164
      2328.7974
   8387785.58247   6518502.13643  23995078.0784   23995072.2114
     -2938.4374
   7828964.91549   6080988.87845  22998385.0554   22998378.7344
     -2567.6724
  -9733532.15449  -7562705.55547  21679140.4614   21679135.2384
      2199.9844
 04  9  3 15 43 30.0000000  0  7G11G14G15G 1G19G22G25
  -7467180.78749  -5800910.05946  21778358.8134   21778352.5984
      1332.0634
   5371361.00749   4176275.31447  21190571.6174   21190565.2974
     -2187.1874
  12705853.53847   9875629.87643  23751464.4694   23751462.0634
     -4069.8754
  -8045122.59849  -6252617.50245  22406536.1024   22406531.5704
      2324.4844
   8431879.35447   6552860.89043  24003468.7504   24003462.8834
     -2940.8284
   7867498.28648   6111014.87045  23005717.8754   23005711.5164
     -2570.1874
  -9766483.36949  -7588381.82447  21672869.9774   21672864.6764
      2193.5004
 04  9  3 15 43 45.0000000  0  7G11G14G15G 1G19G22G25
  -7487103.52349  -5816434.26446  21774567.6094   21774561.4924
      1323.9534
   5404200.04949   4201864.16347  21196820.6024   21196814.3134
     -2191.6874
  12766917.39648   9923212.07643  23763085.1024   23763081.6764
     -4072.3124
  -8079958.41249  -6279762.27645  22399906.8444   22399902.2544
      2319.8754
   8476008.32547   6587247.07842  24011865.7114   24011860.4454
     -2943.5004
   7906068.02249   6141069.17545  23013057.2584   23013050.9454
     -2572.8754
  -9799338.65649  -7613983.33347  21666617.6724   21666612.5904
      2186.8284
 04  9  3 15 44  0.0000000  0  7G11G14G15G 1G19G22G25
  -7506904.41649  -5831863.54246  21770799.7814   21770793.9534
      1316.0004
   5437105.07349   4227504.43647  21203082.4454   21203075.8984
     -2195.8754
  12828016.15948   9970821.46442  23774711.1884   23774707.6174
     -4074.4064
  -8114725.83749  -6306853.77145  22393290.5704   22393286.3014
      2315.5474
   8520176.51647   6621663.80943  24020271.0314   24020265.6994
     -2945.8124
   7944678.48648   6171155.23245  23020404.9144   23020398.3834
     -2575.3754
  -9832093.43949  -7639506.53447  21660385.1644   21660380.1134
      2180.3444
 04  9  3 15 44 15.0000000  0  7G11G14G15G 1G19G22G25
  -7526584.90449  -5847198.98546  21767054.5944   21767048.1054
      1308.0784
   5470074.28049   4253194.71047  21209356.1094   21209349.8204
     -2199.9844
  12889147.90248  10018456.55443  23786344.8054   23786341.7424
     -4076.4064
  -8149426.41049  -6333893.18145  22386687.9774   22386683.1914
      2311.2504
   8564381.85047   6656109.49643  24028684.0394   24028676.9924
     -2948.1564
   7983327.94848   6201271.66145  23027759.6484   23027753.2234
     -2577.8284
  -9864749.17949  -7664952.56047  21654170.8444   21654165.6764
      2173.8134
 04  9  3 15 44 30.0000000  0  7G11G14G15G 1G19G22G25
  -7546144.13149  -5862439.94646  21763332.6804   21763326.2704
      1299.8444
   5503108.17049   4278935.38647  21215642.3364   21215636.1994
     -2204.4694
  12950313.09348  10066117.70643  23797984.2424   23797981.1564
     -4078.9064
  -8184059.40249  -6360879.90745  22380097.2344   22380092.7114
      2306.5164
   8608624.68047   6690584.41043  24037102.7034   24037097.0044
     -2950.8284
   8022017.10448   6231419.04745  23035121.9304   23035115.0664
     -2580.6254
  -9897304.85649  -7690320.62147  21647975.6884   21647970.4024
      2166.9844
 04  9  3 15 44 45.0000000  0  7G11G14G15G 1G19G22G25
  -7565582.57849  -5877586.79146  21759633.4844   21759627.1804
      1291.7664
   5536205.78549   4304725.73347  21221940.5704   21221934.3524
     -2208.6874
  13011510.60848  10113804.02343  23809629.1954   23809626.5234
     -4080.9694
  -8218625.46148  -6387814.49645  22373519.2344   22373515.1374
      2302.1414
   8652903.95047   6725087.67843  24045528.8054   24045523.0004
     -2953.1564
   8060745.21348   6261596.77145  23042491.5084   23042484.7504
     -2583.2344
  -9929760.90649  -7715611.04347  21641799.2034   21641794.2194
      2160.3754
 04  9  3 15 45  0.0000000  0  7G11G14G15G 1G19G22G25
  -7584900.93949  -5892640.06646  21755957.4224   21755950.8094
      1283.7344
   5569366.07849   4330564.90447  21228250.6254   21228244.5944
     -2212.9224
  13072739.44348  10161514.79242  23821280.5084   23821278.2424
     -4083.0944
  -8253125.27348  -6414697.45545  22366954.3674   22366949.9304
      2297.6414
   8697218.40247   6759618.41643  24053962.1414   24053955.3404
     -2955.6874
   8099511.42348   6291804.18945  23049868.5784   23049862.4924
     -2585.8284
  -9962117.88349  -7740824.26147  21635641.8134   21635637.0124
      2153.6254
 04  9  3 15 45 15.0000000  0  7G11G14G15G 1G19G22G25
  -7604098.20049  -5907598.96846  21752304.2734   21752297.8954
      1275.8594
   5602589.60649   4356453.36247  21234572.9614   21234566.8914
     -2216.9374
  13134000.07348  10209250.27643  23832938.8674   23832935.5394
     -4085.0784
  -8287557.99648  -6441528.14145  22360401.9384   22360397.3404
      2293.3284
   8741568.33447   6794176.77343  24062401.3284   24062395.5784
     -2957.7504
   8138316.48649   6322041.85045  23057252.9694   23057246.7344
     -2588.2034
  -9994374.77249  -7765959.49347  21629503.6954   21629498.4224
      2147.1724
 04  9  3 15 45 30.0000000  0  7G11G14G15G 1G19G22G25
  -7623175.63849  -5922464.49946  21748673.8914   21748667.5434
      1267.9694
   5635874.53549   4382389.65747  21240906.7584   21240900.7504
     -2220.9374
  13195290.60648  10257009.10243  23844601.4064   23844598.7154
     -4086.9374
  -8321925.05748  -6468307.65445  22353861.9694   22353857.7304
      2289.0314
   8785952.06647   6828761.44543  24070846.9694   24070841.0164
     -2959.9374
   8177158.91348   6352308.65845  23064644.5864   23064637.6884
     -2590.6094
 -10026532.77749  -7791017.67347  21623384.4064   21623378.9534
      2140.6414
 04  9  3 15 45 45.0000000  0  7G11G14G15G 1G19G22G25
  -7642134.63649  -5937237.74246  21745066.1954   21745059.9574
      1259.9224
   5669219.16349   4408372.47847  21247252.0944   21247246.3364
     -2225.0314
  13256609.43847  10304789.97342  23856270.8754   23856267.1334
     -4088.9224
  -8356227.86548  -6495037.11845  22347334.6024   22347330.1334
      2284.6564
   8830367.50747   6863370.87043  24079298.6024   24079292.8404
     -2962.1254
   8216037.20149   6382603.41345  23072042.8364   23072035.8284
     -2593.1874
 -10058593.14949  -7815999.77347  21617283.5004   21617278.0984
      2134.0944
 04  9  3 15 46  0.0000000  0  7G11G14G15G 1G19G22G25
  -7660971.12049  -5951915.52746  21741481.7504   21741475.8284
      1251.6724
   5702627.08849   4434404.61347  21253609.8284   21253603.5664
     -2229.2814
  13317959.88847  10352595.46243  23867944.8204   23867941.9694
     -4091.0784
  -8390462.67148  -6521713.57845  22340819.8134   22340815.7304
      2280.0474
   8874818.08647   6898007.66143  24087757.7424   24087751.6024
     -2964.5784
   8254955.05949   6412928.98145  23079448.6564   23079442.1414
     -2595.7974
 -10090551.89049  -7840902.68647  21611202.0234   21611196.6564
      2127.1724
 04  9  3 15 46 15.0000000  0  7G11G14G15G 1G19G22G25
  -7679683.43249  -5966496.54546  21737921.0314   21737914.9264
      1243.5944
   5736099.66449   4460487.12647  21259979.3204   21259973.0474
     -2233.4064
  13379343.27647  10400426.60842  23879625.7814   23879623.0394
     -4093.0004
  -8424627.74748  -6548335.70445  22334318.2034   22334314.3164
      2275.6414
   8919305.08247   6932672.81643  24096224.3594   24096217.6724
     -2966.6724
   8293914.05749   6443286.62445  23086862.4384   23086855.3444
     -2598.3754
 -10122407.14049  -7865724.94547  21605139.7194   21605134.8094
      2120.5634
 04  9  3 15 46 30.0000000  0  7G11G14G15G 1G19G22G25
  -7698276.23549  -5980984.45646  21734382.9924   21734376.1524
      1235.3444
   5769631.92449   4486616.15247  21266360.2734   21266354.0904
     -2237.5314
  13440754.58647  10448279.54342  23891312.3754   23891309.4774
     -4095.1254
  -8458727.77148  -6574907.14545  22327829.5084   22327824.8484
      2271.0164
   8963823.29647   6967362.28443  24104694.9144   24104688.7664
     -2969.0314
   8332909.44349   6473672.62745  23094283.1484   23094276.2424
     -2601.0004
 -10154163.30249  -7890469.99447  21599097.0234   21599091.8634
      2113.6094
 04  9  3 15 46 45.0000000  0  7G11G14G15G 1G19G22G25
  -7716745.43649  -5995376.04346  21730868.6564   21730862.2704
      1227.0164
   5803227.16349   4512794.24647  21272753.0784   21272747.1024
     -2241.9224
  13502197.22947  10496156.89242  23903004.2584   23903001.4964
     -4097.3444
  -8492759.03648  -6601424.99945  22321353.6804   22321349.3914
      2266.3284
   9008376.07347   7002078.70443  24113172.9534   24113167.2234
     -2971.4694
   8371944.78649   6504089.74345  23101711.4614   23101704.7114
     -2603.7814
 -10185816.50249  -7915134.82547  21593073.7584   21593068.4694
      2106.5944
 04  9  3 15 47  0.0000000  0  7G11G14G15G 1G19G22G25
  -7735089.71249  -6009670.28946  21727377.5944   21727371.1094
      1218.7504
   5836886.39549   4539022.21647  21279158.3524   21279152.5354
     -2246.0944
  13563671.93047  10544059.23342  23914703.0634   23914699.9734
     -4099.4064
  -8526720.32148  -6627888.33945  22314891.0164   22314886.5084
      2261.7344
   9052964.07547   7036822.56043  24121658.2734   24121652.4144
     -2973.8444
   8411021.23649   6534538.90345  23109147.3914   23109141.2074
     -2606.5004
 -10217365.33649  -7939718.32047  21587070.1484   21587064.9964
      2099.7814
 04  9  3 15 47 15.0000000  0  7G11G14G15G 1G19G22G25
  -7753311.54449  -6023869.11646  21723909.9224   21723903.8484
      1210.8444
   5870606.74649   4565297.79747  21285575.1174   21285568.8834
     -2249.8754
  13625175.86647  10591984.29442  23926406.9064   23926403.8634
     -4101.1254
  -8560614.15548  -6654299.10645  22308441.1724   22308436.5204
      2257.4844
   9097584.29847   7071591.54643  24130149.0634   24130142.5704
     -2975.5784
   8450136.18549   6565018.04545  23116590.5004   23116584.1414
     -2608.8124
 -10248812.22649  -7964222.38247  21581085.8754   21581080.4844
      2093.2194
 04  9  3 15 47 30.0000000  0  7G11G14G15G 1G19G22G25
  -7771409.33549  -6037971.30447  21720466.3364   21720460.0704
      1202.3284
   5904389.44149   4591621.95447  21292003.7344   21291997.4304
     -2254.2814
  13686710.07947  10639932.96542  23938116.2274   23938113.7424
     -4103.3284
  -8594439.14648  -6680656.24745  22302004.3364   22301999.8594
      2252.6564
   9142237.80447   7106386.43643  24138645.7974   24138640.5314
     -2978.0624
   8489290.96149   6595528.24545  23124041.5394   23124034.5984
     -2611.7344
 -10280155.51749  -7988645.72347  21575121.4534   21575116.2504
      2086.0634
 04  9  3 15 47 45.0000000  0  7G11G14G15G 1G19G22G25
  -7789384.61249  -6051978.00746  21717045.6254   21717039.1174
      1194.3444
   5938232.69249   4617993.31247  21298443.4614   21298437.4024
     -2258.1874
  13748272.82547  10687903.89043  23949831.7114   23949828.4534
     -4105.0474
  -8628196.73748  -6706960.84545  22295580.8134   22295575.8284
      2248.3754
   9186922.67647   7141205.79543  24147149.3834   24147143.8364
     -2979.9534
   8528484.13348   6626068.34245  23131499.5634   23131493.5234
     -2614.0624
 -10311396.44449  -8012989.30047  21569176.6724   21569171.1884
      2079.4064
 04  9  3 15 48  0.0000000  0  7G11G14G15G 1G19G22G25
  -7807236.77649  -6065888.79246  21713648.4144   21713642.0004
      1185.8594
   5972136.51649   4644411.86647  21304895.5394   21304889.4574
     -2262.4844
  13809863.87447  10735896.87443  23961551.0864   23961548.6094
     -4107.2344
  -8661886.67948  -6733212.73745  22289169.5554   22289165.1604
      2243.5164
   9231638.67647   7176049.41143  24155658.4924   24155653.1844
     -2982.3124
   8567715.71748   6656638.37044  23138964.7194   23138958.7114
     -2616.8444
 -10342534.53949  -8037252.74647  21563250.8914   21563245.7194
      2072.2344
 04  9  3 15 48 15.0000000  0  7G11G14G15G 1G19G22G25
  -7824963.34149  -6079701.70046  21710275.1954   21710269.2154
      1177.8444
   6006102.88649   4670879.15747  21311359.0234   21311353.2034
     -2266.2034
  13871485.25747  10783913.46542  23973277.3284   23973275.1724
     -4108.7504
  -8695506.57548  -6759410.04345  22282772.0314   22282767.6254
      2239.3134
   9276387.82347   7210918.83843  24164173.7814   24164168.0004
     -2983.9694
   8606988.05648   6687240.16944  23146438.4534   23146431.5514
     -2619.2034
 -10373567.20949  -8061434.03647  21557345.6884   21557340.3054
      2065.5784
 04  9  3 15 48 30.0000000  0  7G11G14G15G 1G19G22G25
  -7842567.58649  -6093419.29546  21706924.9064   21706918.8404
      1169.5004
   6040128.24649   4697392.40347  21317833.8444   21317828.0704
     -2270.4064
  13933133.23047  10831950.78342  23985008.8984   23985006.9384
     -4110.6724
  -8729059.73948  -6785555.36645  22276386.9694   22276382.5274
      2234.5634
   9321166.31346   7245811.13243  24172695.3594   24172689.2504
     -2986.1254
   8646297.76148   6717871.08544  23153918.7344   23153912.1684
     -2621.9844
 -10404497.59949  -8085535.62547  21551459.9304   21551454.7584
      2058.5634
 04  9  3 15 48 45.0000000  0  6G11G14G15G 1G22G25
  -7860048.88549  -6107041.09246  21703598.7424   21703591.9694
      1161.4384
   6074212.92649   4723951.88647  21324320.0474   21324313.9064
     -2274.2194
  13994808.19747  10880009.14342  23996745.6174   23996742.9804
     -4112.4844
  -8762545.58348  -6811648.21745  22270014.6484   22270010.7234
      2230.2664
   8685645.39749   6748531.54844  23161406.7114   23161399.7074
     -2624.3594
 -10435324.93349  -8109556.92147  21545593.8364   21545588.3324
      2051.8284
 04  9  3 15 49  0.0000000  0  6G11G14G15G 1G22G25
  -7877405.17149  -6120565.47946  21700295.8204   21700289.6374
      1153.0164
   6108358.47549   4750558.79547  21330817.8054   21330811.7424
     -2278.3444
  14056511.59247  10928089.67842  24008487.5164   24008484.1644
     -4114.3914
  -8795962.24849  -6837687.16745  22263655.7344   22263651.7074
      2225.5314
   8725032.55149   6779222.81845  23168901.8524   23168895.1884
     -2627.0164
 -10466047.19749  -8133496.34047  21539747.4224   21539742.4534
      2044.7814
 04  9  3 15 49 15.0000000  0  6G11G14G15G 1G22G25
  -7894637.00749  -6133992.88546  21697016.6484   21697010.5394
      1144.6564
   6142563.86849   4777212.33847  21337326.9144   21337320.7464
     -2282.3124
  14118242.38947  10976191.54542  24020234.7814   24020231.5394
     -4116.2814
  -8829310.37049  -6863672.72346  22257310.2194   22257305.2154
      2220.9064
   8764458.64948   6809944.42645  23176404.3524   23176397.9184
     -2629.6874
 -10496664.89349  -8157354.27547  21533921.2034   21533915.8524
      2037.7034
 04  9  3 15 49 30.0000000  0  6G11G14G15G 1G22G25
  -7911745.26649  -6147323.99746  21693761.2734   21693754.4574
      1136.2974
   6176827.88349   4803911.55747  21343847.0164   21343840.7504
     -2286.3444
  14179999.10647  11024313.59542  24031986.1724   24031983.8984
     -4118.0784
  -8862591.06549  -6889605.71045  22250976.6484   22250972.1174
      2216.3594
   8803922.35848   6840695.32744  23183913.6954   23183907.4304
     -2632.2504
 -10527178.92449  -8181131.43647  21528114.4614   21528109.3714
      2030.6564
 04  9  3 15 49 45.0000000  0  5G11G14G 1G22G25
  -7928727.45849  -6160556.88146  21690529.7424   21690522.8524
      1127.8914
   6211152.49849   4830658.00147  21350378.9774   21350372.7544
     -2290.3284
  -8895801.90049  -6915484.26945  22244656.9694   22244652.1954
      2211.7344
   8843426.11248   6871477.44044  23191431.3524   23191425.1484
     -2634.8754
 -10557586.59949  -8204825.71347  21522328.0704   21522322.6764
      2023.5784
 04  9  3 15 50  0.0000000  0  5G11G14G 1G22G25
  -7945584.63549  -6173692.33746  21687321.6174   21687314.9184
      1119.5784
   6245536.40549   4857450.64447  21356921.9144   21356915.9654
     -2294.2814
  -8928944.01649  -6941309.27845  22238349.9064   22238345.2424
      2207.1094
   8882968.63648   6902289.74444  23198956.1724   23198949.6684
     -2637.4534
 -10587888.94249  -8228437.91947  21516561.5314   21516556.3404
      2016.6094
 04  9  3 15 50 15.0000000  0  5G11G14G 1G22G25
  -7962315.19549  -6186729.14946  21684138.1644   21684131.8094
      1111.2034
   6279980.78249   4884290.40247  21363476.4694   21363470.5234
     -2298.2504
  -8962015.85949  -6967079.55045  22232056.6414   22232052.2664
      2202.5314
   8922551.50048   6933133.52344  23206488.7034   23206481.5314
     -2640.1874
 -10618084.20349  -8251966.69047  21510815.8674   21510810.0084
      2009.5314
 04  9  3 15 50 30.0000000  0  5G11G14G 1G22G25
  -7978921.28249  -6199668.95447  21680977.9064   21680971.7194
      1102.9064
   6314483.10149   4911175.31747  21370042.2664   21370036.3524
     -2302.1094
  -8995019.73649  -6992796.84145  22225776.2974   22225771.7274
      2197.9534
   8962172.17748   6964006.75444  23214028.6954   23214020.7034
     -2642.7034
 -10648174.49649  -8275413.65747  21505089.6024   21505084.4534
      2002.4064
 04  9  3 15 50 45.0000000  0  5G11G14G 1G22G25
  -7995399.59349  -6212509.20146  21677842.1024   21677835.7774
      1094.3754
   6349046.20949   4938107.59947  21376619.0864   21376613.6684
     -2306.1414
  -9027952.45749  -7018458.69145  22219509.5314   22219504.5004
      2193.2194
   9001833.88849   6994911.95844  23221575.8674   23221568.7664
     -2645.3914
 -10678156.42049  -8298776.18447  21499384.3914   21499378.6994
      1995.2974
 04  9  3 15 51  0.0000000  0  5G11G14G 1G22G25
  -8011750.75649  -6225250.37246  21674730.7734   21674724.4844
      1085.8284
   6383669.21649   4965086.56247  21383207.6254   21383201.5044
     -2310.2194
  -9060814.76449  -7044065.67745  22213256.0704   22213251.0944
      2188.4694
   9041535.75048   7025848.45844  23229130.3364   23229123.6764
     -2648.1564
 -10708030.50049  -8322054.69247  21493699.2504   21493693.9774
      1988.0314
 04  9  3 15 51 15.0000000  0  5G11G14G 1G22G25
  -8027977.79149  -6237894.81447  21671642.9304   21671636.6294
      1077.5944
   6418348.58449   4992109.43147  21389806.9844   21389800.5864
     -2313.8914
  -9093609.74249  -7069620.18945  22207015.3984   22207010.8284
      2183.9224
   9081274.62148   7056813.78144  23236692.4694   23236686.3054
     -2650.6254
 -10737799.67849  -8345251.43347  21488034.4304   21488029.1334
      1981.0164
 04  9  3 15 51 30.0000000  0  5G11G14G 1G22G25
  -8044078.12449  -6250440.53747  21668578.9694   21668572.4694
      1069.3134
   6453086.48949   5019177.92147  21396417.0634   21396411.2274
     -2317.6414
  -9126335.06249  -7095120.44345  22200787.6484   22200783.4304
      2179.5004
   9121052.78049   7087809.72144  23244261.9144   23244256.0314
     -2653.0314
 -10767461.43849  -8368364.49347  21482390.1174   21482385.0044
      1974.0634
 04  9  3 15 51 45.0000000  0  6G20G11G14G 1G22G25
   -120365.79357    -81398.37752  24190694.8054   24190689.1644
      2827.4064
  -8060055.29549  -6262890.28046  21665538.8204   21665532.0434
      1061.1094
   6487879.03149   5046288.97647  21403038.4304   21403032.1914
     -2321.2194
  -9158994.35149  -7120569.20645  22194573.3284   22194568.4024
      2175.1884
   9160866.53948   7118833.38844  23251837.9224   23251832.5904
     -2655.3754
 -10797019.12549  -8391396.43847  21476765.5864   21476760.2384
      1967.1564
 04  9  3 15 52  0.0000000  0  6G20G11G14G 1G22G25
   -162774.36447   -114444.00642  24182624.8674   24182619.3754
      2827.1254
  -8075906.94949  -6275242.22347  21662522.0864   21662515.6764
      1052.5314
   6522728.15649   5073444.13147  21409669.6564   21409663.9574
     -2325.1874
  -9191585.23849  -7145964.71345  22188371.0784   22188366.3444
      2170.3754
   9200718.04548   7149886.47344  23259421.9694   23259415.9414
     -2658.0784
 -10826470.30849  -8414345.41147  21471161.1414   21471155.7424
      1959.8134
 04  9  3 15 52 15.0000000  0  6G20G11G14G 1G22G25
   -205180.50947   -147487.72442  24174554.8444   24174549.6254
      2826.7974
  -8091631.88449  -6287495.42247  21659529.8054   21659523.7274
      1043.8444
   6557634.64649   5100643.99147  21416312.2114   21416306.3834
     -2329.2194
  -9224106.64349  -7171306.05845  22182182.2194   22182177.6954
      2165.5634
   9240608.36948   7180969.81044  23267012.7424   23267006.4144
     -2660.8914
 -10855813.73949  -8437210.41547  21465577.0004   21465571.9264
      1952.4534
 04  9  3 15 52 30.0000000  0  6G20G11G14G 1G22G25
   -247584.18247   -180529.56342  24166485.8444   24166480.5394
      2826.9534
  -8107229.89649  -6299649.72346  21656561.2814   21656554.6174
      1035.7344
   6592598.26749   5127888.35247  21422966.0164   21422959.3914
     -2332.6874
  -9256558.63549  -7196593.32245  22176007.1024   22176002.3594
      2161.2814
   9280537.39749   7212083.30644  23274611.3444   23274604.3484
     -2663.1094
 -10885049.24549  -8459991.33247  21460014.0314   21460008.5944
      1945.5944
 04  9  3 15 52 45.0000000  0  6G20G11G14G 1G22G25
   -289986.08647   -213569.96742  24158416.8134   24158411.9844
      2826.5944
  -8122701.76749  -6311705.72847  21653617.1884   21653611.0824
      1027.0944
   6627618.09249   5155176.53147  21429629.6024   21429623.4654
     -2336.6414
  -9288941.90649  -7221827.02346  22169844.8204   22169840.5394
      2156.4064
   9320504.26949   7243226.30944  23282216.1724   23282209.8874
     -2665.8444
 -10914177.49549  -8482688.64147  21454470.6884   21454465.1094
      1938.2034
 04  9  3 15 53  0.0000000  0  6G20G11G14G 1G22G25
   -332385.57847   -246608.51942  24150348.6564   24150343.3954
      2826.3914
  -8138046.88549  -6323662.96247  21650696.9534   21650691.0314
      1018.6414
   6662694.22749   5182508.56047  21436304.4774   21436298.3134
     -2340.3444
  -9321256.07349  -7247006.89145  22163695.7814   22163691.2034
      2151.8594
   9360509.34949   7274399.06944  23289829.2114   23289822.8634
     -2668.3754
 -10943197.82949  -8505301.88747  21448948.7274   21448943.1994
      1930.8914
 04  9  3 15 53 15.0000000  0  6G20G11G14G 1G22G25
   -374781.78647   -279644.50142  24142280.6644   24142275.6294
      2826.3594
  -8153264.24349  -6335520.64847  21647801.5004   21647795.6604
      1010.2034
   6697827.26749   5209884.95247  21442990.1564   21442984.2704
     -2344.1414
  -9353500.13849  -7272132.12845  22157559.8984   22157555.4774
      2147.2504
   9400553.53348   7305602.29144  23297449.4844   23297443.0274
     -2670.9064
 -10972108.95849  -8527830.03647  21443446.9384   21443441.5434
      1923.7664
 04  9  3 15 53 30.0000000  0  6G20G11G14G 1G22G25
   -417175.25047   -312678.38542  24134213.6884   24134208.3634
      2826.1724
  -8168354.37449  -6347279.19747  21644929.9304   21644923.4964
      1001.8754
   6733016.25849   5237304.93247  21449686.0784   21449680.3164
     -2347.7504
  -9385674.86449  -7297203.32946  22151436.9144   22151432.9104
      2142.6884
   9440636.01348   7336835.34944  23305076.9384   23305070.3714
     -2673.4064
 -11000911.35349  -8550273.45147  21437966.0314   21437960.9184
      1916.5784
 04  9  3 15 53 45.0000000  0  6G20G11G14G 1G22G25
   -459566.34347   -345710.37343  24126146.2974   24126141.6604
      2826.0634
  -8183317.53049  -6358938.81047  21642082.4454   21642076.3484
       993.3134
   6768260.64849   5264768.09047  21456393.0164   21456386.8244
     -2351.4534
  -9417780.53249  -7322220.72045  22145327.6024   22145323.2304
      2138.0944
   9480756.44349   7368097.98944  23312711.6884   23312705.1524
     -2675.8914
 -11029605.18149  -8572632.26647  21432505.6414   21432499.8014
      1909.3754
 04  9  3 15 54  0.0000000  0  6G20G11G14G 1G22G25
   -501956.93847   -378741.98742  24118080.1644   24118074.7274
      2825.9694
  -8198155.46049  -6370500.83747  21639259.0234   21639252.7304
       984.9064
   6803558.12649   5292272.60147  21463109.8134   21463103.9964
     -2354.9844
  -9449819.07649  -7347185.81246  22139230.6024   22139226.2854
      2133.6254
   9520912.70148   7399388.55544  23320353.2974   23320347.5864
     -2678.3594
 -11058192.36249  -8594907.98847  21427065.5314   21427060.0274
      1902.1884
 04  9  3 15 54 15.0000000  0  6G20G11G14G 1G22G25
   -544345.66046   -411772.11842  24110013.5704   24110008.8954
      2825.6094
  -8212866.82349  -6381964.24646  21636459.5234   21636452.8204
       976.3284
   6838909.79349   5319819.34247  21469837.1884   21469830.9734
     -2358.8444
  -9481789.19449  -7372097.59745  22133147.0314   22133142.6334
      2128.8594
   9561106.07848   7430708.02144  23328001.8984   23327995.6884
     -2681.0164
 -11086671.47149  -8617099.49647  21421646.3914   21421641.0164
      1894.8134
 04  9  3 15 54 30.0000000  0  6G20G11G14G 1G22G25
   -586732.04346   -444800.46242  24101947.9304   24101942.7624
      2825.4224
  -8227451.07849  -6393328.60046  21633684.4844   21633677.9104
       967.8284
   6874315.73249   5347408.37347  21476574.7424   21476568.9884
     -2362.4694
  -9513690.51649  -7396955.76246  22127076.4454   22127072.2304
      2124.1724
   9601336.81548   7462056.61744  23335657.5394   23335651.3834
     -2683.5624
 -11115041.78549  -8639206.23847  21416247.8444   21416242.7504
      1887.4534
 04  9  3 15 54 45.0000000  0  6G20G11G14G 1G22G25
   -629112.71947   -477824.36242  24093883.0234   24093878.1134
      2825.0784
  -8241904.86149  -6404591.28947  21630933.7814   21630927.5944
       959.1254
   6909778.92749   5375042.02847  21483323.0314   21483317.1954
     -2366.2034
  -9545519.67749  -7421757.69345  22121019.2504   22121014.8754
      2119.4694
   9641608.17148   7493436.86244  23343320.7034   23343314.0634
     -2686.2344
 -11143299.86949  -8661225.50547  21410870.2424   21410864.9414
      1880.1254
 04  9  3 15 55  0.0000000  0  6G20G11G14G 1G22G25
   -671489.10646   -510844.92242  24085819.2114   24085814.1604
      2824.8914
  -8256229.51249  -6415753.35847  21628207.8524   21628201.5004
       950.5784
   6945297.90349   5402719.13947  21490082.3594   21490076.2304
     -2369.8124
  -9577278.11449  -7446504.51845  22114976.2274   22114971.6024
      2114.8444
   9681918.65949   7524847.61344  23350991.7734   23350985.4534
     -2688.7034
 -11171446.94249  -8683158.28647  21405514.3204   21405508.8444
      1872.6884
 04  9  3 15 55 15.0000000  0  6G20G11G14G 1G22G25
   -713862.79146   -543863.33342  24077755.9774   24077750.6094
      2824.9534
  -8270426.38049  -6426815.85347  21625506.4534   21625500.0514
       942.2664
   6980870.76749   5430438.23747  21496851.1954   21496845.6454
     -2373.2034
  -9608967.43649  -7471197.48346  22108945.7664   22108941.4694
      2110.4844
   9722266.59248   7556287.52944  23358669.8524   23358663.1094
     -2690.9374
 -11199484.37149  -8705005.62947  21400178.7274   21400173.4884
      1865.5944
 04  9  3 15 55 30.0000000  0  6G20G11G14G 1G22G25
   -756234.44247   -576880.23342  24069692.6254   24069687.6844
      2824.6254
  -8284496.32049  -6437779.45847  21622828.9144   21622822.5124
       933.7504
   7016496.33449   5458198.41447  21503630.9304   21503624.7704
     -2376.8444
  -9640588.46849  -7495837.25446  22102928.7034   22102924.1764
      2105.7814
   9762651.07748   7587755.91644  23366354.5164   23366347.7624
     -2693.4534
 -11227412.73649  -8726767.99347  21394864.2974   21394859.1954
      1858.2034
 04  9  3 15 55 45.0000000  0  6G20G11G14G 1G22G25
   -798598.41246   -609891.07142  24061631.0864   24061626.0234
      2823.9384
  -8298433.49549  -6448639.59947  21620177.1484   21620170.6684
       924.5944
   7052179.94849   5486003.80347  21510421.1254   21510415.0554
     -2380.8594
  -9672135.56349  -7520419.39346  22096925.3364   22096920.7504
      2100.5784
   9803077.70948   7619257.16344  23374047.7894   23374041.1334
     -2696.5474
 -11255226.40149  -8748440.97647  21389571.2424   21389566.2464
      1850.3754
 04  9  3 15 56  0.0000000  0  6G20G11G14G 1G22G25
   -840957.10746   -642897.84642  24053570.3984   24053565.1884
      2823.6884
  -8312240.26849  -6459398.13446  21617549.4534   21617543.1954
       916.1414
   7087918.95349   5513852.37747  21517222.2194   21517216.3364
     -2384.4534
  -9703611.15549  -7544945.81946  22090935.4454   22090931.2774
      2096.0634
   9843544.03148   7650789.32145  23381747.9064   23381741.7034
     -2699.0784
 -11282927.51649  -8770026.25247  21384300.0234   21384294.8554
      1843.0164
 04  9  3 15 56 15.0000000  0  6G20G11G14G 1G22G25
   -883312.28947   -675901.86042  24045510.6334   24045505.1134
      2823.6564
  -8325918.42849  -6470056.43747  21614946.5314   21614940.5664
       907.6094
   7123711.18749   5541742.41447  21524033.0944   21524027.0474
     -2387.8444
  -9735017.08449  -7569417.96146  22084959.4534   22084954.6454
      2091.4384
   9884048.12949   7682350.93544  23389455.7814   23389449.5434
     -2701.4844
 -11310517.94249  -8791525.28447  21379049.9064   21379044.0984
      1835.6884
 04  9  3 15 56 30.0000000  0  6G20G11G14G 1G22G25
   -925666.67846   -708905.29742  24037450.5784   24037445.4304
      2823.5314
  -8339470.74649  -6480616.69347  21612367.9144   21612361.7704
       899.1254
   7159553.59249   5569671.55046  21530853.5234   21530847.8714
     -2391.3124
  -9766356.20449  -7593838.05446  22078995.7974   22078991.6684
      2086.8754
   9924586.97348   7713939.61744  23397169.7274   23397163.5784
     -2703.8444
 -11338000.09249  -8812939.94047  21373820.0864   21373814.5594
      1828.3594
 04  9  3 15 56 45.0000000  0  6G20G11G14G 1G22G25
   -968016.74246   -741905.31242  24029391.3524   24029386.5004
      2823.0314
  -8352893.66449  -6491076.11947  21609813.4844   21609806.9184
       890.5004
   7195449.27249   5597642.19246  21537684.3444   21537678.5394
     -2394.8914
  -9797625.07949  -7618203.40245  22073045.6484   22073040.8914
      2082.2344
   9965163.94048   7745557.99244  23404891.3364   23404885.4104
     -2706.4534
 -11365370.29149  -8834267.35847  21368611.7664   21368606.1414
      1820.8754
 04  9  3 15 57  0.0000000  0  6G20G11G14G 1G22G25
  -1010362.21646   -774901.81542  24021333.8364   24021328.5944
      2822.7974
  -8366186.65549  -6501434.29947  21607283.9454   21607277.6994
       881.8284
   7231398.36549   5625654.46347  21544525.6484   21544519.3444
     -2398.3914
  -9828823.35649  -7642513.73446  22067109.0004   22067103.9844
      2077.4844
  10005779.37148   7777206.35344  23412620.4614   23412614.3524
     -2708.9844
 -11392628.26249  -8855507.32847  21363424.7504   21363419.0984
      1813.4224
 04  9  3 15 57 15.0000000  0  6G20G11G14G 1G22G25
  -1052703.78246   -807895.22142  24013276.3134   24013271.6374
      2822.6254
  -8379350.40649  -6511691.76447  21604778.9144   21604772.4144
       873.2814
   7267399.68349   5653707.42547  21551376.4774   21551370.1724
     -2401.7504
  -9859951.93449  -7666769.75945  22061184.7584   22061180.3794
      2072.9694
  10046432.30748   7808883.92944  23420356.3524   23420349.8444
     -2711.3444
 -11419774.65249  -8876660.34947  21358258.8674   21358253.5394
      1806.0634
 04  9  3 15 57 30.0000000  0  6G20G11G14G 1G22G25
  -1095039.02346   -840883.69442  24005220.3134   24005214.5904
      2822.2504
  -8392382.63649  -6521846.74747  21602298.9384   21602292.6254
       864.4694
   7303455.57549   5681802.91747  21558237.2974   21558231.5554
     -2405.5314
  -9891008.32249  -7690969.53346  22055275.3594   22055270.3324
      2068.0314
  10087125.10848   7840592.58144  23428100.3054   23428093.2464
     -2714.1414
 -11446806.74449  -8897724.30847  21353114.6024   21353109.2854
      1798.4064
 04  9  3 15 57 45.0000000  0  6G20G11G14G 1G22G25
  -1137372.72846   -873870.98742  23997164.0474   23997158.2464
      2822.1254
  -8405288.27949  -6531903.10247  21599842.8364   21599836.7234
       856.0784
   7339560.65449   5709936.72546  21565108.0164   21565102.0664
     -2408.7344
  -9921997.52049  -7715116.94846  22049378.1804   22049373.1954
      2063.5784
  10127852.67548   7872328.32044  23435850.2424   23435844.1294
     -2716.4374
 -11473729.41749  -8918703.00747  21347991.4694   21347986.1334
      1791.0634
 04  9  3 15 58  0.0000000  0  6G20G11G14G 1G22G25
  -1179701.44346   -906854.42342  23989108.7114   23989103.3014
      2821.8284
  -8418063.38249  -6541857.72247  21597411.9384   21597406.0984
       847.3914
   7375718.26349   5738111.48346  21571988.5084   21571982.2304
     -2412.1564
  -9952915.91949  -7739209.19946  22043494.2034   22043490.1644
      2058.8914
  10168618.49849   7904093.87744  23443607.7034   23443601.3914
     -2718.9374
 -11500538.86549  -8939593.48347  21342890.0164   21342884.8404
      1783.5314
 04  9  3 15 58 15.0000000  0  6G20G11G14G 1G22G25
  -1222026.00446   -939834.56842  23981054.8204   23981049.5554
      2821.6254
  -8430708.90449  -6551711.38647  21595005.8134   21594999.4734
       838.8284
   7411927.15249   5766326.18546  21578878.9224   21578873.0044
     -2415.5784
  -9983764.56049  -7763247.09146  22037624.4774   22037619.7584
      2054.3444
  10209421.55048   7935888.43844  23451372.9384   23451366.4804
     -2721.3124
 -11527235.94349  -8960396.39047  21337809.5704   21337804.5204
      1776.1884
 04  9  3 15 58 30.0000000  0  6G20G11G14G 1G22G25
  -1264346.91146   -972811.90642  23973002.5084   23972996.7194
      2821.2974
  -8443225.33848  -6561464.45947  21592623.6804   21592617.7114
       830.1724
   7448186.49349   5794580.19846  21585779.2894   21585773.0434
     -2418.9374
 -10014543.92949  -7787231.00546  22031767.0314   22031762.7034
      2049.7034
  10250261.28149   7967711.56044  23459144.1954   23459137.9344
     -2723.7974
 -11553820.86348  -8981111.90547  21332750.7034   21332745.5084
      1768.6884
 04  9  3 15 58 45.0000000  0  6G20G11G14G 1G22G25
  -1306662.59446  -1005785.13242  23964950.4064   23964944.1724
      2820.7504
  -8455611.08149  -6571115.69347  21590266.7974   21590260.5744
       821.3134
   7484497.53449   5822874.51547  21592688.6024   21592682.8674
     -2422.4844
 -10045252.61049  -7811159.84546  22025923.4454   22025918.9494
      2044.8914
  10291138.97448   7999564.27744  23466922.2664   23466916.5824
     -2726.5004
 -11580292.12949  -9001738.86747  21327713.5084   21327707.7384
      1760.9064
 04  9  3 15 59  0.0000000  0  6G20G11G14G 1G22G25
  -1348971.37947  -1038753.01942  23956897.7034   23956892.9494
      2820.0944
  -8467864.61249  -6580663.91447  21587935.2504   21587929.0514
       812.2344
   7520861.58549   5851210.12947  21599608.5314   21599602.6764
     -2426.2664
 -10075889.00649  -7835032.35146  22020093.7344   22020089.0594
      2039.7504
  10332056.13748   8031447.75644  23474708.9144   23474702.8794
     -2729.3754
 -11606648.13349  -9022276.01347  21322697.9924   21322692.5664
      1752.9694
 04  9  3 15 59 15.0000000  0  6G20G11G14G 1G22G25
  -1391275.68547  -1071717.40242  23948848.3364   23948842.7464
      2819.7974
  -8479988.32049  -6590110.94947  21585628.4144   21585621.7624
       803.7034
   7557275.87649   5879584.89047  21606537.9454   21606532.0004
     -2429.5164
 -10106455.63249  -7858850.49146  22014277.0234   22014271.9574
      2035.2504
  10373010.27548   8063360.04244  23482502.8524   23482495.9414
     -2731.7344
 -11632891.14148  -9042725.09547  21317704.2274   21317698.9574
      1745.5474
 04  9  3 15 59 30.0000000  0  6G20G11G14G 1G22G25
  -1433573.19447  -1104676.46643  23940799.3834   23940793.7894
      2819.5314
  -8491979.62049  -6599454.83147  21583346.3204   21583340.2424
       795.0164
   7593742.51149   5908000.43446  21613477.3594   21613471.1914
     -2432.7664
 -10136950.12349  -7882612.43246  22008474.0084   22008469.2934
      2030.6254
  10414003.53248   8095302.81244  23490302.9924   23490296.5314
     -2734.1414
 -11659018.62449  -9063084.16947  21312731.9924   21312726.7194
      1737.9844
 04  9  3 15 59 45.0000000  0  6G20G11G14G 1G22G25
  -1475864.55946  -1137630.77242  23932751.7734   23932746.5164
      2819.2344
  -8503839.26549  -6608696.12447  21581089.7034   21581083.2274
       786.2194
   7630260.41149   5936455.93446  21620426.5164   21620420.4844
     -2436.2194
 -10167373.25349  -7906318.74446  22002684.7664   22002680.3794
      2025.7814
  10455035.14049   8127275.46944  23498111.3594   23498103.7344
     -2736.7504
 -11685031.18849  -9083353.69047  21307782.1884   21307776.8984
      1730.3134
 04  9  3 16  0  0.0000000  0  6G20G11G14G 1G22G25
  -1518149.27647  -1170579.90343  23924705.0864   23924699.6134
      2818.8914
  -8515566.78549  -6617834.44047  21578857.6644   21578851.8204
       777.5784
   7666829.74749   5964951.50346  21627385.4224   21627379.5864
     -2439.4694
 -10197724.64849  -7929969.16846  21996909.1724   21996904.3364
      2021.2034
  10496105.36948   8159278.21344  23505926.6174   23505919.7704
     -2739.1094
 -11710928.23848  -9103533.19747  21302853.9614   21302848.7464
      1722.7814
 04  9  3 16  0 15.0000000  0  6G20G11G14G 1G22G25
  -1560427.66947  -1203524.07943  23916659.5634   23916654.6054
      2818.4064
  -8527162.59849  -6626870.14447  21576651.2424   21576644.9844
       768.6724
   7703449.77949   5993486.58446  21634353.8834   21634347.9734
     -2443.0164
 -10228004.83949  -7953564.11846  21991147.2194   21991142.3954
      2016.2974
  10537213.67648   8191310.65444  23513749.1414   23513742.9494
     -2741.7814
 -11736710.15649  -9123622.99547  21297948.0864   21297942.9064
      1714.9384
 04  9  3 16  0 30.0000000  0  6G20G11G14G 1G22G25
  -1602700.42347  -1236463.87743  23908615.2504   23908610.2584
      2818.1884
  -8538627.17249  -6635803.57947  21574469.4924   21574463.4304
       760.1254
   7740119.62149   6022060.48047  21641332.0314   21641325.8984
     -2446.1254
 -10258214.48049  -7977104.08846  21985397.9614   21985393.4614
      2011.8594
  10578359.36848   8223372.20244  23521578.6254   23521572.9304
     -2744.0314
 -11762377.31349  -9143623.36247  21293063.3594   21293058.4024
      1707.5164
 04  9  3 16  0 45.0000000  0  6G20G11G14G 1G22G25
  -1644968.56347  -1269400.07342  23900572.5084   23900566.6134
      2817.7664
  -8549961.49649  -6644635.54147  21572312.8134   21572306.4344
       751.2664
   7776837.87249   6050672.09147  21648319.2504   21648313.2734
     -2449.5784
 -10288354.56649  -8000589.86546  21979662.6094   21979657.9104
      2006.9844
  10619541.34248   8255462.00444  23529416.0004   23529410.1374
     -2746.6874
 -11787930.53849  -9163534.97647  21288201.0164   21288195.8324
      1699.7034
 04  9  3 16  1  0.0000000  0  6G20G11G14G 1G22G25
  -1687231.48747  -1302332.23642  23892529.9534   23892524.2704
      2817.2974
  -8561165.00849  -6653365.54947  21570180.6724   21570174.4924
       742.3914
   7813604.81449   6079321.64247  21655315.5704   21655309.9884
     -2452.8124
 -10318424.64849  -8024021.08446  21973940.8364   21973936.1484
      2002.1724
  10660759.95148   8287580.35444  23537259.4534   23537253.7154
     -2749.2504
 -11813369.30749  -9183357.37047  21283360.0864   21283354.8134
      1691.9694
 04  9  3 16  1 15.0000000  0  6G20G11G14G 1G22G25
  -1729485.19747  -1335257.19243  23884489.3834   23884483.5434
      2816.5314
  -8572233.85049  -6661990.63347  21568074.3054   21568068.5354
       733.4844
   7850424.12049   6108011.99746  21662322.4694   21662316.1564
     -2456.3124
 -10348420.80449  -8047394.70546  21968232.2114   21968227.8094
      1997.3594
  10702019.04049   8319730.27144  23545111.0234   23545104.5204
     -2751.9064
 -11838689.56049  -9203087.44047  21278541.9774   21278536.3404
      1684.1094
 04  9  3 16  1 30.0000000  0  6G20G11G14G 1G22G25
  -1771732.36647  -1368177.05343  23876449.1884   23876443.4694
      2816.4534
  -8583170.52449  -6670512.71947  21565993.3204   21565986.6374
       724.8284
   7887292.87449   6136740.89546  21669338.0784   21669332.0274
     -2459.3914
 -10378345.70549  -8070712.80046  21962537.7974   21962532.8594
      1992.7664
  10743315.90448   8351909.60744  23552969.7424   23552963.3164
     -2754.2344
 -11863893.88649  -9222727.16247  21273745.7424   21273740.5864
      1676.5944
 04  9  3 16  1 45.0000000  0  6G20G11G14G 1G22G25
  -1813974.21848  -1401092.77942  23868411.4614   23868405.7584
      2816.1884
  -8593976.31748  -6678932.82247  21563937.0704   21563930.5354
       716.2344
   7924209.45649   6165507.04346  21676363.1954   21676357.5274
     -2462.4844
 -10408200.75649  -8093976.45846  21956856.8754   21956852.3714
      1988.1254
  10784648.99348   8384117.18444  23560834.9844   23560828.7974
     -2756.5624
 -11888983.45648  -9242277.47747  21268971.4384   21268966.3674
      1669.0004
 04  9  3 16  2  0.0000000  0  6G20G11G14G 1G22G25
  -1856210.17347  -1434003.90842  23860373.7664   23860368.1884
      2815.5164
  -8604650.54049  -6687250.40147  21561905.6564   21561899.3054
       707.2974
   7961174.17749   6194310.71146  21683397.2504   21683391.7384
     -2465.9064
 -10437985.42649  -8117185.29446  21951189.1484   21951184.3794
      1983.3444
  10826018.87448   8416353.42644  23568707.0634   23568701.0394
     -2759.2194
 -11913957.38549  -9261737.67147  21264218.8134   21264213.7504
      1661.0474
 04  9  3 16  2 15.0000000  0  6G20G11G14G 1G22G25
  -1898437.17947  -1466908.04042  23852338.2504   23852333.1454
      2814.9064
  -8615190.26248  -6695463.18147  21559899.7504   21559893.7154
       698.1724
   7998189.71449   6223153.96846  21690441.3054   21690435.4534
     -2469.3754
 -10467696.73849  -8140336.96146  21945534.7424   21945530.1374
      1978.3444
  10867428.38348   8448620.54144  23576587.2814   23576581.4654
     -2761.9374
 -11938812.59548  -9281105.35947  21259489.0634   21259483.6524
      1653.0164
 04  9  3 16  2 30.0000000  0  6G20G11G14G 1G22G25
  -1940654.67147  -1499804.78042  23844304.3444   23844298.9264
      2814.1884
  -8625594.87649  -6703570.67847  21557920.0234   21557914.5704
       689.1564
   8035256.34149   6252037.05546  21697494.5164   21697488.6024
     -2472.7814
 -10497334.09949  -8163430.99946  21939895.3054   21939890.2894
      1973.4224
  10908878.06048   8480918.95144  23584475.5164   23584468.7154
     -2764.6564
 -11963548.51149  -9300380.09247  21254781.8984   21254776.4384
      1645.1414
 04  9  3 16  2 45.0000000  0  6G20G11G14G 1G22G25
  -1982866.58447  -1532697.15942  23836271.9224   23836266.3834
      2813.8134
  -8635868.20548  -6711575.88247  21555965.3674   21555958.9264
       680.3444
   8072369.75449   6280956.58947  21704557.2194   21704551.0784
     -2475.9224
 -10526901.59649  -8186470.59846  21934268.5314   21934263.7774
      1968.7034
  10950363.70848   8513245.40944  23592369.5314   23592363.6334
     -2767.0474
 -11988168.91748  -9319564.81147  21250096.8524   21250091.3484
      1637.3754
 04  9  3 16  3  0.0000000  0  6G20G11G14G 1G22G25
  -2025069.25347  -1565582.34242  23828240.9304   23828235.6564
      2813.1884
  -8646006.76049  -6719476.05547  21554035.9064   21554029.2664
       671.3594
   8109533.22949   6309915.12946  21711629.2194   21711623.4224
     -2479.2814
 -10556395.74849  -8209453.03946  21928656.1174   21928651.5634
      1963.7814
  10991888.70348   8545602.51844  23600271.5864   23600264.6414
     -2769.6724
 -12012670.11949  -9338656.65547  21245434.3284   21245429.0744
      1629.4064
 04  9  3 16  3 15.0000000  0  6G20G11G14G 1G22G25
  -2067267.38947  -1598464.01843  23820210.5864   23820205.3834
      2812.9224
  -8656015.15548  -6727274.81347  21552131.2424   21552124.9184
       662.6564
   8146741.75549   6338908.77746  21718709.5704   21718703.8674
     -2482.2974
 -10585821.28549  -8232382.02446  21923056.5944   21923051.7814
      1959.1094
  11033448.37149   8577986.65144  23608180.5084   23608173.9384
     -2772.0164
 -12037056.79448  -9357659.24747  21240793.7974   21240788.1644
      1621.7344
 04  9  3 16  3 30.0000000  0  6G20G11G14G 1G22G25
  -2109456.83747  -1631338.86242  23812182.2584   23812177.2934
      2812.4694
  -8665889.23049  -6734968.90247  21550252.3834   21550246.4694
       653.7974
   8183999.25249   6367940.57246  21725799.5394   21725793.6994
     -2485.4694
 -10615174.06149  -8255254.31546  21917470.9844   21917466.4774
      1954.4844
  11075046.77948   8610400.93744  23616095.7344   23616090.1134
     -2774.5164
 -12061324.72049  -9376569.31247  21236175.8364   21236170.5904
      1613.9224
 04  9  3 16  3 45.0000000  0  6G20G11G14G 1G22G25
  -2151636.32547  -1664206.00342  23804155.7344   23804151.0594
      2811.7344
  -8675627.71749  -6742557.34047  21548399.0234   21548392.5474
       644.8134
   8221306.56149   6397011.19746  21732898.9144   21732892.8324
     -2488.7814
 -10644453.02849  -8278069.08146  21911899.1804   21911894.7774
      1949.5634
  11116684.82148   8642846.12144  23624019.2274   23624013.0824
     -2777.1254
 -12085472.52549  -9395385.77847  21231580.5004   21231575.3324
      1605.9064
 04  9  3 16  4  0.0000000  0  6G20G11G14G 1G22G25
  -2193811.92447  -1697070.10143  23796130.5704   23796125.2154
      2811.4694
  -8685236.80349  -6750044.95247  21546570.9534   21546564.6214
       636.2034
   8258657.33249   6426115.68146  21740006.7664   21740000.8054
     -2491.5624
 -10673664.28449  -8300831.08046  21906340.6094   21906335.9064
      1945.1094
  11158356.28848   8675317.36744  23631949.3914   23631943.0864
     -2779.3284
 -12109506.19249  -9414113.30547  21227007.2734   21227001.7344
      1598.3134
 04  9  3 16  4 15.0000000  0  6G20G11G14G 1G22G25
  -2235980.85147  -1729928.96842  23788105.9924   23788100.5554
      2811.0944
  -8694713.74349  -6757429.58247  21544767.7114   21544760.9534
       627.4844
   8296053.90649   6455255.86146  21747122.8524   21747117.0164
     -2494.5624
 -10702805.20449  -8323538.28246  21900795.5554   21900790.4734
      1940.4384
  11200063.87048   8707816.76144  23639885.4844   23639879.6564
     -2781.6874
 -12133423.04549  -9432749.81247  21222455.8204   21222450.5164
      1590.5784
 04  9  3 16  4 30.0000000  0  6G20G11G14G 1G22G25
  -2278141.49548  -1762781.42742  23780082.3914   23780077.8794
      2810.2974
  -8704056.85048  -6764709.93647  21542989.7424   21542982.7934
       618.2344
   8333497.67449   6484432.80846  21754248.0704   21754242.3714
     -2498.0164
 -10731874.15449  -8346189.41546  21895263.3914   21895258.7344
      1935.3444
  11241809.01548   8740345.40444  23647829.4774   23647823.6334
     -2784.3914
 -12157221.34348  -9451293.93147  21217927.5164   21217922.0314
      1582.4384
 04  9  3 16  4 45.0000000  0  6G20G11G14G 1G22G25
  -2320295.70447  -1795628.85043  23772061.3674   23772056.1684
      2810.3594
  -8713267.93649  -6771887.41247  21541236.7664   21541230.3984
       609.9064
   8370986.47249   6513644.84746  21761382.0164   21761376.2344
     -2500.5004
 -10760873.14049  -8368786.01546  21889745.1564   21889740.8244
      1931.1884
  11283589.73548   8772901.78244  23655780.1334   23655773.8524
     -2786.3754
 -12180902.74849  -9469746.97347  21213420.6884   21213415.3984
      1575.1094
 04  9  3 16  5  0.0000000  0  6G20G11G14G 1G22G25
  -2362441.79947  -1828469.95743  23764041.0164   23764035.3954
      2809.2504
  -8722345.34548  -6778960.71847  21539509.0234   21539502.7344
       600.5004
   8408521.62049   6542893.01346  21768524.7034   21768519.0514
     -2504.0624
 -10789800.59449  -8391326.87746  21884240.6954   21884235.7774
      1925.9534
  11325407.53948   8805487.06344  23663738.5394   23663731.9104
     -2789.3124
 -12204465.56548  -9488107.59747  21208937.0784   21208931.6884
      1566.7194
 04  9  3 16  5 15.0000000  0  6G20G11G14G 1G22G25
  -2404577.98748  -1861303.34043  23756022.6024   23756017.6294
      2808.8594
  -8731287.37448  -6785928.54747  21537807.6884   21537801.0984
       591.7194
   8446104.52749   6572178.38246  21775676.5084   21775671.1684
     -2507.0624
 -10818654.71249  -8413810.59746  21878749.8524   21878745.3634
      1921.2344
  11367264.22148   8838102.62144  23671703.6414   23671697.0164
     -2791.6724
 -12227907.84348  -9506374.30547  21204476.1484   21204470.8284
      1558.8284
 04  9  3 16  5 30.0000000  0  6G20G11G14G 1G22G25
  -2446704.94847  -1894129.52943  23748005.9304   23748000.7934
      2808.1094
  -8740094.82149  -6792791.49647  21536131.6024   21536125.6844
       582.5784
   8483734.27149   6601500.24946  21782837.3524   21782831.2504
     -2510.2664
 -10847436.40049  -8436237.89146  21873273.0084   21873268.2544
      1916.2814
  11409158.71448   8870747.65344  23679675.3134   23679669.5204
     -2794.3284
 -12251230.36149  -9524547.69247  21200037.6174   21200032.6454
      1550.7814
 04  9  3 16  5 45.0000000  0  6G20G11G14G 1G22G25
  -2488825.53547  -1926950.73043  23739991.0004   23739986.4264
      2807.6884
  -8748770.38449  -6799551.67947  21534480.9304   21534474.0314
       573.8754
   8521407.63749   6630856.11146  21790006.1644   21790000.4884
     -2513.0164
 -10876148.45449  -8458610.90346  21867809.1094   21867804.7934
      1911.7664
  11451088.12848   8903419.88944  23687654.1484   23687648.8594
     -2796.5474
 -12274435.79548  -9542629.84047  21195622.1644   21195616.8594
      1542.9694
 04  9  3 16  6  0.0000000  0  6G20G11G14G 1G22G25
  -2530937.55147  -1959765.27443  23731977.3444   23731972.5004
      2807.2504
  -8757312.09148  -6806207.55747  21532855.4224   21532849.1914
       565.0634
   8559126.29248   6660247.25446  21797183.7814   21797178.2544
     -2516.0944
 -10904788.92049  -8480928.13946  21862359.0704   21862354.2304
      1907.0314
  11493054.27148   8936120.72744  23695640.2974   23695634.0234
     -2798.9224
 -12297522.06848  -9560619.14047  21191229.0784   21191223.1524
      1535.1254
 04  9  3 16  6 15.0000000  0  6G20G11G14G 1G22G25
  -2573040.56048  -1992572.79543  23723965.1094   23723960.2894
      2806.5944
  -8765719.52849  -6812758.82247  21531255.4454   21531248.8984
       556.0164
   8596890.40048   6689673.81046  21804369.9304   21804364.6134
     -2519.0944
 -10933357.53049  -8503189.38346  21856922.7814   21856917.9734
      1902.1724
  11535057.51348   8968850.47743  23703632.9844   23703627.2424
     -2801.4534
 -12320488.69348  -9578515.20647  21186858.3834   21186853.0594
      1527.1414
 04  9  3 16  6 30.0000000  0  6G20G11G14G 1G22G25
  -2615133.72448  -2025372.64243  23715955.7344   23715950.4534
      2805.8914
  -8773991.56949  -6819204.56847  21529681.4224   21529675.4454
       547.0634
   8634700.75848   6719136.42046  21811565.6024   21811559.3284
     -2522.1254
 -10961853.33649  -8525393.90146  21851500.0704   21851495.4224
      1897.3754
  11577098.73948   9001609.83743  23711633.3444   23711627.4574
     -2803.9844
 -12343334.52448  -9596317.14947  21182511.0394   21182505.6054
      1519.0944
 04  9  3 16  6 45.0000000  0  6G20G11G14G 1G22G25
  -2657218.54048  -2058165.99243  23707946.8594   23707941.6844
      2805.2814
  -8782129.94949  -6825546.17247  21528132.8204   21528126.4574
       538.0164
   8672555.44748   6748633.57346  21818768.7504   21818763.0394
     -2525.2504
 -10990278.06449  -8547543.03246  21846090.8204   21846086.1334
      1892.4694
  11619176.12048   9034397.35843  23719640.6954   23719634.2504
     -2806.4694
 -12366061.08948  -9614026.15747  21178186.3444   21178181.0634
      1511.0004
 04  9  3 16  7  0.0000000  0  6G20G11G14G 1G22G25
  -2699298.21348  -2090955.33543  23699939.2194   23699934.3134
      2804.9064
  -8790137.98449  -6831786.20447  21526609.0164   21526602.6454
       529.3754
   8710450.79148   6778162.40546  21825980.0704   21825973.6724
     -2527.8444
 -11018635.06049  -8569639.38046  21840694.8834   21840690.0904
      1888.0944
  11661286.24148   9067210.40443  23727653.9304   23727647.9384
     -2808.5624
 -12388671.62148  -9631644.73547  21173883.8284   21173878.5274
      1503.4534
 04  9  3 16  7 15.0000000  0  6G20G11G14G 1G22G25
  -2741365.41548  -2123734.95443  23691934.5164   23691929.0944
      2804.3134
  -8798008.28749  -6837918.91047  21525111.1024   21525104.7894
       520.2974
   8748393.85748   6807728.40946  21833200.5704   21833194.4844
     -2530.8444
 -11046916.97849  -8591677.23646  21835312.7344   21835308.4844
      1883.2344
  11703436.39548   9100054.65943  23735674.9774   23735668.7734
     -2811.1254
 -12411158.76748  -9649167.18647  21169604.4534   21169599.2384
      1495.2504
 04  9  3 16  7 30.0000000  0  6G20G11G14G 1G22G25
  -2783424.81047  -2156508.51043  23683931.0634   23683925.6724
      2803.5474
  -8805745.56948  -6843947.97047  21523638.8834   21523632.5164
       511.3134
   8786379.64048   6837327.71546  21840428.9144   21840422.7934
     -2533.8914
 -11075128.62849  -8613660.33846  21829944.4694   21829939.5124
      1878.4224
  11745621.67448   9132926.26043  23743702.9534   23743696.2114
     -2813.6254
 -12433527.15948  -9666597.09647  21165347.7664   21165342.3444
      1487.1414
 04  9  3 16  7 45.0000000  0  6G20G11G14G 1G22G25
  -2825473.72547  -2189273.89343  23675929.1254   23675923.7544
      2802.8754
  -8813347.08648  -6849871.24147  21522192.4774   21522186.0164
       502.2194
   8824410.52648   6866962.16546  21847665.9224   21847659.8054
     -2536.8914
 -11103267.30149  -8635586.56146  21824589.7504   21824585.3484
      1873.3914
  11787844.65548   9165827.26443  23751737.2274   23751731.2544
     -2816.1414
 -12455773.96949  -9683932.26647  21161114.8284   21161109.0784
      1479.0164
 04  9  3 16  8  0.0000000  0  6G20G11G14G 1G22G25
  -2867514.52647  -2222032.94543  23667929.2034   23667923.7624
      2802.2814
  -8820815.32648  -6855690.65047  21520771.3914   21520764.8054
       493.3754
   8862483.77348   6896629.62246  21854910.7814   21854904.5204
     -2539.7194
 -11131335.70049  -8657458.03046  21819248.5164   21819244.0084
      1868.7814
  11830102.61048   9198755.51644  23759779.5234   23759772.3954
     -2818.4374
 -12477901.58449  -9701174.54947  21156903.8524   21156898.6954
      1471.0634
 04  9  3 16  8 15.0000000  0  6G20G11G14G 1G22G25
  -2909541.95247  -2254781.58143  23659931.6414   23659926.0474
      2801.6254
  -8828145.18749  -6861402.23747  21519376.3204   21519370.1214
       484.2664
   8900604.15248   6926333.79446  21862165.3674   21862159.2074
     -2542.6254
 -11159328.73449  -8679270.77046  21813921.5704   21813916.9844
      1863.9534
  11872400.67948   9231714.99544  23767827.7034   23767821.9024
     -2821.0474
 -12499904.68349  -9718319.82247  21152716.8134   21152711.1414
      1462.9694
 04  9  3 16  8 30.0000000  0  6G20G11G14G 1G22G25
  -2951562.12247  -2287524.53143  23651935.4304   23651929.5234
      2801.2974
  -8835342.86049  -6867010.80947  21518006.3364   21518000.6134
       475.6564
   8938765.32648   6956069.75946  21869426.9454   21869420.5554
     -2545.2194
 -11187252.46049  -8701029.50946  21808607.5944   21808603.3484
      1859.4534
  11914732.63548   9264700.88644  23775883.4064   23775877.3364
     -2823.1094
 -12521789.27749  -9735372.74547  21148551.8834   21148546.6094
      1455.2974
 04  9  3 16  8 45.0000000  0  6G20G11G14G 1G22G25
  -2993571.52347  -2320259.13643  23643941.4614   23643935.9964
      2800.3594
  -8842404.72549  -6872513.57447  21516662.6644   21516656.4264
       466.4534
   8976970.52149   6985840.02346  21876696.8984   21876691.4804
     -2548.2664
 -11215103.49249  -8722731.60846  21803308.0234   21803303.3324
      1854.4694
  11957101.87048   9297715.83444  23783946.3204   23783940.3984
     -2825.6874
 -12543551.92749  -9752330.65147  21144410.8204   21144405.5204
      1446.9694
 04  9  3 16  9  0.0000000  0  6G20G11G14G 1G22G25
  -3035572.43147  -2352987.10543  23635948.3284   23635943.3054
      2799.7664
  -8849333.07349  -6877912.29447  21515344.5944   21515337.7584
       457.5004
   9015217.18649   7015642.61946  21883975.1724   21883968.7894
     -2551.1724
 -11242884.17949  -8744378.89446  21798021.2114   21798017.0474
      1849.7034
  11999506.00348   9330757.96344  23792015.3284   23792009.1604
     -2828.1724
 -12565194.75049  -9769195.18447  21140292.5944   21140287.3834
      1438.8284
 04  9  3 16  9 15.0000000  0  6G20G11G14G 1G22G25
  -3077562.65148  -2385706.75243  23627957.8364   23627952.4884
      2799.0634
  -8856125.77749  -6883205.32147  21514051.9384   21514045.4144
       448.3914
   9053507.16749   7045478.94846  21891261.5554   21891256.4344
     -2554.0784
 -11270592.45549  -8765969.74946  21792748.6884   21792744.2974
      1844.8284
  12041947.05448   9363828.90044  23800092.0394   23800085.8364
     -2830.5164
 -12586715.61249  -9785964.68147  21136197.2504   21136191.6524
      1430.7344
 04  9  3 16  9 30.0000000  0  6G20G11G14G 1G22G25
  -3119543.43247  -2418419.03243  23619969.2584   23619964.1564
      2798.3284
  -8862784.09749  -6888393.62347  21512784.7034   21512778.6374
       439.3134
   9091838.91049   7075347.82846  21898555.8444   21898550.0634
     -2556.8444
 -11298229.65349  -8787505.21646  21787489.3364   21787484.7934
      1840.0944
  12084423.61248   9396927.46544  23808174.5554   23808168.1604
     -2833.0004
 -12608115.71949  -9802640.07847  21132124.8054   21132119.2154
      1422.5784
 04  9  3 16  9 45.0000000  0  6G20G11G14G 1G22G25
  -3161516.06447  -2451124.99043  23611982.6174   23611977.0044
      2797.8594
  -8869309.49649  -6893478.36347  21511542.7894   21511536.9224
       430.5004
   9130210.62248   7105247.85546  21905857.6174   21905851.6174
     -2559.5624
 -11325797.23349  -8808986.42746  21782243.6644   21782238.7424
      1835.5004
  12126933.93348   9430052.37144  23816263.3754   23816257.6334
     -2835.1564
 -12629396.40748  -9819222.42647  21128075.4694   21128069.8444
      1414.7194
 04  9  3 16 10  0.0000000  0  6G20G11G14G 1G22G25
  -3203477.15147  -2483821.89843  23603997.2424   23603991.5784
      2796.9064
  -8875698.63849  -6898456.92747  21510327.1884   21510320.3674
       421.3134
   9168625.39948   7135181.43446  21913167.7974   21913162.3094
     -2562.5004
 -11353291.93849  -8830410.85946  21777011.4224   21777007.1254
      1830.5004
  12169481.27248   9463206.11243  23824360.4144   23824354.1724
     -2837.8594
 -12650554.14348  -9835708.96247  21124048.9774   21124043.5274
      1406.3594
 04  9  3 16 10 15.0000000  0  6G20G11G14G 1G22G25
  -3245426.51547  -2516509.72243  23596014.1954   23596009.1994
      2796.5784
  -8881951.18149  -6903329.04047  21509137.0784   21509130.9734
       412.5944
   9207083.17048   7165148.51646  21920486.3134   21920480.4964
     -2564.9224
 -11380713.60949  -8851778.38846  21771793.1564   21771788.5434
      1826.0164
  12212065.89648   9496388.91443  23832463.7034   23832456.9384
     -2839.8914
 -12671588.74449  -9852099.55347  21120046.3834   21120040.7424
      1398.6094
 04  9  3 16 10 30.0000000  0  6G20G11G14G 1G22G25
  -3287368.38147  -2549191.65543  23588033.3674   23588027.9024
      2795.8914
  -8888071.58149  -6908098.19047  21507972.9304   21507966.7734
       403.6884
   9245579.29448   7195145.49146  21927812.2114   21927805.8984
     -2567.6094
 -11408066.66549  -8873092.44746  21766588.4064   21766583.5394
      1821.3594
  12254683.24748   9529597.18743  23840573.9614   23840567.9264
     -2842.2034
 -12692504.45249  -9868397.50247  21116066.3284   21116060.8284
      1390.4534
 04  9  3 16 10 45.0000000  0  6G20G11G14G 1G22G25
  -3329298.42247  -2581864.43043  23580054.6094   23580048.8134
      2795.1724
  -8894055.56048  -6912761.04147  21506834.0164   21506827.6724
       394.6254
   9284117.92248   7225175.57246  21935145.3594   21935139.4144
     -2570.3914
 -11435346.84549  -8894349.72246  21761397.0394   21761392.2114
      1816.4694
  12297337.55648   9562834.25043  23848690.8204   23848684.5594
     -2844.5784
 -12713296.83349  -9884599.35347  21112109.7424   21112104.2774
      1382.2664
 04  9  3 16 11  0.0000000  0  6G20G11G14G 1G22G25
  -3371221.05147  -2614531.39043  23572076.6804   23572071.3674
      2794.5634
  -8899907.64549  -6917321.11447  21505720.4534   21505713.9964
       385.5944
   9322694.22348   7255235.01846  21942486.1254   21942480.5314
     -2573.0944
 -11462558.69949  -8915553.76446  21756218.5474   21756214.2464
      1811.7664
  12340024.13648   9596096.50344  23856813.4454   23856808.6054
     -2846.9694
 -12733970.21249  -9900708.46147  21108175.5004   21108169.8404
      1374.1564
 04  9  3 16 11 15.0000000  0  6G20G11G14G 1G22G25
  -3413130.12647  -2647187.79443  23564101.7424   23564096.3404
      2793.5004
  -8905621.69649  -6921773.62947  21504633.4454   21504627.2194
       376.3134
   9361313.92148   7285328.27446  21949835.3674   21949829.6374
     -2576.1094
 -11489696.20849  -8936699.86746  21751054.7344   21751049.7544
      1806.7194
  12382749.04548   9629388.59344  23864944.5314   23864938.1094
     -2849.5624
 -12754518.52849  -9916720.13147  21104265.0784   21104259.8054
      1365.7344
 04  9  3 16 11 30.0000000  0  6G20G11G14G 1G22G25
  -3455024.99347  -2679833.12643  23556129.4304   23556124.1454
      2792.7664
  -8911196.99349  -6926118.02247  21503572.2664   21503565.9264
       367.2814
   9399977.51348   7315455.73346  21957192.6884   21957186.7344
     -2578.7344
 -11516758.73049  -8957787.54346  21745904.7424   21745900.0784
      1801.8594
  12425512.80548   9662710.95444  23873081.8754   23873077.0784
     -2852.0164
 -12774940.98749  -9932633.72947  21100378.6644   21100373.5204
      1357.5004
 04  9  3 16 11 45.0000000  0  6G20G11G14G 1G22G25
  -3496911.47647  -2712471.94043  23548158.5164   23548153.0394
      2792.1094
  -8916639.52649  -6930358.96547  21502536.4224   21502529.9064
       358.3914
   9438678.66448   7345612.46146  21964557.3594   21964551.5594
     -2581.3594
 -11543752.32249  -8978821.50846  21740768.2584   21740763.0394
      1797.2344
  12468309.32248   9696058.86643  23881226.1334   23881219.8284
     -2854.2034
 -12795243.47949  -9948453.84847  21096515.5784   21096510.2074
      1349.4534
 04  9  3 16 12  0.0000000  0  6G20G11G14G 1G22G25
  -3538786.71647  -2745101.98943  23540190.2344   23540184.3674
      2791.3284
  -8921946.57549  -6934494.33447  21501526.5784   21501520.6804
       349.3594
   9477420.00949   7375800.51446  21971929.5004   21971923.7734
     -2584.1874
 -11570674.26749  -8999799.63846  21735645.0634   21735640.1334
      1792.3284
  12511141.27248   9729434.37543  23889376.3364   23889370.5554
     -2856.7194
 -12815423.12349  -9964178.23747  21092675.5474   21092669.8914
      1341.0784
 04  9  3 16 12 15.0000000  0  6G20G11G14G 1G22G25
  -3580652.42548  -2777724.61843  23532223.3834   23532217.7034
      2790.6564
  -8927119.96849  -6938525.56047  21500542.0634   21500535.5664
       340.4064
   9516199.29749   7406018.12146  21979308.9144   21979303.3714
     -2586.5164
 -11597526.42949  -9020723.38346  21730534.9774   21730530.6214
      1787.8444
  12554006.62748   9762835.92143  23897533.8674   23897527.3404
     -2858.7974
 -12835481.71649  -9979808.29647  21088858.3914   21088852.8324
      1333.2194
 04  9  3 16 12 30.0000000  0  6G20G11G14G 1G22G25
  -3622507.22548  -2810338.74043  23524258.5234   23524253.1454
      2790.0314
  -8932158.20649  -6942451.46947  21499583.3444   21499577.0864
       331.4844
   9555017.94549   7436266.40746  21986695.9774   21986690.1844
     -2589.1414
 -11624307.41749  -9041591.67546  21725438.8524   21725434.3444
      1783.1724
  12596906.82848   9796264.61043  23905696.7734   23905690.9304
     -2861.0164
 -12855417.75249  -9995342.86547  21085064.4614   21085059.5084
      1325.1094
 04  9  3 16 12 45.0000000  0  6G20G11G14G 1G22G25
  -3664352.87347  -2842945.72343  23516295.2114   23516290.0434
      2789.3754
  -8937063.22549  -6946273.56647  21498649.8984   21498643.7114
       322.5314
   9593873.64149   7466543.56846  21994089.7424   21994083.8054
     -2591.5474
 -11651019.13249  -9062406.00746  21720356.1414   21720351.2854
      1778.4694
  12639839.85148   9829718.86943  23913866.7274   23913861.5124
     -2863.2664
 -12875233.06949 -10010783.36647  21081294.1884   21081288.6884
      1317.0634
 04  9  3 16 13  0.0000000  0  6G20G11G14G 1G22G25
  -3706186.23648  -2875543.13843  23508334.8834   23508329.4494
      2788.7194
  -8941832.04349  -6949989.54447  21497742.2504   21497736.0514
       313.5944
   9632769.18449   7496851.76646  22001491.5944   22001485.9104
     -2594.1724
 -11677658.66549  -9083164.06646  21715286.3524   21715281.7584
      1773.7814
  12682808.66648   9863201.01443  23922044.3834   23922037.6134
     -2865.5784
 -12894924.44049 -10026127.28247  21077546.8444   21077541.4264
      1308.8594
 04  9  3 16 13 15.0000000  0  6G20G11G14G 1G22G25
  -3748009.70747  -2908132.84143  23500376.0864   23500370.6844
      2787.8444
  -8946466.89649  -6953601.11847  21496860.5474   21496854.3324
       304.4534
   9671701.90249   7527188.93246  22008900.3054   22008894.2774
     -2596.7664
 -11704228.41549  -9103867.77046  21710230.3914   21710225.4224
      1768.8914
  12725810.70448   9896709.05543  23930226.8284   23930221.4494
     -2867.9694
 -12914494.14849 -10041376.39847  21073823.1174   21073817.8164
      1300.4844
 04  9  3 16 13 30.0000000  0  6G20G11G14G 1G22G25
  -3789821.24747  -2940713.24943  23492419.5704   23492414.3244
      2787.1414
  -8950966.03249  -6957106.94347  21496004.5164   21495997.8714
       295.4844
   9710673.58749   7557556.45646  22016316.4614   22016310.5904
     -2599.4064
 -11730726.52049  -9124515.63146  21705188.1804   21705183.5664
      1764.2344
  12768847.73848   9930244.38544  23938417.3674   23938410.8364
     -2870.2664
 -12933940.29049 -10056529.22547  21070122.4454   21070117.1054
      1292.3284
 04  9  3 16 13 45.0000000  0  6G20G11G14G 1G22G25
  -3831622.63947  -2973285.76043  23484464.8834   23484459.2854
      2786.0314
  -8955331.35449  -6960508.50347  21495173.8914   21495167.3444
       286.1254
   9749681.92249   7587952.55646  22023739.3204   22023733.5044
     -2602.1564
 -11757154.94749  -9145109.21347  21700159.2114   21700154.1884
      1759.2034
  12811917.70848   9963805.35244  23946613.0394   23946608.0164
     -2872.7194
 -12953264.76749 -10071587.25347  21066444.8054   21066439.7504
      1283.9064
 04  9  3 16 14  0.0000000  0  6G20G11G14G 1G22G25
  -3873412.32247  -3005849.11844  23476513.2114   23476507.7624
      2785.6254
  -8959561.16849  -6963804.46847  21494368.6094   21494362.5784
       277.5004
   9788728.30549   7618378.29146  22031169.8054   22031164.0554
     -2604.3914
 -11783512.09649  -9165647.24646  21695143.0314   21695138.7344
      1754.7974
  12855022.21948   9997393.23543  23954815.2814   23954809.5904
     -2874.7664
 -12972465.67449 -10086548.99347  21062791.2814   21062785.5944
      1275.9064
 04  9  3 16 14 15.0000000  0  6G20G11G14G 1G22G25
  -3915191.24747  -3038404.13143  23468562.4844   23468556.9304
      2784.8444
  -8963656.65349  -6966995.76247  21493588.9844   21493583.1454
       268.5314
   9827811.28449   7648832.54646  22038607.3594   22038601.1174
     -2606.8284
 -11809799.16749  -9186130.66946  21690140.9534   21690136.5394
      1750.0314
  12898160.08748  10031007.10743  23963023.5944   23963018.1334
     -2876.9534
 -12991544.14949 -10101415.33647  21059161.1804   21059154.9884
      1267.7504
 04  9  3 16 14 30.0000000  0  6G20G11G14G 1G22G25
  -3956959.71447  -3070950.98143  23460614.4454   23460608.7734
      2784.3284
  -8967618.24449  -6970082.73347  21492836.2034   21492829.1414
       259.7034
   9866930.23349   7679314.82946  22046050.9774   22046045.7934
     -2609.0944
 -11836016.69149  -9206559.89747  21685151.8914   21685147.4924
      1745.5634
  12941330.63048  10064646.46643  23971239.3284   23971234.1024
     -2879.0314
 -13010500.60449 -10116186.58947  21055553.0784   21055547.8914
      1259.7814
 04  9  3 16 14 45.0000000  0  6G20G11G14G 1G22G25
  -3998715.49848  -3103487.92643  23452668.5314   23452662.9264
      2783.1884
  -8971443.69349  -6973063.59447  21492107.5634   21492101.3914
       250.3134
   9906087.13149   7709826.68446  22053502.4064   22053496.5824
     -2611.8284
 -11862162.49449  -9226933.24346  21680176.5004   21680171.8244
      1740.5634
  12984536.02148  10098312.94543  23979460.5784   23979455.1884
     -2881.5624
 -13029332.71149 -10130860.94747  21051969.6094   21051964.2074
      1251.2974
 04  9  3 16 15  0.0000000  0  6G20G11G14G 1G22G25
  -4040460.79948  -3136016.71544  23444724.5164   23444719.1094
      2782.8444
  -8975135.19349  -6975940.10347  21491405.0634   21491398.6334
       241.7504
   9945279.45549   7740366.14346  22060960.5084   22060954.8014
     -2613.9064
 -11888238.86549  -9247252.48647  21675214.7734   21675209.5634
      1736.2034
  13027773.89848  10132004.77343  23987688.5704   23987683.1914
     -2883.4224
 -13048042.75849 -10145440.19547  21048409.5944   21048403.9924
      1243.3134
 04  9  3 16 15 15.0000000  0  6G20G11G14G 1G22G25
  -4082196.84647  -3168538.31344  23436782.1094   23436776.6684
      2781.7504
  -8978694.27449  -6978713.41947  21490728.0164   21490722.1214
       232.4844
   9984505.64449   7770931.99846  22068424.8674   22068419.0824
     -2616.5944
 -11914247.16949  -9267518.69846  21670265.2734   21670260.3404
      1731.2344
  13071042.85848  10165720.82743  23995923.1724   23995916.8014
     -2886.0314
 -13066631.93449 -10159925.25047  21044871.9844   21044866.3284
      1234.8284
 04  9  3 16 15 30.0000000  0  6G20G11G14G 1G22G25
  -4123919.31647  -3201049.33243  23428843.0634   23428837.2234
      2781.0164
  -8982116.56349  -6981380.14547  21490076.5084   21490070.3914
       223.5314
  10023769.72649   7801527.37246  22075896.7664   22075891.0744
     -2618.9374
 -11940183.08849  -9287728.49047  21665329.7664   21665324.7734
      1726.6414
  13114347.03548  10199464.29643  24004163.4224   24004158.0744
     -2888.0944
 -13085095.76249 -10174312.64747  21041358.4454   21041353.2384
      1226.6884
 04  9  3 16 15 45.0000000  0  6G20G11G14G 1G22G25
  -4165629.96148  -3233551.10643  23420905.6804   23420900.2854
      2780.2504
  -8985403.94849  -6983941.75747  21489450.9224   21489445.0554
       214.5634
  10063069.53049   7832150.56946  22083375.0784   22083369.3014
     -2621.2344
 -11966048.55649  -9307883.39147  21660407.6174   21660402.6844
      1721.9534
  13157684.45648  10233233.66543  24012409.8984   24012404.6524
     -2890.2664
 -13103436.05649 -10188603.77947  21037868.3364   21037863.1054
      1218.4534
 04  9  3 16 16  0.0000000  0  6G20G11G14G 1G22G25
  -4207327.50147  -3266042.70543  23412970.5864   23412965.2274
      2779.5474
  -8988555.29349  -6986397.35447  21488851.5234   21488845.8834
       205.7194
  10102405.96149   7862802.33746  22090860.8054   22090855.2384
     -2623.5164
 -11991842.58949  -9327982.64247  21655499.3054   21655494.4304
      1717.3444
  13201056.21248  10267029.80243  24020663.2814   24020657.6564
     -2892.4694
 -13121651.65249 -10202797.74647  21034402.0004   21034396.3714
      1210.3594
 04  9  3 16 16 15.0000000  0  6G20G11G14G 1G22G25
  -4249014.70448  -3298526.21543  23405038.1414   23405032.5744
      2778.6724
  -8991573.45149  -6988749.17947  21488276.9924   21488271.0944
       196.6414
  10141775.93649   7893480.22246  22098352.3674   22098346.4384
     -2625.8754
 -12017568.07749  -9348028.47147  21650603.7194   21650599.3594
      1712.6414
  13244459.30848  10300850.34143  24028922.7664   24028917.5904
     -2894.7504
 -13139745.41149 -10216896.76047  21030958.8914   21030953.5314
      1202.0784
 04  9  3 16 16 30.0000000  0  6G20G11G14G 1G22G25
  -4290690.18548  -3331000.61443  23397107.5554   23397101.7114
      2778.0314
  -8994457.15949  -6990996.22647  21487728.4614   21487721.9734
       187.8284
  10181180.54049   7924185.09646  22105850.9844   22105845.4494
     -2628.0474
 -12043223.78549  -9368019.91846  21645721.6414   21645717.4344
      1708.1094
  13287894.88747  10334696.20043  24037187.8054   24037182.8954
     -2896.6564
 -13157715.91249 -10230899.74347  21027539.0944   21027533.5944
      1193.9844
 04  9  3 16 16 45.0000000  0  6G20G11G14G 1G22G25
  -4332354.85048  -3363466.57043  23389178.8674   23389173.2814
      2777.2344
  -8997207.31949  -6993139.21947  21487204.8284   21487199.0554
       178.7814
  10220618.52749   7954915.97846  22113355.7424   22113350.1094
     -2630.3594
 -12068810.66249  -9387957.73447  21640852.8134   21640848.1214
      1703.4224
  13331361.92947  10368566.55643  24045460.2894   24045454.5314
     -2898.9694
 -13175564.11149 -10244807.43347  21024142.6414   21024137.3324
      1185.7664
 04  9  3 16 17  0.0000000  0  6G20G11G14G 1G22G25
  -4374007.82648  -3395923.41443  23381252.3754   23381246.9734
      2776.5004
  -8999823.32849  -6995177.67247  21486707.0864   21486700.8484
       169.9534
  10260090.49549   7985673.33546  22120866.8754   22120861.2194
     -2632.6254
 -12094328.12649  -9407841.46847  21635996.7664   21635992.4384
      1698.8444
  13374861.00847  10402461.92443  24053737.5554   24053731.9104
     -2901.0164
 -13193289.00649 -10258619.02847  21020769.9774   21020764.3674
      1177.5314
 04  9  3 16 17 15.0000000  0  6G20G11G14G 1G22G25
  -4415648.56348  -3428370.73543  23373328.2894   23373322.7624
      2775.7814
  -9002304.67649  -6997111.19447  21486234.9614   21486229.1604
       160.9534
  10299596.62849   8016457.32046  22128384.8524   22128379.0124
     -2634.7974
 -12119775.64449  -9427670.69447  21631154.5864   21631149.8714
      1694.2194
  13418392.58548  10436382.61043  24062021.7194   24062016.1334
     -2903.0784
 -13210890.09549 -10272334.14747  21017420.8364   21017415.3524
      1169.3594
 04  9  3 16 17 30.0000000  0  6G20G11G14G 1G22G25
  -4457275.72648  -3460807.47843  23365407.2814   23365401.5354
      2774.5784
  -9004650.16849  -6998938.86047  21485788.6724   21485782.6374
       151.6884
  10339137.91649   8047268.69846  22135909.1414   22135903.4104
     -2637.3754
 -12145151.93749  -9447444.42747  21626325.6174   21626321.0664
      1689.2504
  13461957.92147  10470329.56943  24070311.6804   24070305.8164
     -2905.5944
 -13228365.99449 -10285951.72647  21014095.0164   21014089.3014
      1160.7504
 04  9  3 16 17 45.0000000  0  6G20G11G14G 1G22G25
  -4498886.86248  -3493231.73343  23357488.8984   23357483.2894
      2773.8444
  -9006857.46249  -7000658.83947  21485368.9614   21485362.1764
       142.7664
  10378716.33449   8078109.01046  22143441.0004   22143435.1174
     -2639.5624
 -12170454.87649  -9467160.99547  21621510.2894   21621505.7894
      1684.6724
  13505558.97347  10504304.39043  24078608.4534   24078603.1134
     -2907.6414
 -13245714.38949 -10299469.94647  21010793.3364   21010788.0164
      1152.5634
 04  9  3 16 18  0.0000000  0  6G20G11G14G 1G22G25
  -4540489.23848  -3525649.15343  23349572.3054   23349566.9694
      2773.1724
  -9008933.78849  -7002276.76647  21484973.1804   21484966.9024
       134.0634
  10418324.38949   8108972.41846  22150977.9534   22150972.4884
     -2641.5314
 -12195691.73849  -9486826.07947  21616708.2034   21616703.4804
      1680.2504
  13549188.52946  10538301.38643  24086910.4614   24086905.7704
     -2909.5474
 -13262942.52549 -10312894.46147  21007515.2504   21007509.7504
      1144.5474
 04  9  3 16 18 15.0000000  0  6G20G11G14G 1G22G25
  -4582080.90048  -3558058.22843  23341657.8054   23341651.7774
      2771.9534
  -9010877.44349  -7003791.30747  21484603.7274   21484597.3164
       124.7664
  10457963.75349   8139860.21246  22158521.0634   22158515.2424
     -2644.0944
 -12220860.67249  -9506438.22747  21611918.5704   21611913.6254
      1675.2504
  13592848.24346  10572321.90143  24095219.8914   24095213.6374
     -2912.0474
 -13280048.44949 -10326223.73847  21004260.1334   21004254.6024
      1135.8754
 04  9  3 16 18 30.0000000  0  6G20G11G14G 1G22G25
  -4623658.68348  -3590456.50643  23333745.5164   23333740.1954
      2771.3284
  -9012685.29249  -7005200.03147  21484259.4694   21484253.3164
       116.0164
  10497637.21449   8170774.58846  22166070.6024   22166065.4774
     -2646.0004
 -12245958.69649  -9525995.12047  21607142.3674   21607138.0514
      1670.8444
  13636541.17546  10606368.30443  24103533.4384   24103528.2624
     -2913.9064
 -13297028.98049 -10339455.31547  21001028.8594   21001023.4454
      1127.8914
 04  9  3 16 18 45.0000000  0  6G20G11G14G 1G22G25
  -4665224.27148  -3622845.26243  23325836.0634   23325830.6524
      2770.5944
  -9014359.17449  -7006504.35547  21483941.3834   21483935.3094
       107.0474
  10537342.81949   8201714.01846  22173625.9774   22173620.6334
     -2648.1564
 -12270987.67149  -9545498.21247  21602379.6254   21602375.1954
      1666.2504
  13680265.35546  10640439.02143  24111854.3914   24111849.0634
     -2916.1414
 -13313885.92249 -10352590.58247  20997820.7894   20997815.3954
      1119.6254
 04  9  3 16 19  0.0000000  0  6G20G11G14G 1G22G25
  -4706777.92748  -3655224.74343  23317928.0944   23317922.9734
      2769.3284
  -9015899.45049  -7007704.58547  21483647.9224   21483641.6994
        97.7504
  10577079.90749   8232677.97545  22181187.8984   22181182.7664
     -2650.7034
 -12295947.96649  -9564947.79347  21597630.0394   21597625.2114
      1661.2504
  13724020.31046  10674533.74743  24120180.5234   24120175.4344
     -2918.5624
 -13330619.56249 -10365629.78547  20994636.6334   20994631.4844
      1111.0004
 04  9  3 16 19 15.0000000  0  6G20G11G14G 1G22G25
  -4748316.94848  -3687592.78443  23310023.5944   23310018.2074
      2768.7504
  -9017303.65649  -7008798.76947  21483380.6884   21483374.8874
        88.9844
  10616850.89949   8263668.32645  22188756.1024   22188750.9384
     -2652.5624
 -12320837.09149  -9584341.90747  21592893.5084   21592889.0434
      1656.8914
  13767808.43746  10708654.29243  24128513.3204   24128508.7504
     -2920.2974
 -13347227.18149 -10378570.77347  20991476.2344   20991470.8554
      1103.0474
 04  9  3 16 19 30.0000000  0  6G20G11G14G 1G22G25
  -4789844.80848  -3719952.15643  23302120.8444   23302115.8404
      2768.3134
  -9018575.21049  -7009789.59547  21483138.7194   21483132.2154
        80.4534
  10656652.00649   8294682.16446  22196330.3594   22196324.5314
     -2654.2194
 -12345658.63349  -9603683.36047  21588170.3524   21588165.6524
      1652.7034
  13811626.27246  10742798.02943  24136851.7034   24136846.2344
     -2921.9694
 -13363712.43649 -10391416.40647  20988339.3594   20988334.0474
      1095.1414
 04  9  3 16 19 45.0000000  0  6G20G11G14G 1G22G25
  -4831357.07748  -3752299.36443  23294221.4144   23294216.5594
      2766.9844
  -9019709.94149  -7010673.81347  21482922.6484   21482916.5664
        71.1254
  10696487.18149   8325722.55546  22203911.0084   22203905.1334
     -2656.6874
 -12370408.44749  -9622968.92447  21583460.4384   21583455.3674
      1647.6884
  13855477.85846  10776968.06443  24145196.0784   24145190.9494
     -2924.4374
 -13380070.91649 -10404163.26547  20985226.2584   20985220.8834
      1086.4224
 04  9  3 16 20  0.0000000  0  6G20G11G14G 1G22G25
  -4872856.86148  -3784636.85843  23286324.1724   23286318.6484
      2766.1884
  -9020710.94949  -7011453.82747  21482732.5084   21482725.9654
        62.1564
  10736353.07949   8356786.88546  22211496.9844   22211490.9184
     -2658.8124
 -12395089.70549  -9642201.06747  21578763.9454   21578759.1484
      1643.0634
  13899360.06046  10811161.92743  24153547.0554   24153540.7074
     -2926.4844
 -13396305.66149 -10416813.71647  20982137.1174   20982131.7344
      1078.0944
 04  9  3 16 20 15.0000000  0  6G20G11G14G 1G22G25
  -4914344.23148  -3816964.66944  23278429.9534   23278424.2854
      2765.3284
  -9021578.50449  -7012129.85847  21482567.2664   21482561.4144
        53.3594
  10776249.26649   8387874.79946  22219089.0164   22219083.1764
     -2660.8444
 -12419702.53649  -9661379.90047  21574080.4694   21574075.6024
      1638.5314
  13943272.56846  10845379.42743  24161903.5944   24161897.5084
     -2928.6094
 -13412416.87449 -10429367.90947  20979071.2814   20979065.2114
      1069.8594
 04  9  3 16 20 30.0000000  0  6G20G11G14G 1G22G25
  -4955816.22448  -3849280.47244  23270537.8834   23270532.7934
      2764.1724
  -9022309.81049  -7012699.70947  21482428.1564   21482422.3404
        44.1724
  10816178.30149   8418988.31246  22226687.1254   22226681.7974
     -2663.1254
 -12444244.18649  -9680503.25847  21569409.8364   21569405.3094
      1633.7034
  13987218.00446  10879622.60343  24170265.6724   24170260.0664
     -2930.8444
 -13428401.57049 -10441823.50047  20976029.6564   20976023.8484
      1061.3594
 04  9  3 16 20 45.0000000  0  6G20G11G14G 1G22G25
  -4997274.88548  -3881585.93644  23262648.5084   23262643.1684
      2763.4534
  -9022907.15349  -7013165.17647  21482314.6254   21482308.4024
        35.3754
  10856137.77049   8450125.55346  22234291.0864   22234285.7234
     -2664.9694
 -12468716.92449  -9699572.91247  21564753.1564   21564748.5164
      1629.2504
  14031194.13746  10913889.67143  24178633.9224   24178628.0664
     -2932.7194
 -13444261.88049 -10454182.17047  20973011.2034   20973005.8984
      1053.2194
 04  9  3 16 21  0.0000000  0  6G20G11G14G 1G22G25
  -5038719.38948  -3913880.33644  23254761.9454   23254756.1884
      2762.3914
  -9023369.71249  -7013525.61847  21482226.7344   21482220.5634
        26.2814
  10896128.22249   8481286.92146  22241901.2274   22241895.6844
     -2667.2034
 -12493120.03149  -9718588.31647  21560108.8674   21560104.3404
      1624.4694
  14075201.66847  10948181.22143  24187008.5554   24187002.6374
     -2934.9374
 -13459996.98049 -10466443.28047  20970017.0554   20970011.4104
      1044.7814
 04  9  3 16 21 15.0000000  0  6G20G11G14G 1G22G25
  -5080147.82848  -3946162.23944  23246878.4694   23246873.0204
      2761.3284
  -9023695.71249  -7013779.65047  21482164.1174   21482158.3674
        17.1564
  10936151.38749   8512473.79045  22249517.2194   22249511.6644
     -2669.3594
 -12517451.68249  -9737548.03247  21555478.8524   21555474.4884
      1619.7034
  14119242.26747  10982498.53643  24195389.4534   24195382.7704
     -2937.1414
 -13475604.89749 -10478605.29147  20967046.8134   20967041.2274
      1036.2504
 04  9  3 16 21 30.0000000  0  6G20G11G14G 1G22G25
  -5121562.79248  -3978433.61344  23238997.1254   23238992.0744
      2760.6414
  -9023887.72049  -7013929.27347  21482128.0634   21482122.1054
         8.5004
  10976204.29049   8543683.83445  22257139.1254   22257133.7814
     -2670.9844
 -12541714.60249  -9756454.20847  21550862.0944   21550857.1914
      1615.4064
  14163313.19447  11016839.49643  24203775.6724   24203769.2704
     -2938.9064
 -13491088.27949 -10490670.26047  20964100.3834   20964095.0634
      1028.2194
 04  9  3 16 21 45.0000000  0  6G20G11G14G 1G22G25
  -5162963.07148  -4010693.55144  23231119.1334   23231113.6844
      2759.4534
  -9023944.96149  -7013973.87647  21482117.1024   21482110.7854
        -0.7344
  11016287.63749   8574917.59445  22264766.5634   22264761.1454
     -2673.2504
 -12565907.86049  -9775306.08947  21546258.2114   21546253.0864
      1610.5314
  14207415.34947  11051204.75843  24212168.2194   24212162.3954
     -2941.2814
 -13506446.14749 -10502637.42447  20961177.9224   20961172.2504
      1019.6414
 04  9  3 16 22  0.0000000  0  6G20G11G14G 1G22G25
  -5204348.49148  -4042941.93944  23223243.7114   23223238.5124
      2758.2344
  -9023867.21849  -7013913.31647  21482131.8594   21482125.6644
        -9.9064
  11056401.44449   8606175.09045  22272399.9844   22272394.3794
     -2675.5004
 -12590031.39449  -9794103.64847  21541667.5704   21541662.7934
      1605.7194
  14251548.81747  11085594.41843  24220566.8364   24220560.8484
     -2943.4374
 -13521678.33448 -10514506.65947  20958279.2194   20958273.8984
      1011.0784
 04  9  3 16 22 15.0000000  0  6G20G11G14G 1G22G25
  -5245718.73948  -4075178.49144  23215371.4064   23215366.0164
      2757.6414
  -9023654.51249  -7013747.57647  21482172.1254   21482165.9884
       -18.6254
  11096545.61349   8637456.23845  22280039.4694   22280033.8674
     -2677.2344
 -12614085.03649  -9812846.74047  21537090.4614   21537085.1954
      1601.2974
  14295713.51347  11120008.45542  24228970.9144   24228965.1994
     -2945.3284
 -13536784.51749 -10526277.70247  20955404.3054   20955399.0124
      1002.9384
 04  9  3 16 22 30.0000000  0  6G20G11G14G 1G22G25
  -5287074.89248  -4107404.05944  23207501.2734   23207495.9654
      2756.6724
  -9023307.88548  -7013477.47347  21482238.0944   21482232.2704
       -27.5624
  11136718.73549   8668759.95645  22287683.7814   22287678.1294
     -2679.1254
 -12638069.97749  -9831536.29047  21532526.1804   21532521.5084
      1596.6724
  14339908.30147  11154445.89743  24237380.9694   24237374.7664
     -2947.3754
 -13551765.81848 -10537951.43147  20952553.8674   20952548.3484
       994.5634
 04  9  3 16 22 45.0000000  0  6G20G11G14G 1G22G25
  -5328416.73648  -4139618.45044  23199634.2584   23199628.4924
      2755.5784
  -9022827.26949  -7013102.97747  21482329.7974   21482323.4694
       -36.6094
  11176920.71049   8700086.15645  22295334.3834   22295329.0514
     -2681.2344
 -12661986.20549  -9850172.30547  21527974.8984   21527969.8984
      1592.0004
  14384133.18047  11188906.79642  24245796.2734   24245790.5944
     -2949.4374
 -13566622.12649 -10549527.77047  20949726.6564   20949721.5084
       986.1094
 04  9  3 16 23  0.0000000  0  6G20G11G14G 1G22G25
  -5369743.50948  -4171821.12344  23191769.9924   23191764.6684
      2754.5314
  -9022212.17549  -7012623.69047  21482446.7424   21482440.8284
       -45.5474
  11217151.96349   8731435.17145  22302990.3284   22302984.2974
     -2683.2194
 -12685833.11349  -9868754.30847  21523437.0864   21523432.4344
      1587.4384
  14428388.68047  11223391.60142  24254218.0634   24254211.8134
     -2951.4844
 -13581352.82349 -10561006.23047  20946923.5864   20946918.2934
       977.8134
 04  9  3 16 23 15.0000000  0  6G20G11G14G 1G22G25
  -5411052.71148  -4204010.10644  23183909.1724   23183903.6644
      2753.5634
  -9021460.25049  -7012037.77947  21482589.9304   21482583.7304
       -54.4844
  11257414.62049   8762808.64746  22310651.8834   22310646.0864
     -2685.0624
 -12709608.44549  -9887280.52547  21518912.6414   21518907.8404
      1582.7814
  14472677.01747  11257901.96442  24262645.9774   24262639.5004
     -2953.4224
 -13595955.49049 -10572384.92347  20944144.4064   20944139.1644
       969.4384
 04  9  3 16 23 30.0000000  0  6G20G11G14G 1G22G25
  -5452346.28248  -4236186.89944  23176051.3834   23176045.9964
      2752.5634
  -9020573.37548  -7011346.72047  21482758.9614   21482752.6094
       -63.3914
  11297706.45249   8794204.86246  22318319.3594   22318313.4614
     -2686.9064
 -12733314.20449  -9905752.54247  21514401.9064   21514396.5634
      1578.2194
  14516996.07647  11292436.24042  24271079.3594   24271073.5004
     -2955.4534
 -13610431.96849 -10583665.30047  20941389.8444   20941384.4304
       961.0784
 04  9  3 16 23 45.0000000  0  6G20G11G14G 1G22G25
  -5493627.79548  -4268354.31444  23168195.8134   23168190.2384
      2751.4064
  -9019555.41548  -7010553.51247  21482952.5474   21482946.1024
       -72.5314
  11338023.45749   8825620.70445  22325991.3134   22325985.0044
     -2688.9374
 -12756954.20049  -9924173.31047  21509903.2034   21509898.4804
      1573.4844
  14561342.06947  11326991.56742  24279517.9384   24279512.4804
     -2957.6414
 -13624786.00348 -10594850.26147  20938658.5474   20938652.9774
       952.5314
 04  9  3 16 24  0.0000000  0  6G20G11G14G 1G22G25
  -5534893.68848  -4300509.54844  23160342.9844   23160337.7934
      2750.6884
  -9018402.94349  -7009655.48147  21483171.7034   21483165.6254
       -81.2034
  11378368.95349   8857058.73845  22333668.6484   22333663.1334
     -2690.5474
 -12780524.88449  -9942540.06747  21505417.8134   21505413.3914
      1569.1564
  14605718.41947  11361570.45942  24287962.6954   24287957.2464
     -2959.2034
 -13639014.00649 -10605936.99847  20935951.2814   20935945.3444
       944.4224
 04  9  3 16 24 15.0000000  0  6G20G11G14G 1G22G25
  -5576143.18448  -4332651.99144  23152493.5164   23152487.6024
      2749.4384
  -9017115.37749  -7008652.19747  21483416.3914   21483410.0044
       -90.2814
  11418743.48649   8888519.38445  22341351.9304   22341345.9654
     -2692.5784
 -12804025.68449  -9960852.37847  21500945.7814   21500941.2034
      1564.4224
  14650125.66447  11396173.48242  24296412.9384   24296407.8834
     -2961.4534
 -13653115.30149 -10616925.02447  20933267.5394   20933262.3404
       936.0164
 04  9  3 16 24 30.0000000  0  6G20G11G14G 1G22G25
  -5617375.95048  -4364781.41344  23144647.1174   23144641.7934
      2748.4224
  -9015692.70349  -7007543.62247  21483687.3594   21483681.3324
       -99.1724
  11459146.78149   8920002.46645  22349040.5784   22349034.7304
     -2694.3444
 -12827456.63749  -9979110.25347  21496486.8834   21496482.3484
      1559.9384
  14694563.74047  11430800.49242  24304869.0944   24304864.1374
     -2963.3594
 -13667089.79749 -10627814.23347  20930608.1334   20930602.9104
       927.5784
 04  9  3 16 24 45.0000000  0  5G20G11G14G 1G25
  -5658593.72748  -4396899.15544  23136803.5234   23136798.3754
      2747.4064
  -9014136.64049  -7006331.11547  21483983.5084   21483977.5784
      -108.1874
  11499576.92249   8951506.45445  22356734.1334   22356727.8594
     -2696.2504
 -12850819.43549  -9997315.01447  21492041.4064   21492036.4224
      1555.3284
 -13680939.05449 -10638605.85247  20927973.0394   20927967.6024
       919.1254
 04  9  3 16 25  0.0000000  0  5G20G11G14G 1G25
  -5699795.21448  -4429004.21344  23128963.3054   23128957.9694
      2746.3134
  -9012446.09449  -7005013.82147  21484305.0864   21484299.0904
      -117.0944
  11540034.83649   8983032.08545  22364432.5234   22364426.7274
     -2698.0624
 -12874113.04849 -10015465.88247  21487608.8524   21487603.7934
      1550.6414
 -13694661.92249 -10649299.00347  20925361.6414   20925356.1254
       910.7034
 04  9  3 16 25 15.0000000  0  5G20G11G14G 1G25
  -5740978.09848  -4461094.75044  23121126.9614   23121120.6094
      2744.8134
  -9010618.97848  -7003590.09847  21484653.0004   21484646.8054
      -126.4844
  11580522.53749   9014580.92045  22372137.3834   22372131.4884
     -2700.3284
 -12897335.38349 -10033561.19447  21483189.1954   21483184.5944
      1545.6094
 -13708256.18349 -10659891.91647  20922774.5704   20922769.4304
       901.8444
 04  9  3 16 25 30.0000000  0  5G20G11G14G 1G25
  -5782146.65248  -4493174.14944  23113292.1564   23113286.4104
      2744.1254
  -9008659.56249  -7002063.27547  21485025.9454   21485019.4384
      -135.0314
  11621035.43549   9046149.39145  22379846.9144   22379841.3444
     -2701.6094
 -12920490.81249 -10051604.38147  21478783.0944   21478778.5354
      1541.5784
 -13721726.23149 -10670388.06247  20920211.4454   20920205.5084
       893.8444
 04  9  3 16 25 45.0000000  0  5G20G11G14G 1G25
  -5823298.47648  -4525240.49444  23105461.3834   23105456.2934
      2743.1254
  -9006565.61948  -7000431.64147  21485424.3134   21485417.9924
      -143.8124
  11661575.53049   9077739.04745  22387561.0314   22387555.5004
     -2703.2814
 -12943577.20849 -10069593.76547  21474389.9304   21474385.1174
      1537.1414
 -13735069.80148 -10680785.63747  20917672.4694   20917666.9534
       885.7344
 04  9  3 16 26  0.0000000  0  5G20G11G14G 1G25
  -5864435.32448  -4557295.17144  23097633.8674   23097628.0234
      2741.8594
  -9004339.28049  -6998696.84447  21485848.0944   21485841.5904
      -152.9224
  11702140.75349   9109348.30345  22395280.3674   22395274.7274
     -2705.3284
 -12966596.40549 -10087530.80047  21470009.6024   21470004.6334
      1532.2664
 -13748288.65349 -10691086.03447  20915156.7974   20915151.1604
       876.9844
 04  9  3 16 26 15.0000000  0  5G20G11G14G 1G25
  -5905555.37848  -4589336.76144  23089808.5314   23089802.8164
      2740.8134
  -9001978.84149  -6996857.53847  21486296.8594   21486291.1994
      -161.8124
  11742732.63449   9140978.32345  22403004.9454   22402999.2504
     -2706.9374
 -12989546.75749 -10105414.18347  21465642.4384   21465637.4024
      1527.7664
 -13761380.92149 -10701287.79347  20912664.9774   20912659.8094
       868.6254
 04  9  3 16 26 30.0000000  0  5G20G11G14G 1G25
  -5946657.39948  -4621364.29144  23081987.1564   23081981.8364
      2739.4064
  -8999483.24949  -6994912.92847  21486772.0944   21486765.4614
      -171.0474
  11783351.92249   9172629.70445  22410734.3674   22410729.0474
     -2708.9694
 -13012427.24649 -10123243.12147  21461288.3364   21461283.5904
      1522.9224
 -13774345.65349 -10711390.17547  20910198.3754   20910192.9884
       859.9694
 04  9  3 16 26 45.0000000  0  5G20G11G14G 1G25
  -5987739.36248  -4653376.20644  23074169.2274   23074163.7854
      2738.2194
  -8996850.78048  -6992861.66147  21487272.9224   21487266.6254
      -179.9064
  11824000.29349   9204303.73845  22418469.9144   22418464.5554
     -2710.7504
 -13035236.00949 -10141016.18147  21456947.7894   21456943.3164
      1518.3444
 -13787180.84548 -10721391.61547  20907755.5234   20907750.3484
       851.5474
 04  9  3 16 27  0.0000000  0  5G20G11G14G 1G25
  -6028804.61448  -4685375.10344  23066354.9224   23066349.0594
      2737.4384
  -8994084.67648  -6990706.27047  21487799.2974   21487793.2234
      -188.5784
  11864674.25649   9235997.71945  22426209.4844   22426204.4804
     -2712.1724
 -13057976.53149 -10158736.05747  21452620.2424   21452615.8284
      1514.0314
 -13799889.96848 -10731294.82347  20905337.1884   20905331.5394
       843.3594
 04  9  3 16 27 15.0000000  0  5G20G11G14G 1G25
  -6069853.30648  -4717361.08044  23058543.3834   23058537.6914
      2735.9384
  -8991185.37949  -6988447.08347  21488351.1414   21488344.8244
      -197.7504
  11905373.28549   9267711.23845  22433954.7424   22433948.9184
     -2714.1564
 -13080649.17249 -10176403.03947  21448306.2274   21448301.3444
      1509.2034
 -13812473.21349 -10741099.94347  20902942.8444   20902937.0554
       834.6414
 04  9  3 16 27 30.0000000  0  5G20G11G14G 1G25
  -6110884.22447  -4749333.22344  23050735.4534   23050730.1374
      2734.6254
  -8988151.81948  -6986083.28447  21488928.2894   21488922.2854
      -206.8444
  11946098.31549   9299444.99945  22441704.2034   22441698.7814
     -2715.9374
 -13103252.79349 -10194016.25047  21444004.8914   21444000.2114
      1504.5474
 -13824929.44049 -10750806.08647  20900572.2034   20900566.6334
       826.1414
 04  9  3 16 27 45.0000000  0  5G20G11G14G 1G25
  -6151897.06347  -4781291.25444  23042930.9144   23042925.7774
      2733.5634
  -8984983.96749  -6983614.82847  21489531.2504   21489525.2234
      -215.7194
  11986849.19649   9331198.92145  22449459.0084   22449453.3874
     -2717.6564
 -13125787.31049 -10211575.60547  21439716.6094   21439711.8794
      1499.9694
 -13837258.25749 -10760412.95747  20898226.2194   20898220.7974
       817.5784
 04  9  3 16 28  0.0000000  0  5G20G11G14G 1G25
  -6192891.47947  -4813234.94944  23035130.3284   23035124.6174
      2732.2344
  -8981681.47448  -6981041.46547  21490159.6724   21490153.3634
      -224.6724
  12027625.95049   9362972.99445  22457218.6884   22457212.8834
     -2719.3594
 -13148252.49449 -10229080.93847  21435441.5394   21435437.0354
      1495.3444
 -13849459.59348 -10769920.48247  20895904.6254   20895898.7544
       809.0944
 04  9  3 16 28 15.0000000  0  5G20G11G14G 1G25
  -6233868.38247  -4845164.99444  23027332.3134   23027326.8204
      2731.3284
  -8978245.66849  -6978364.22847  21490813.3134   21490807.5084
      -233.4224
  12068427.22649   9394766.18045  22464982.4694   22464977.4064
     -2720.7664
 -13170649.59649 -10246533.22047  21431179.4924   21431174.9344
      1490.9844
 -13861534.54549 -10779329.52747  20893606.5164   20893601.0904
       800.8284
 04  9  3 16 28 30.0000000  0  5G20G11G14G 1G25
  -6274829.36248  -4877082.63444  23019537.8134   23019532.1414
      2729.8754
  -8974678.23948  -6975584.42247  21491492.4774   21491486.4264
      -242.6414
  12109251.27749   9426577.10645  22472751.1414   22472745.5704
     -2722.7664
 -13192980.27649 -10263933.74347  21426930.2664   21426925.6094
      1486.1094
 -13873484.71948 -10788641.34447  20891332.7664   20891327.0984
       792.1254
 04  9  3 16 28 45.0000000  0  5G20G11G14G 1G25
  -6315771.28947  -4908985.42244  23011746.5864   23011741.1644
      2728.8914
  -8970976.28848  -6972699.79147  21492196.9694   21492190.8324
      -251.1874
  12150100.84049   9458407.92045  22480524.7894   22480519.0164
     -2724.0314
 -13215241.59049 -10281280.22847  21422694.0394   21422689.2544
      1481.8284
 -13885307.09648 -10797853.57747  20889083.0084   20889077.5904
       783.9534
 04  9  3 16 29  0.0000000  0  5G20G11G14G 1G25
  -6356696.21448  -4940874.96644  23003959.5944   23003953.6684
      2727.7504
  -8967142.08548  -6969712.10847  21492926.3674   21492920.6374
      -260.0164
  12190973.44849   9490256.68445  22488302.4534   22488297.1844
     -2725.5784
 -13237435.88149 -10298574.46747  21418470.5634   21418465.8554
      1477.3754
 -13897003.91048 -10806967.98047  20886857.3054   20886851.8094
       775.5474
 04  9  3 16 29 15.0000000  0  5G20G11G14G 1G25
  -6397602.15648  -4972749.71344  22996175.2584   22996169.0554
      2726.3444
  -8963173.89749  -6966620.02447  21493681.5704   21493675.2464
      -269.1254
  12231870.78049   9522124.69645  22496084.7814   22496079.7034
     -2727.4534
 -13259561.28049 -10315815.03047  21414260.0314   21414255.4264
      1472.6414
 -13908573.28449 -10815983.06547  20884655.4614   20884650.0164
       766.9534
 04  9  3 16 29 30.0000000  0  5G20G11G14G 1G25
  -6438485.18048  -5004606.62944  22988394.6884   22988389.3874
      2724.8594
  -8959067.84249  -6963420.51547  21494463.0394   21494456.8554
      -278.2974
  12272796.42949   9554014.80945  22503873.1254   22503867.4144
     -2729.2504
 -13281614.06349 -10332999.01947  21410063.6024   21410059.1644
      1467.8594
 -13920011.39249 -10824895.87547  20882478.8284   20882473.4064
       758.2344
 04  9  3 16 29 45.0000000  0  5G20G11G14G 1G25
  -6479351.40347  -5036450.41444  22980618.3914   22980612.5394
      2723.7814
  -8954830.29049  -6960118.53247  21495269.6254   21495263.1764
      -286.9374
  12313744.07349   9585922.04145  22511665.0234   22511658.9384
     -2730.6564
 -13303600.46149 -10350131.27247  21405879.8444   21405875.2034
      1463.4694
 -13931324.41448 -10833711.21047  20880325.9694   20880320.7894
       749.9534
 04  9  3 16 30  0.0000000  0  6G20G11G14G23G 1G25
  -6520198.89848  -5068279.61544  22972845.1954   22972840.1844
      2722.6884
  -8950459.54748  -6956712.76547  21496100.9144   21496095.1054
      -295.6874
  12354715.27949   9617847.63545  22519461.1644   22519455.1954
     -2732.0314
   -126350.20757    -85966.73553  24259046.7664   24259040.5354
      2811.0634
 -13325518.83149 -10367210.51247  21401708.6564   21401704.1524
      1459.0944
 -13942510.46649 -10842427.59747  20878197.5004   20878191.6914
       741.7344
 04  9  3 16 30 15.0000000  0  6G20G11G14G23G 1G25
  -6561026.40847  -5100093.26444  22965076.6484   22965070.8634
      2721.1564
  -8945954.51148  -6953202.35947  21496958.3674   21496952.1174
      -304.7504
  12395710.74249   9649792.13645  22527262.6484   22527257.0864
     -2733.7814
   -168500.50247   -118811.10443  24251025.7114   24251019.2974
      2809.1254
 -13347368.09349 -10384235.90747  21397551.1484   21397546.2234
      1454.3594
 -13953568.56348 -10851044.29747  20876093.3134   20876087.4534
       732.9694
 04  9  3 16 30 30.0000000  0  6G20G11G14G23G 1G25
  -6601834.98847  -5131892.15944  22957310.7274   22957304.9184
      2719.9694
  -8941316.46848  -6949588.31547  21497841.2734   21497834.6764
      -313.6724
  12436729.23149   9681754.58445  22535068.5164   22535062.6724
     -2735.4064
   -210623.74147   -151634.38543  24243009.9384   24243003.5124
      2807.3134
 -13369149.38649 -10401208.34047  21393405.8134   21393401.3484
      1449.8444
 -13964499.72048 -10859562.08547  20874013.1174   20874007.2774
       724.5314
 04  9  3 16 30 45.0000000  0  6G20G11G14G23G 1G25
  -6642626.45047  -5163677.69844  22949548.3444   22949542.3954
      2718.5474
  -8936547.47549  -6945872.22447  21498748.5234   21498742.3054
      -322.6254
  12477768.59549   9713733.28345  22542878.1414   22542872.2894
     -2736.9694
   -252722.06947   -184438.24843  24234998.6024   24234992.3444
      2805.5164
 -13390864.75149 -10418129.40147  21389273.7734   21389269.3954
      1445.2034
 -13975305.93449 -10867982.49547  20871956.6884   20871951.2114
       716.0164
 04  9  3 16 31  0.0000000  0  6G20G11G14G23G 1G25
  -6683395.76447  -5195445.97944  22941790.0634   22941784.4734
      2717.3284
  -8931642.92948  -6942050.50747  21499681.6954   21499675.7584
      -331.3914
  12518833.62849   9745731.98745  22550692.1564   22550686.7934
     -2738.4064
   -294790.41247   -217218.79343  24226994.0634   24226987.2734
      2803.6564
 -13412509.34449 -10434995.31547  21385155.1884   21385149.8284
      1440.7664
 -13985982.18448 -10876301.64447  20869924.9694   20869919.2424
       707.5634
 04  9  3 16 31 15.0000000  0  6G20G11G14G23G 1G25
  -6724145.82147  -5227199.26244  22934036.2424   22934030.4414
      2716.0474
  -8926605.48649  -6938125.23647  21500640.4774   21500634.3754
      -340.1564
  12559920.92449   9777748.04945  22558510.5474   22558505.3444
     -2739.7664
   -336831.95447   -249978.37143  24218993.7114   24218986.7464
      2802.0314
 -13434086.31449 -10451808.52547  21381049.1564   21381044.5124
      1436.3444
 -13996531.55549 -10884521.92247  20867917.3284   20867911.7234
       699.2034
 04  9  3 16 31 30.0000000  0  6G20G11G14G23G 1G25
  -6764874.58647  -5258935.95544  22926285.4614   22926279.7304
      2714.5004
  -8921433.47749  -6934095.11147  21501624.4924   21501618.1054
      -349.3124
  12601032.16449   9809782.76245  22566333.9844   22566328.5904
     -2741.5164
   -378844.70947   -282715.56943  24210998.6024   24210992.1914
      2799.9384
 -13455593.86849 -10468567.66147  21376956.4694   21376951.9264
      1431.4694
 -14006952.23349 -10892641.93447  20865934.5314   20865929.0164
       690.4384
 04  9  3 16 31 45.0000000  0  6G20G11G14G23G 1G25
  -6805582.49348  -5290656.39944  22918538.9614   22918533.3014
      2713.0164
  -8916127.73749  -6929960.77847  21502634.1724   21502628.2774
      -358.2344
  12642166.69049   9841835.62445  22574162.1884   22574156.0204
     -2743.1254
   -420829.24147   -315430.77843  24203009.2344   24203002.6684
      2797.9384
 -13477032.48949 -10485273.06547  21372876.7034   21372871.8984
      1426.8134
 -14017244.64749 -10900661.99447  20863975.9924   20863970.3284
       681.7814
 04  9  3 16 32  0.0000000  0  6G20G11G14G23G 1G25
  -6846267.94148  -5322359.33944  22910796.4454   22910791.1374
      2711.6564
  -8910686.73448  -6925721.04547  21503669.6954   21503663.7194
      -367.2034
  12683325.74949   9873907.59145  22581994.2894   22581988.7734
     -2744.6874
   -462784.10547   -348122.85743  24195025.6024   24195019.1214
      2796.0474
 -13498400.77849 -10501923.68347  21368810.5474   21368805.8364
      1422.2504
 -14027407.33448 -10908580.96547  20862042.4144   20862036.7234
       673.2504
 04  9  3 16 32 15.0000000  0  6G20G11G14G23G 1G25
  -6886933.25247  -5354046.59044  22903058.4454   22903052.7774
      2709.9694
  -8905113.02349  -6921377.90747  21504730.2274   21504724.0514
      -376.3754
  12724506.72649   9905996.64945  22589830.7814   22589825.5784
     -2746.5164
   -504711.61647   -380793.64743  24187047.5554   24187040.5124
      2793.8754
 -13519701.23649 -10518521.44147  21364757.1724   21364752.1884
      1417.3754
 -14037442.68348 -10916400.71347  20860132.2894   20860126.9574
       664.3754
 04  9  3 16 32 30.0000000  0  6G20G11G14G23G 1G25
  -6927575.70148  -5385716.02944  22895324.1254   22895318.8244
      2708.8914
  -8899404.16049  -6916929.44547  21505816.8284   21505810.6374
      -384.9064
  12765711.82749   9938104.51345  22597671.8134   22597666.5554
     -2747.6874
   -546609.22447   -413441.06643  24179074.5634   24179067.6294
      2792.3594
 -13540931.42449 -10535064.43547  21360717.1254   21360712.5274
      1413.0784
 -14047348.28749 -10924119.35647  20858247.5314   20858241.9184
       656.1724
 04  9  3 16 32 45.0000000  0  6G20G11G14G23G 1G25
  -6968198.21348  -5417369.92144  22887594.2814   22887588.8364
      2707.0474
  -8893563.25849  -6912378.09947  21506928.4064   21506922.1374
      -394.2974
  12806937.93349   9970228.72245  22605516.9844   22605511.3754
     -2749.6414
   -588479.95147   -446067.58643  24171106.5944   24171099.7774
      2790.0474
 -13562094.43549 -10551555.08547  21356690.0944   21356685.2384
      1408.1414
 -14057127.02049 -10931739.15047  20856386.5314   20856380.9104
       647.1724
 04  9  3 16 33  0.0000000  0  6G20G11G14G23G 1G25
  -7008797.64148  -5449005.82944  22879867.9774   22879862.3674
      2705.6564
  -8887587.32448  -6907721.54047  21508065.5394   21508059.5354
      -403.0784
  12848187.88949  10002371.52445  22613366.4454   22613361.1764
     -2750.9694
   -630320.65047   -478670.71443  24163144.4304   24163137.5984
      2788.2344
 -13583187.33649 -10567991.10847  21352676.3364   21352671.2814
      1403.7034
 -14066776.00148 -10939257.81947  20854550.6334   20854544.7114
       638.7814
 04  9  3 16 33 15.0000000  0  6G20G11G14G23G 1G25
  -7049377.94748  -5480626.85444  22872145.9774   22872140.7584
      2704.7504
  -8881480.71648  -6902963.15547  21509227.5164   21509221.3284
      -411.4534
  12889457.30748  10034529.49745  22621219.3594   22621214.3134
     -2751.9064
   -672135.60047   -511253.75443  24155187.5314   24155180.6054
      2786.8914
 -13604214.31549 -10584375.75647  21348674.8204   21348670.1684
      1399.6724
 -14076299.25948 -10946678.54447  20852738.2664   20852732.6374
       630.7344
 04  9  3 16 33 30.0000000  0  6G20G11G14G23G 1G25
  -7089938.48548  -5512232.45744  22864427.7274   22864422.3164
      2703.4844
  -8875242.97149  -6898102.57947  21510414.1484   21510408.3134
      -420.1724
  12930746.53949  10066702.91445  22629076.8134   22629071.8244
     -2753.2344
   -713924.12747   -543816.24243  24147234.9304   24147228.4734
      2785.0944
 -13625174.83949 -10600708.62747  21344686.1954   21344681.7504
      1395.2034
 -14085696.32949 -10954000.92647  20850950.4924   20850944.4454
       622.3134
 04  9  3 16 33 45.0000000  0  6G20G11G14G23G 1G25
  -7130478.06348  -5543821.73244  22856713.5474   22856707.3984
      2702.2664
  -8868873.06249  -6893139.02947  21511626.6254   21511620.1644
      -428.7344
  12972056.35448  10098892.36345  22636938.1094   22636932.6094
     -2754.3284
   -755685.17148   -576357.28443  24139288.3284   24139281.5234
      2783.5164
 -13646067.91949 -10616988.94647  21340710.1884   21340705.6684
      1390.9064
 -14094966.20649 -10961224.21147  20849186.2344   20849180.3364
       614.0944
 04  9  3 16 34  0.0000000  0  6G20G11G14G23G 1G25
  -7170999.54748  -5575396.91344  22849001.9224   22848996.8284
      2700.7034
  -8862374.05348  -6888074.87547  21512863.3524   21512857.0664
      -437.7194
  13013383.69249  10131095.45045  22644802.0084   22644796.1254
     -2755.7974
   -797421.67047   -608879.23343  24131345.7894   24131339.2194
      2781.5474
 -13666896.67449 -10633219.13947  21336746.7734   21336742.1644
      1386.2814
 -14104111.79349 -10968350.63747  20847445.7664   20847440.0164
       605.4694
 04  9  3 16 34 15.0000000  0  6G20G11G14G23G 1G25
  -7211499.55148  -5606955.35444  22841295.5164   22841289.9844
      2699.0944
  -8855742.85949  -6882907.72147  21514125.1094   21514118.9384
      -446.5624
  13054731.52448  10163314.53044  22652670.5234   22652664.7234
     -2757.3284
   -839130.53147   -641379.59043  24123408.7274   24123402.3754
      2779.5784
 -13687657.91049 -10649396.71447  21332795.9304   21332791.2274
      1381.7034
 -14113129.94749 -10975377.76247  20845729.7114   20845724.0274
       596.8284
 04  9  3 16 34 30.0000000  0  6G20G11G14G23G 1G25
  -7251977.21249  -5638496.37044  22833592.8594   22833587.3914
      2697.7194
  -8848978.74849  -6877636.99647  21515412.2974   21515406.0554
      -455.5004
  13096100.34448  10195549.95245  22660542.7114   22660536.8984
     -2758.7034
   -880810.99447   -673857.85143  24115477.9614   24115470.9614
      2777.6724
 -13708350.91849 -10665521.12947  21328858.3284   21328853.8674
      1377.1414
 -14122019.92849 -10982305.01247  20844037.8914   20844032.4494
       588.3284
 04  9  3 16 34 45.0000000  0  6G20G11G14G23G 1G25
  -7292432.66749  -5670020.09944  22825894.4534   22825888.5474
      2696.2034
  -8842082.29449  -6872263.13847  21516724.8674   21516718.6954
      -464.1874
  13137489.65748  10227801.34845  22668418.8054   22668413.0394
     -2760.1094
   -922463.22647   -706314.12343  24107551.1174   24107544.8874
      2775.7814
 -13728976.07149 -10681592.67447  21324933.5704   21324928.3524
      1372.7194
 -14130781.97449 -10989132.58547  20842370.7114   20842365.1054
       579.7344
 04  9  3 16 35  0.0000000  0  6G20G11G14G23G 1G25
  -7332866.71848  -5701527.14745  22818200.1724   22818194.3954
      2694.8134
  -8835054.37049  -6866786.84847  21518061.8754   21518056.3594
      -472.9224
  13178898.34748  10260067.83045  22676298.3914   22676293.2734
     -2761.3284
   -964088.11447   -738749.09343  24099630.2274   24099623.6644
      2774.0784
 -13749534.36349 -10697612.11647  21321021.2424   21321016.7234
      1368.2664
 -14139416.97149 -10995861.13947  20840727.4384   20840721.3554
       571.4384
 04  9  3 16 35 15.0000000  0  6G20G11G14G23G 1G25
  -7373276.85548  -5733015.55044  22810510.0634   22810504.4494
      2693.2664
  -8827892.87248  -6861206.46947  21519425.1024   21519418.8054
      -481.7664
  13220328.66349  10292351.17744  22684182.3984   22684177.1764
     -2762.7504
  -1005683.40848   -771161.00843  24091715.4454   24091708.4884
      2772.0784
 -13770023.55949 -10713577.72147  21317122.3984   21317117.9414
      1363.7194
 -14147922.65049 -11002488.95347  20839108.9384   20839103.5274
       562.8444
 04  9  3 16 35 30.0000000  0  6G20G11G14G23G 1G25
  -7413666.34649  -5764487.87445  22802824.0314   22802818.5664
      2691.7974
  -8820601.25548  -6855524.69447  21520812.4924   21520806.1604
      -490.6254
  13261776.96048  10324648.54644  22692069.6484   22692064.1954
     -2764.0474
  -1047252.39348   -803552.38243  24083804.9614   24083798.0784
      2770.2814
 -13790447.04149 -10729492.11047  21313235.8204   21313230.9144
      1359.2664
 -14156302.41049 -11009018.63047  20837514.0314   20837508.7154
       554.2664
 04  9  3 16 35 45.0000000  0  6G20G11G14G23G 1G25
  -7454032.12148  -5795941.71445  22795142.8914   22795136.8874
      2690.2814
  -8813176.61848  -6849739.27147  21522225.4064   21522219.0634
      -499.4064
  13303245.93148  10356962.00544  22699961.3914   22699955.3914
     -2765.2814
  -1088792.21748   -835921.06243  24075899.6884   24075893.0124
      2768.4064
 -13810801.96649 -10745353.08047  21309362.3284   21309357.6524
      1354.7034
 -14164553.30949 -11015447.89447  20835944.0554   20835938.5704
       545.7814
 04  9  3 16 36  0.0000000  0  6G20G11G14G23G 1G25
  -7494376.25348  -5827378.69745  22787465.9454   22787460.3444
      2688.9224
  -8805621.31949  -6843852.02947  21523663.0784   21523656.5004
      -507.9844
  13344733.26048  10389289.77744  22707856.3134   22707850.7034
     -2766.3754
  -1130304.93848   -868268.60643  24068000.2344   24067993.1914
      2766.7344
 -13831090.56349 -10761162.38347  21305501.6804   21305496.7624
      1350.4384
 -14172677.39749 -11021778.36147  20834398.4454   20834392.5044
       537.4384
 04  9  3 16 36 15.0000000  0  6G20G11G14G23G 1G25
  -7534697.65548  -5858797.96944  22779792.7194   22779787.0784
      2687.2344
  -8797934.54549  -6837862.35547  21525125.7344   21525119.5274
      -516.9534
  13386239.66748  10421632.42445  22715754.3984   22715748.8954
     -2767.8444
  -1171789.57848   -900594.29443  24060105.9224   24060099.3204
      2764.6564
 -13851311.98249 -10776919.32347  21301653.6174   21301648.7234
      1345.7814
 -14180673.93149 -11028009.41447  20832876.6174   20832870.5594
       528.8134
 04  9  3 16 36 30.0000000  0  6G20G11G14G23G 1G25
  -7574994.45648  -5890198.06544  22772124.6484   22772119.1994
      2685.3444
  -8790114.72348  -6831768.99747  21526613.9224   21526607.5354
      -526.0624
  13427766.68648  10453991.11244  22723656.5704   22723651.2074
     -2769.4374
  -1213244.41448   -932896.73843  24052217.2974   24052210.4224
      2762.3754
 -13871464.55949 -10792622.61647  21297818.7344   21297813.7894
      1340.9224
 -14188541.13349 -11034139.69747  20831379.5084   20831373.7894
       519.8444
 04  9  3 16 36 45.0000000  0  6G20G11G14G23G 1G25
  -7615266.49148  -5921578.85745  22764460.8984   22764455.3244
      2684.0944
  -8782161.87649  -6825571.98247  21528127.2194   21528121.2704
      -534.4374
  13469314.06448  10486365.67845  22731562.7504   22731557.6094
     -2770.2974
  -1254669.53448   -965176.03343  24044334.7974   24044327.5594
      2760.9384
 -13891548.44649 -10808272.39447  21293996.6884   21293992.5044
      1336.7974
 -14196279.14549 -11040169.32047  20829906.5084   20829901.4844
       511.6884
 04  9  3 16 37  0.0000000  0  6G20G11G14G23G 1G25
  -7655516.84248  -5952942.76844  22756801.3754   22756795.6484
      2682.4534
  -8774079.48549  -6819274.02247  21529665.5554   21529659.5824
      -543.2504
  13510878.35649  10518753.40944  22739472.6804   22739466.6764
     -2771.6414
  -1296068.19147   -997434.70043  24036456.4774   24036449.9614
      2758.9534
 -13911566.92749 -10823871.21547  21290187.7894   21290182.6994
      1332.2344
 -14203891.17949 -11046100.77647  20828458.5314   20828452.7814
       503.0634
 04  9  3 16 37 15.0000000  0  6G20G11G14G23G 1G25
  -7695743.76649  -5984288.39445  22749146.4454   22749141.0084
      2681.0784
  -8765865.98548  -6812873.89747  21531228.3364   21531222.5274
      -551.7664
  13552460.98348  10551155.44844  22747385.2424   22747379.7974
     -2772.7034
  -1337438.68748  -1029671.43543  24028584.4534   24028577.2814
      2757.2034
 -13931518.46249 -10839417.84547  21286390.7114   21286386.0474
      1327.9224
 -14211375.62548 -11051932.81247  20827034.4614   20827028.5664
       494.7814
 04  9  3 16 37 30.0000000  0  6G20G11G14G23G 1G25
  -7735946.65848  -6015615.32145  22741496.0554   22741490.8794
      2679.2194
  -8757520.97349  -6806371.29147  21532816.1884   21532810.0784
      -560.8284
  13594062.25548  10583572.00744  22755301.7274   22755296.4384
     -2774.2504
  -1378780.41748  -1061885.72843  24020716.6484   24020709.8324
      2755.0164
 -13951402.55149 -10854911.93347  21282607.1024   21282602.1024
      1323.2034
 -14218732.05649 -11057665.08647  20825634.1724   20825628.7734
       486.0474
 04  9  3 16 37 45.0000000  0  6G20G11G14G23G 1G25
  -7776125.17149  -6046923.24145  22733850.6174   22733845.3794
      2677.6884
  -8749044.44248  -6799766.21847  21534429.3134   21534423.5354
      -569.5004
  13635682.25849  10616003.15944  22763221.5704   22763216.4304
     -2775.3444
  -1420093.22448  -1094077.51843  24012855.4384   24012848.3244
      2753.1724
 -13971219.04249 -10870353.35047  21278836.0864   21278831.1844
      1318.8134
 -14225960.28449 -11063297.47147  20824258.7584   20824252.8984
       477.5474
 04  9  3 16 38  0.0000000  0  6G20G11G14G23G 1G25
  -7816280.88949  -6078213.40145  22726208.9924   22726203.3284
      2676.4064
  -8740438.21248  -6793060.07347  21536066.8444   21536060.8984
      -577.9374
  13677319.00548  10648447.34644  22771145.1884   22771139.9494
     -2776.2034
  -1461378.93048  -1126248.20143  24004999.4454   24004992.1294
      2751.6414
 -13990969.76249 -10885743.51847  21275077.6484   21275072.6604
      1314.6884
 -14233062.08749 -11068831.34247  20822907.4454   20822901.8244
       469.3914
 04  9  3 16 38 15.0000000  0  6G20G11G14G23G 1G25
  -7856412.73149  -6109484.96845  22718572.4454   22718566.4774
      2674.5164
  -8731701.22949  -6786252.05147  21537729.7424   21537723.6454
      -586.9844
  13718973.34248  10680905.25444  22779071.6024   22779066.4494
     -2777.6414
  -1502636.48048  -1158396.92543  23997147.7194   23997140.8554
      2749.4384
 -14010653.74449 -10901081.67947  21271331.9534   21271327.0744
      1309.9384
 -14240036.42749 -11074265.89947  20821580.1414   20821574.7034
       460.6414
 04  9  3 16 38 30.0000000  0  6G20G11G14G23G 1G25
  -7896520.12749  -6140737.46745  22710940.1174   22710935.0004
      2672.6884
  -8722833.34449  -6779342.02047  21539416.8984   21539411.1054
      -595.8914
  13760645.42948  10713376.98844  22787001.7194   22786995.8754
     -2779.0164
  -1543865.41748  -1190523.31643  23989302.2424   23989295.4184
      2747.3134
 -14030270.82849 -10916367.72147  21267598.8134   21267594.3794
      1305.2034
 -14246882.95949 -11079600.85447  20820277.2114   20820271.7194
       451.8444
 04  9  3 16 38 45.0000000  0  6G20G11G14G23G 1G25
  -7936598.11348  -6171967.06445  22703313.3984   22703307.9924
      2670.5944
  -8713829.99548  -6772326.42147  21541130.5084   21541124.6214
      -605.0474
  13802339.74848  10745866.04444  22794935.6334   22794930.4694
     -2780.5784
  -1585060.97048  -1222623.74743  23981462.6804   23981456.3204
      2745.0474
 -14049816.27849 -10931597.93047  21263879.2894   21263874.5234
      1300.3754
 -14253597.05849 -11084832.62047  20818999.5004   20818994.3714
       442.9534
 04  9  3 16 39  0.0000000  0  6G20G11G14G23G 1G25
  -7976651.19149  -6203177.24545  22695691.6334   22695686.0904
      2669.3284
  -8704695.91449  -6765208.96947  21542868.4534   21542862.2584
      -613.4374
  13844051.53948  10778368.72044  22802873.4144   22802868.3984
     -2781.3594
  -1626227.85048  -1254701.80343  23973629.2894   23973622.3484
      2743.4064
 -14069294.71449 -10946775.92647  21260172.4224   21260167.9534
      1296.2034
 -14260183.29849 -11089964.76047  20817746.4454   20817740.6564
       434.8134
 04  9  3 16 39 15.0000000  0  6G20G11G14G23G 1G25
  -8016679.45948  -6234368.09445  22688074.7344   22688069.2424
      2667.9534
  -8695431.46949  -6757989.93347  21544631.4534   21544625.5234
      -621.7504
  13885780.49448  10810884.76244  22810814.1094   22810808.9024
     -2782.2974
  -1667366.20947  -1286757.64943  23965800.5084   23965793.7074
      2741.8284
 -14088706.47949 -10961901.97247  21256479.0164   21256473.9494
      1292.1094
 -14266641.93149 -11094997.45647  20816517.3284   20816511.8914
       426.5004
 04  9  3 16 39 30.0000000  0  6G20G11G14G23G 1G25
  -8056684.50049  -6265540.83745  22680461.6884   22680456.6254
      2666.3284
  -8686038.38449  -6750670.64547  21546419.0234   21546412.7704
      -630.3594
  13927524.75348  10843412.73744  22818757.8364   22818751.8094
     -2783.4064
  -1708477.61947  -1318792.51743  23957977.5704   23957970.8204
      2739.8444
 -14108053.28149 -10976977.40247  21252797.4064   21252792.8054
      1287.6884
 -14272974.63449 -11099932.03347  20815312.2424   20815306.8444
       418.0784
 04  9  3 16 39 45.0000000  0  6G20G11G14G23G 1G25
  -8096662.67749  -6296692.65945  22672854.2424   22672848.6764
      2664.2194
  -8676513.39549  -6743248.59147  21548231.5864   21548225.7384
      -639.5004
  13969287.49948  10875955.12245  22826705.0004   22826699.6334
     -2784.8914
  -1749558.72248  -1350803.71143  23950159.7894   23950153.3364
      2737.6724
 -14127331.82249 -10991999.63447  21249128.8674   21249123.7384
      1282.8134
 -14279178.06349 -11104765.87147  20814131.5474   20814126.0474
       409.1414
 04  9  3 16 40  0.0000000  0  6G20G11G14G23G 1G25
  -8136614.34449  -6327823.81445  22665251.7424   22665246.2344
      2662.8284
  -8666857.18548  -6735724.27347  21550069.2194   21550063.3404
      -647.9064
  14011068.01748  10908511.34744  22834655.5234   22834650.0394
     -2785.7194
  -1790609.98048  -1382791.70543  23942348.2664   23942341.5004
      2735.9844
 -14146542.68649 -11006969.12847  21245473.0704   21245467.9224
      1278.6724
 -14285252.81449 -11109499.43347  20812975.6954   20812970.1564
       400.8754
 04  9  3 16 40 15.0000000  0  6G20G11G14G23G 1G25
  -8176538.85149  -6358933.82245  22657654.1024   22657648.7424
      2660.8284
  -8657069.42248  -6728097.46447  21551931.5004   21551925.2304
      -656.7814
  14052866.49348  10941081.57644  22842609.2664   22842604.1684
     -2787.1414
  -1831630.87648  -1414756.02043  23934541.9304   23934535.1214
      2733.8594
 -14165685.40849 -11021885.53947  21241830.4384   21241825.2464
      1274.0164
 -14291198.31348 -11114132.29647  20811844.2814   20811838.6054
       392.1724
 04  9  3 16 40 30.0000000  0  6G20G11G14G23G 1G25
  -8216435.59349  -6390022.18445  22650062.2034   22650057.2934
      2658.6254
  -8647149.73349  -6720367.83647  21553819.4144   21553813.0124
      -665.9534
  14094683.19648  10973665.99044  22850567.3674   22850561.6764
     -2788.6414
  -1872620.90547  -1446696.25043  23926741.9694   23926735.3754
      2731.4384
 -14184759.57349 -11036748.50947  21238200.6024   21238195.5124
      1269.1094
 -14297014.12949 -11118664.10347  20810737.9304   20810731.9454
       383.2194
 04  9  3 16 40 45.0000000  0  6G20G11G14G23G 1G25
  -8256305.00749  -6421089.25245  22642475.5394   22642469.9384
      2657.1414
  -8637098.87848  -6712536.01747  21555732.1644   21555726.1994
      -674.4064
  14136517.45148  11006264.10144  22858527.8284   22858522.5394
     -2789.5004
  -1913580.79946  -1478613.02543  23918947.2974   23918941.2704
      2729.7344
 -14203765.92449 -11051558.65447  21234583.9844   21234579.1024
      1264.8754
 -14302700.91849 -11123095.37247  20809655.4694   20809649.9884
       374.9064
 04  9  3 16 41  0.0000000  0  6G20G11G14G23G 1G25
  -8296146.89248  -6452134.85945  22634893.8134   22634888.2734
      2655.0004
  -8626916.86948  -6704602.00447  21557669.7034   21557663.3164
      -683.3284
  14178369.14648  11038875.78544  22866491.6724   22866486.7584
     -2790.9224
  -1954510.44346  -1510506.24043  23911158.8134   23911151.9024
      2727.4384
 -14222704.43349 -11066315.93047  21230979.9144   21230975.3164
      1260.1414
 -14308258.71649 -11127426.12247  20808598.0314   20808592.4614
       366.0474
 04  9  3 16 41 15.0000000  0  6G20G11G14G23G 1G25
  -8335961.97649  -6483159.60545  22627317.3054   22627311.1454
      2653.5314
  -8616604.79548  -6696566.62647  21559631.8834   21559625.8634
      -691.7504
  14220237.16847  11071500.18044  22874459.2894   22874454.4104
     -2791.6724
  -1995410.62847  -1542376.48843  23903375.9384   23903369.1214
      2725.7664
 -14241576.02149 -11081021.06447  21227388.6564   21227383.8954
      1255.9064
 -14313688.45549 -11131657.07747  20807564.6884   20807559.1054
       357.8134
 04  9  3 16 41 30.0000000  0  6G20G11G14G23G 1G25
  -8375747.46749  -6514161.26845  22619745.6724   22619740.4264
      2651.4064
  -8606160.15548  -6688427.95647  21561619.2274   21561613.4064
      -700.7664
  14262123.91048  11104139.19644  22882429.8594   22882424.5314
     -2793.0944
  -2036278.77348  -1574221.74043  23895598.9144   23895592.5824
      2723.3284
 -14260378.17148 -11095672.08047  21223810.7894   21223805.8634
      1251.0784
 -14318987.55649 -11135786.26048  20806556.1414   20806550.2974
       348.9224
 04  9  3 16 41 45.0000000  0  6G20G11G14G23G 1G25
  -8415503.49748  -6545139.97945  22612180.8444   22612175.5164
      2649.3914
  -8595583.30448  -6680186.25147  21563632.0004   21563625.8714
      -709.5944
  14304029.04747  11136792.52244  22890404.4614   22890398.7424
     -2794.3444
  -2077115.05746  -1606042.20543  23887827.4694   23887821.5274
      2721.2974
 -14279111.16148 -11110269.20747  21220245.7894   21220241.4064
      1246.5634
 -14324156.24649 -11139813.79747  20805572.7664   20805567.1884
       340.2344
 04  9  3 16 42  0.0000000  0  6G20G11G14G23G 1G25
  -8455231.48349  -6576096.84145  22604621.0164   22604615.0984
      2647.7814
  -8584875.97248  -6671842.89347  21565669.5554   21565663.3554
      -717.9844
  14345950.90348  11169458.88144  22898381.9614   22898376.4304
     -2795.1564
  -2117921.00447  -1637839.01143  23880062.7194   23880056.4614
      2719.5784
 -14297776.72849 -11124813.80547  21216694.2584   21216689.2934
      1242.3134
 -14329196.13449 -11143740.99347  20804613.5944   20804607.9614
       331.8754
 04  9  3 16 42 15.0000000  0  6G20G11G14G23G 1G25
  -8494931.72149  -6607032.09145  22597066.0474   22597060.7734
      2645.5944
  -8574038.72348  -6663398.30647  21567732.2664   21567726.4654
      -726.9224
  14387888.71248  11202137.68144  22906362.4144   22906357.4224
     -2796.5784
  -2158697.07547  -1669612.56043  23872303.0394   23872296.8284
      2717.2344
 -14316375.39349 -11139306.26947  21213155.1024   21213150.4104
      1237.5474
 -14334107.84249 -11147568.29147  20803678.7814   20803673.3284
       323.0634
 04  9  3 16 42 30.0000000  0  6G20G11G14G23G 1G25
  -8534600.63748  -6637942.92945  22589517.1334   22589511.6334
      2643.8914
  -8563068.33048  -6654849.95347  21569819.5864   21569813.5434
      -735.4844
  14429845.66348  11234831.38044  22914346.6484   22914341.8164
     -2797.4534
  -2199439.96946  -1701360.24443  23864549.4694   23864543.8014
      2715.3594
 -14334903.80548 -11153743.99547  21209628.8754   21209624.4694
      1233.2194
 -14338888.05749 -11151293.14547  20802769.2274   20802763.7114
       314.5944
 04  9  3 16 42 45.0000000  0  6G20G11G14G23G 1G25
  -8574241.95549  -6668832.26645  22581973.5634   22581968.7424
      2641.8594
  -8551968.77348  -6646200.94747  21571931.7034   21571925.7344
      -744.2664
  14471817.91147  11267536.99644  22922333.7034   22922328.0784
     -2798.6724
  -2240153.36947  -1733084.92243  23856802.0704   23856795.7424
      2713.2194
 -14353365.73949 -11168129.90747  21206115.6484   21206110.8984
      1228.6254
 -14343540.44849 -11154918.38447  20801884.0864   20801878.7274
       305.9224
 04  9  3 16 43  0.0000000  0  6G20G11G14G23G 1G25
  -8613854.49049  -6699699.16645  22574436.0234   22574430.4024
      2640.1414
  -8540739.20348  -6637450.64847  21574068.6174   21574062.5944
      -752.7194
  14513806.13748  11300255.07744  22930323.8984   22930317.7584
     -2799.4844
  -2280836.42348  -1764785.99043  23849060.8444   23849053.8204
      2711.5314
 -14371760.38048 -11182463.38647  21202615.3834   21202610.6914
      1224.3134
 -14348064.09149 -11158443.29847  20801023.2734   20801017.3444
       297.5314
 04  9  3 16 43 15.0000000  0  6G20G11G14G23G 1G25
  -8653437.13349  -6730542.77445  22566903.6884   22566897.8794
      2637.8284
  -8529378.91448  -6628598.49147  21576230.4694   21576224.2504
      -761.7974
  14555811.01147  11332986.11744  22938316.7034   22938311.3204
     -2800.9374
  -2321488.14748  -1796462.63143  23841325.0864   23841318.5474
      2709.0944
 -14390086.99149 -11196743.85947  21199128.3364   21199123.5904
      1219.5004
 -14352458.23449 -11161867.31447  20800186.7424   20800181.2074
       288.6094
 04  9  3 16 43 30.0000000  0  6G20G11G14G23G 1G25
  -8692987.42849  -6761361.18045  22559377.3754   22559371.8714
      2635.6254
  -8517885.64348  -6619642.70147  21578417.5164   21578411.5124
      -770.6724
  14597834.72147  11365731.85744  22946313.9694   22946308.2424
     -2802.1564
  -2362106.16948  -1828113.01043  23833595.3834   23833588.6724
      2706.7974
 -14408343.19549 -11210969.46847  21195653.9614   21195649.2814
      1214.7664
 -14356720.64449 -11165188.67247  20799375.7114   20799370.5434
       279.8284
 04  9  3 16 43 45.0000000  0  6G20G11G14G23G 1G25
  -8732504.71349  -6792153.87045  22551857.0864   22551851.9494
      2633.3754
  -8506258.98548  -6610582.97847  21580629.8204   21580623.9804
      -779.5944
  14639877.58048  11398492.52744  22954314.7114   22954308.8554
     -2803.5314
  -2402689.95147  -1859736.71843  23825873.4924   23825866.0394
      2704.4064
 -14426528.54049 -11225139.86547  21192193.2974   21192188.2194
      1210.0164
 -14360850.83148 -11168406.99847  20798589.7424   20798584.6334
       270.9224
 04  9  3 16 44  0.0000000  0  6G20G11G14G23G 1G25
  -8771988.03349  -6822920.07245  22544343.7194   22544338.5784
      2631.0314
  -8494498.41349  -6601418.91247  21582868.1954   21582862.2894
      -788.5164
  14681940.34247  11431268.68244  22962318.6414   22962313.7384
     -2804.8594
  -2443238.72647  -1891333.13543  23818156.8594   23818149.9534
      2702.0314
 -14444642.25549 -11239254.44447  21188746.4534   21188741.6134
      1205.1724
 -14364847.97149 -11171521.66347  20797829.2274   20797823.6684
       261.9384
 04  9  3 16 44 15.0000000  0  6G20G11G14G23G 1G25
  -8811439.86949  -6853661.76545  22536836.6484   22536831.4844
      2628.9384
  -8482606.61449  -6592152.58347  21585130.9924   21585124.6884
      -797.2974
  14724020.12047  11464058.10344  22970326.3674   22970321.6524
     -2805.9844
  -2483755.10748  -1922904.35043  23810446.2344   23810439.8284
      2699.9694
 -14462687.05149 -11253315.31747  21185312.6724   21185307.7194
      1200.5634
 -14368714.60749 -11174534.62647  20797093.4224   20797087.9304
       253.3134
 04  9  3 16 44 30.0000000  0  6G20G11G14G23G 1G25
  -8850855.02149  -6884374.85545  22529336.1254   22529330.9144
      2626.4534
  -8470578.71948  -6582780.20647  21587419.8674   21587414.1564
      -806.4844
  14766121.71847  11496864.50344  22978337.4774   22978332.3364
     -2807.5944
  -2524234.06548  -1954446.36943  23802743.5474   23802736.7114
      2697.3594
 -14480658.03649 -11267318.67347  21181892.9534   21181887.6414
      1195.5634
 -14372445.92248 -11177442.13847  20796383.5704   20796377.5824
       244.2504
 04  9  3 16 44 45.0000000  0  6G20G11G14G23G 1G25
  -8890237.35849  -6915062.39045  22521842.2814   22521836.0864
      2624.4224
  -8458419.03449  -6573305.14447  21589733.3134   21589727.8134
      -814.9534
  14808240.92847  11529684.65644  22986353.4384   22986347.5474
     -2808.4694
  -2564679.49448  -1985962.26543  23795047.1484   23795040.0704
      2695.2974
 -14498559.36549 -11281267.76047  21178486.4774   21178481.8364
      1191.2034
 -14376046.13049 -11180247.50847  20795698.3524   20795692.7194
       235.6564
 04  9  3 16 45  0.0000000  0  6G20G11G14G23G 1G25
  -8929587.33749  -6945724.71545  22514353.7194   22514347.8244
      2622.1724
  -8446128.38649  -6563728.02747  21592072.4534   21592066.2894
      -823.7344
  14850376.96047  11562517.89044  22994371.3444   22994366.1094
     -2809.7034
  -2605092.09048  -2017452.57643  23787356.4844   23787350.1724
      2693.0634
 -14516391.74748 -11295163.11047  21175092.6334   21175087.8634
      1186.5634
 -14379515.81048 -11182951.15547  20795038.2274   20795032.8674
       226.9534
 04  9  3 16 45 15.0000000  0  6G20G11G14G23G 1G25
  -8968898.51849  -6976356.77945  22506873.3674   22506867.1334
      2619.5474
  -8433700.65748  -6554044.08947  21594437.3914   21594431.4104
      -832.9694
  14892536.06247  11595369.11944  23002393.6254   23002388.3794
     -2811.1874
  -2645465.55448  -2048912.41844  23779674.6414   23779667.4734
      2690.3594
 -14534148.85249 -11308999.81947  21171713.6804   21171709.3164
      1181.4064
 -14382848.75249 -11185548.25247  20794403.8444   20794398.2734
       217.7504
 04  9  3 16 45 30.0000000  0  6G20G11G14G23G 1G25
  -9008172.88049  -7006960.17445  22499399.3284   22499394.0164
      2617.0784
  -8421137.85848  -6544254.90947  21596828.0234   21596821.7584
      -841.9844
  14934715.82647  11628236.46144  23010420.0864   23010414.6294
     -2812.6094
  -2685802.03448  -2080343.40743  23771997.9694   23771991.3714
      2687.9224
 -14551832.95149 -11322779.62547  21168348.7504   21168344.3634
      1176.5634
 -14386047.25449 -11188040.59747  20793795.1094   20793789.2624
       208.8284
 04  9  3 16 45 45.0000000  0  6G20G11G14G23G 1G25
  -9047412.98649  -7037536.87245  22491932.2504   22491926.8594
      2614.7974
  -8408443.01748  -6534362.83546  21599244.1254   21599237.7854
      -850.7974
  14976913.20047  11661117.49844  23018449.9694   23018445.2234
     -2813.8594
  -2726104.29348  -2111747.75544  23764328.9384   23764322.1334
      2685.5634
 -14569446.85148 -11336504.73747  21164997.0164   21164992.4224
      1171.8914
 -14389114.09548 -11190430.34547  20793211.5864   20793205.5044
       200.0164
 04  9  3 16 46  0.0000000  0  6G20G11G14G23G 1G25
  -9086617.32249  -7068085.70145  22484471.9144   22484466.9494
      2611.9384
  -8395614.78548  -6524366.82747  21601685.0394   21601678.4844
      -860.1564
  15019129.60847  11694013.38844  23026483.6024   23026478.4924
     -2815.5004
  -2766370.81848  -2143124.24743  23756666.7194   23756659.4844
      2682.7974
 -14586989.19748 -11350174.09047  21161658.8134   21161654.0164
      1166.6094
 -14392047.75948 -11192716.32847  20792653.1884   20792647.5314
       190.7034
 04  9  3 16 46 15.0000000  0  6G20G11G14G23G 1G25
  -9125783.36949  -7098604.69045  22477019.0864   22477013.5514
      2609.8444
  -8382651.29348  -6514265.40847  21604152.0634   21604145.7234
      -868.7664
  15061367.06547  11726925.66344  23034521.3364   23034516.4574
     -2816.6094
  -2806599.41548  -2174471.19943  23749011.2114   23749004.5274
      2680.6414
 -14604457.80448 -11363785.99347  21158334.5004   21158329.7424
      1162.0944
 -14394845.94648 -11194896.73747  20792121.0004   20792115.6174
       182.0944
 04  9  3 16 46 30.0000000  0  6G20G11G14G23G 1G25
  -9164913.47748  -7129095.67645  22469572.5554   22469567.2584
      2607.5314
  -8369555.11748  -6504060.61047  21606644.2734   21606638.1334
      -877.4064
  15103622.82447  11759852.21044  23042562.3054   23042557.2384
     -2817.5474
  -2846792.62447  -2205790.53843  23741362.6804   23741355.9884
      2678.4384
 -14621855.33048 -11377342.49547  21155024.1954   21155019.2194
      1157.5314
 -14397511.41949 -11196973.72547  20791613.7034   20791607.7384
       173.3754
 04  9  3 16 46 45.0000000  0  6G20G11G14G23G 1G25
  -9204005.12449  -7159556.69045  22462133.7504   22462128.3634
      2604.7504
  -8356324.04448  -6493750.69847  21609161.6024   21609155.7344
      -886.5474
  15145899.12147  11792794.74744  23050606.8834   23050601.8444
     -2819.0784
  -2886947.86348  -2237080.36043  23733721.3754   23733715.0204
      2675.6414
 -14639179.34149 -11390841.72647  21151727.3594   21151722.4694
      1152.4694
 -14400041.82449 -11198945.47947  20791132.1414   20791126.3364
       164.1884
 04  9  3 16 47  0.0000000  0  6G20G11G14G23G 1G25
  -9243058.06649  -7189987.54345  22454702.2974   22454697.1484
      2602.2034
  -8342958.07748  -6483335.66747  21611705.4614   21611698.8834
      -895.5474
  15188195.99347  11825753.30944  23058656.0004   23058650.4574
     -2820.4374
  -2927065.07048  -2268340.49043  23726087.3594   23726080.6524
      2673.2194
 -14656429.84049 -11404283.65647  21148444.3674   21148439.7194
      1147.5314
 -14402437.17449 -11200811.98147  20790676.4384   20790670.5434
       155.2194
 04  9  3 16 47 15.0000000  0  6G20G11G14G23G 1G25
  -9282070.22149  -7220386.61445  22447278.1804   22447273.0474
      2599.3444
  -8329455.44848  -6472814.15247  21614274.7894   21614268.7304
      -904.8444
  15230515.08047  11858729.20544  23066709.1564   23066703.6644
     -2822.1414
  -2967142.50348  -2299569.65043  23718460.8984   23718454.3484
      2670.4064
 -14673605.03548 -11417666.92047  21145176.1954   21145171.0354
      1142.3134
 -14404695.62349 -11202571.81547  20790246.8594   20790241.0084
       145.8594
 04  9  3 16 47 30.0000000  0  6G20G11G14G23G 1G25
  -9321041.29048  -7250753.68546  22439862.5234   22439857.4924
      2596.5634
  -8315816.42948  -6462186.34947  21616870.2664   21616864.1254
      -913.9064
  15272856.31247  11891722.38144  23074766.4064   23074761.0434
     -2823.5624
  -3007179.89047  -2330767.59543  23710841.6414   23710835.1294
      2667.7034
 -14690704.90948 -11430991.49447  21141922.3284   21141917.1884
      1137.3914
 -14406817.11349 -11204224.92947  20789843.1334   20789837.3984
       136.7194
 04  9  3 16 47 45.0000000  0  6G20G11G14G23G 1G25
  -9359971.58948  -7281088.96745  22432454.4144   22432448.9264
      2594.1254
  -8302041.50048  -6451452.64547  21619491.3284   21619485.2774
      -922.7344
  15315219.13347  11924732.34144  23082828.2194   23082822.2974
     -2824.7974
  -3047177.78746  -2361934.76343  23703230.9224   23703223.5044
      2665.2974
 -14707729.95849 -11444257.76247  21138682.3284   21138677.6174
      1132.6094
 -14408802.15949 -11205771.72047  20789465.4534   20789459.3954
       127.9224
 04  9  3 16 48  0.0000000  0  6G20G11G14G23G 1G25
  -9398860.53248  -7311392.02645  22425054.0164   22425048.6294
      2591.1564
  -8288130.46849  -6440612.89047  21622138.5784   21622132.5514
      -932.0004
  15357603.83847  11957759.34944  23090893.2194   23090888.5594
     -2826.3754
  -3087135.61247  -2393070.70543  23695627.2344   23695620.1094
      2662.4224
 -14724679.80149 -11457465.42647  21135457.0554   21135452.2384
      1127.4384
 -14410650.46349 -11207211.95847  20789113.3984   20789107.8164
       118.6094
 04  9  3 16 48 15.0000000  0  6G20G11G14G23G 1G25
  -9437708.31249  -7341663.02345  22417661.8134   22417655.9344
      2588.4384
  -8274083.89149  -6429667.52247  21624811.5704   21624805.4384
      -940.9694
  15400009.83447  11990802.95444  23098962.1724   23098958.0664
     -2827.7814
  -3127053.74848  -2424175.75044  23688030.2664   23688023.6604
      2659.8754
 -14741554.91349 -11470614.85147  21132245.9064   21132240.9654
      1122.5164
 -14412362.46949 -11208545.98947  20788787.4844   20788782.1604
       109.5314
 04  9  3 16 48 30.0000000  0  6G20G11G14G23G 1G25
  -9476518.94649  -7371905.07645  22410276.2114   22410270.8754
      2585.7974
  -8259906.04249  -6418619.86047  21627509.7114   21627503.3284
      -949.9374
  15442432.77347  12023859.77044  23107035.8674   23107030.4654
     -2829.0624
  -3166936.39848  -2455253.12744  23680441.3364   23680434.5314
      2657.3914
 -14758359.53349 -11483709.35547  21129047.9844   21129043.0594
      1117.6254
 -14413942.48549 -11209777.18147  20788487.0864   20788481.2274
       100.6094
 04  9  3 16 48 45.0000000  0  6G20G11G14G23G 1G25
  -9515288.86949  -7402115.38246  22402898.4844   22402893.0594
      2583.6564
  -8245593.76749  -6407467.44947  21630233.2504   21630227.4844
      -958.2974
  15484875.79047  12056932.22344  23115112.5704   23115107.4064
     -2829.8444
  -3206780.19248  -2486300.21143  23672859.1954   23672852.0004
      2655.2814
 -14775090.43349 -11496746.42147  21125864.2584   21125859.2274
      1113.2814
 -14415387.19349 -11210902.92747  20788211.8984   20788206.6644
        92.1094
 04  9  3 16 49  0.0000000  0  6G20G11G14G23G 1G25
  -9554019.16449  -7432294.83145  22395528.4384   22395522.9264
      2580.6884
  -8231148.36248  -6396211.29646  21632982.2504   21632976.1484
      -967.5004
  15527337.51348  12090019.26944  23123193.2664   23123187.1954
     -2831.5004
  -3246586.30448  -2517317.94743  23665284.6884   23665277.7274
      2652.4224
 -14791748.85648 -11509727.00547  21122694.2664   21122689.7974
      1108.0944
 -14416697.82348 -11211924.18747  20787962.5634   20787956.8714
        82.8134
 04  9  3 16 49 15.0000000  0  6G20G11G14G23G 1G25
  -9592708.88649  -7462442.67545  22388165.9774   22388160.3404
      2577.8754
  -8216569.33049  -6384851.02747  21635756.4534   21635750.7234
      -976.5004
  15569818.55948  12123121.38044  23131276.4454   23131271.0634
     -2832.8124
  -3286353.92548  -2548305.70043  23657716.8204   23657709.5044
      2649.7974
 -14808334.15848 -11522650.62047  21119538.3754   21119533.7464
      1103.1094
 -14417873.70248 -11212840.47047  20787738.8364   20787733.3204
        73.8444
 04  9  3 16 49 30.0000000  0  6G20G11G14G23G 1G25
  -9631354.31449  -7492555.97245  22380812.3054   22380806.1844
      2574.7664
  -8201853.37249  -6373384.05746  21638556.5634   21638550.7074
      -985.7504
  15612322.25848  12156241.11744  23139364.9224   23139359.4414
     -2834.4534
  -3326079.54248  -2579260.71643  23650157.8524   23650150.8914
      2646.8284
 -14824842.91949 -11535514.57747  21116396.7274   21116391.5394
      1097.8594
 -14418911.31548 -11213648.99047  20787541.3594   20787536.0314
        64.4384
 04  9  3 16 49 45.0000000  0  6G20G11G14G23G 1G25
  -9669957.75949  -7522636.57945  22373465.9844   22373460.3794
      2572.2664
  -8187003.06649  -6361812.40047  21641382.5864   21641376.9224
      -994.3594
  15654846.04547  12189376.50144  23147456.9064   23147451.7934
     -2835.5164
  -3365765.67148  -2610184.95443  23642605.4534   23642598.3754
      2644.6094
 -14841277.64549 -11548320.85947  21113269.1414   21113264.4224
      1093.2974
 -14419813.22348 -11214351.78147  20787370.2504   20787364.1374
        55.7034
 04  9  3 16 50  0.0000000  0  6G20G11G14G23G 1G25
  -9708524.51648  -7552688.58845  22366126.8834   22366121.4924
      2569.7344
  -8172024.14048  -6350140.52947  21644233.1804   21644227.4734
     -1003.0474
  15697384.15948  12222523.06044  23155552.2584   23155547.2894
     -2836.4844
  -3405417.77347  -2641082.66843  23635059.2814   23635052.2934
      2642.2194
 -14857643.94149 -11561073.80347  21110154.7034   21110149.7234
      1088.6414
 -14420585.11148 -11214953.25047  20787222.8054   20787216.8914
        46.9844
 04  9  3 16 50 15.0000000  0  6G20G11G14G23G 1G25
  -9747048.90949  -7582707.58945  22358796.0634   22358790.4734
      2566.9064
  -8156911.12549  -6338364.15347  21647108.8674   21647103.0514
     -1012.0004
  15739942.11148  12255685.08244  23163650.4844   23163645.0984
     -2837.7504
  -3445030.36248  -2671949.61044  23627521.8524   23627514.9654
      2639.5784
 -14873936.30049 -11573769.14747  21107054.4144   21107049.8094
      1083.7664
 -14421221.44249 -11215449.10947  20787102.1954   20787096.2894
        37.9384
 04  9  3 16 50 30.0000000  0  6G20G11G14G23G 1G25
  -9785534.34749  -7612696.23645  22351472.3834   22351466.9264
      2564.1884
  -8141667.89649  -6326486.33247  21650009.6644   21650003.3674
     -1020.7344
  15782516.11848  12288859.62144  23171751.8284   23171746.3364
     -2838.9844
  -3484606.86748  -2702788.42443  23619990.8914   23619983.6294
      2637.0314
 -14890158.43348 -11586409.77347  21103967.4774   21103962.7194
      1078.9534
 -14421726.02348 -11215842.29247  20787005.7114   20787000.2194
        29.0164
 04  9  3 16 50 45.0000000  0  6G20G11G14G23G 1G25
  -9823977.90849  -7642652.25545  22344156.8134   22344151.1254
      2561.2664
  -8126291.89049  -6314505.04047  21652935.6804   21652929.7974
     -1029.6414
  15825108.68648  12322048.61544  23179856.4534   23179851.2934
     -2840.3754
  -3524144.74848  -2733597.14844  23612466.5004   23612459.9024
      2634.3914
 -14906307.61849 -11598993.54447  21100894.5474   21100889.5084
      1073.9534
 -14422096.02949 -11216130.60947  20786935.5944   20786929.7344
        19.9384
 04  9  3 16 51  0.0000000  0  6G20G11G14G23G 1G25
  -9862377.54049  -7672574.03745  22336849.7664   22336844.0044
      2558.9384
  -8110781.30649  -6302418.87747  21655887.1094   21655881.2424
     -1038.0474
  15867721.60148  12355253.45944  23187965.4774   23187960.6414
     -2841.0474
  -3563641.86548  -2764374.09444  23604950.6724   23604943.7814
      2632.2814
 -14922381.99449 -11611519.02747  21097835.5474   21097830.9144
      1069.5784
 -14422329.67549 -11216312.67947  20786891.2114   20786885.2154
        11.5314
 04  9  3 16 51 15.0000000  0  6G20G11G14G23G 1G25
  -9900735.10549  -7702463.04345  22329550.4384   22329545.0354
      2555.8914
  -8095138.26048  -6290229.49947  21658863.9694   21658857.8444
     -1047.1094
  15910352.69648  12388472.46244  23196078.0394   23196073.1644
     -2842.5004
  -3603100.35848  -2795120.94644  23597442.0084   23597434.3874
      2629.4534
 -14938383.74449 -11623987.91547  21094790.5234   21094785.2114
      1064.5474
 -14422429.11248 -11216390.16547  20786872.0634   20786866.2624
         2.3134
 04  9  3 16 51 30.0000000  0  6G20G11G14G23G 1G25
  -9939051.44249  -7732319.90845  22322259.1644   22322253.6954
      2552.9224
  -8079364.22748  -6277938.05747  21661865.4064   21661859.8014
     -1056.0784
  15953000.74348  12421704.69444  23204193.5474   23204189.2304
     -2843.9694
  -3642521.25948  -2825838.50644  23589940.3524   23589933.4804
      2626.6564
 -14954314.05149 -11636401.14147  21091759.2734   21091753.7974
      1059.5314
 -14422395.59749 -11216364.03947  20786878.5314   20786872.5274
        -6.7974
 04  9  3 16 51 45.0000000  0  6G20G11G14G23G 1G25
  -9977326.47349  -7762144.61345  22314975.4924   22314969.6884
      2550.3754
  -8063459.49149  -6265544.77147  21664892.3054   21664886.0084
     -1064.5314
  15995665.39348  12454949.85244  23212313.0164   23212307.9454
     -2844.7344
  -3681904.56548  -2856526.77744  23582445.9774   23582439.2774
      2624.4694
 -14970172.91449 -11648758.69847  21088741.2274   21088736.2154
      1055.0314
 -14422229.15949 -11216234.34847  20786910.2424   20786904.5594
       -15.3594
 04  9  3 16 52  0.0000000  0  6G20G11G14G23G 1G25
 -10015560.50449  -7791937.35745  22307699.7664   22307694.2774
      2547.4844
  -8047424.60149  -6253050.06247  21667943.6564   21667937.6954
     -1073.4224
  16038346.25448  12488207.62744  23220435.1254   23220430.1374
     -2846.0474
  -3721250.80548  -2887186.17844  23574958.7194   23574951.9304
      2621.7504
 -14985960.84749 -11661060.97747  21085737.1954   21085732.0704
      1050.0474
 -14421930.31349 -11216001.49747  20786966.8284   20786961.3404
       -24.4374
 04  9  3 16 52 15.0000000  0  6G20G11G14G23G 1G25
 -10053750.83449  -7821696.04845  22300432.5234   22300426.6914
      2544.6254
  -8031257.35649  -6240452.22847  21671020.2034   21671014.1804
     -1082.1724
  16081045.52148  12521479.76244  23228559.9224   23228555.0704
     -2847.1414
  -3760557.57648  -2917814.81444  23567478.6954   23567471.9344
      2619.2194
 -15001675.62249 -11673306.25247  21082746.2274   21082741.3444
      1045.2504
 -14421496.89149 -11215663.75447  20787049.7584   20787043.4574
       -33.2814
 04  9  3 16 52 30.0000000  0  6G20G11G14G23G 1G25
 -10091898.00749  -7851421.11045  22293172.9694   22293167.4024
      2541.6884
  -8014958.56748  -6227751.88347  21674121.7274   21674115.8244
     -1090.9844
  16123762.31348  12554765.57044  23236688.8284   23236683.5124
     -2848.3124
  -3799825.34448  -2948413.05144  23560006.2194   23559999.2114
      2616.6094
 -15017317.93249 -11685495.06447  21079769.8984   21079764.6994
      1040.4694
 -14420929.58549 -11215221.70847  20787157.6644   20787151.6294
       -42.2504
 04  9  3 16 52 45.0000000  0  6G20G11G14G23G 1G25
 -10130000.50249  -7881111.36545  22285922.0164   22285916.5944
      2538.7034
  -7998527.22249  -6214948.25447  21677248.3444   21677242.6724
     -1099.7974
  16166497.71748  12588065.84744  23244821.1954   23244815.8634
     -2849.5474
  -3839052.92947  -2978979.98144  23552541.5634   23552535.1804
      2613.8914
 -15032886.61249 -11697626.49747  21076807.0784   21076802.4384
      1035.5314
 -14420227.14449 -11214674.35047  20787291.1174   20787285.3874
       -51.2344
 04  9  3 16 53  0.0000000  0  6G20G11G14G23G 1G25
 -10168060.83049  -7910768.76345  22278679.5554   22278674.2464
      2535.9844
  -7981966.18749  -6202043.56147  21680400.0554   21680394.1764
     -1108.4374
  16209248.98248  12621378.50643  23252955.9614   23252950.9924
     -2850.5944
  -3878243.03348  -3009517.70244  23545083.8444   23545077.3444
      2611.4384
 -15048384.35549 -11709702.65947  21073858.0234   21073852.9774
      1030.8444
 -14419392.31749 -11214023.84647  20787450.0634   20787444.2974
       -60.0944
 04  9  3 16 53 15.0000000  0  6G20G11G14G23G 1G25
 -10206078.25649  -7940392.71946  22271445.3284   22271439.6604
      2533.2664
  -7965274.84349  -6189037.34246  21683576.3594   21683570.5704
     -1116.9224
  16252016.49948  12654703.79644  23261095.1724   23261089.7854
     -2851.5314
  -3917395.04248  -3040025.73844  23537633.4384   23537626.7974
      2609.0474
 -15063810.68249 -11721723.17947  21070922.5004   21070917.6134
      1026.2034
 -14418424.63849 -11213269.80947  20787634.2034   20787628.6764
       -68.7194
 04  9  3 16 53 30.0000000  0  6G20G11G14G23G 1G25
 -10244052.80449  -7969983.27945  22264218.8054   22264213.3244
      2529.9844
  -7948453.80448  -6175930.05646  21686777.2344   21686770.7934
     -1125.9374
  16294799.91948  12688041.52644  23269236.4534   23269231.0004
     -2853.0004
  -3956509.16048  -3070504.26344  23530190.7344   23530183.4574
      2606.1254
 -15079165.96649 -11733688.33547  21068000.5004   21067995.2234
      1021.0634
 -14417324.54649 -11212412.60347  20787843.3754   20787837.7114
       -78.0314
 04  9  3 16 53 45.0000000  0  6G20G11G14G23G 1G25
 -10281983.98049  -7999540.03145  22257001.4144   22256995.5164
      2527.2034
  -7931502.95448  -6162721.60547  21690002.8834   21689997.0594
     -1134.4224
  16337599.35648  12721391.71144  23277381.0634   23277375.5274
     -2853.8754
  -3995584.98848  -3100952.94444  23522754.4304   23522747.6024
      2603.7814
 -15094449.93649 -11745597.91547  21065092.2274   21065087.4224
      1016.5474
 -14416091.70548 -11211451.95547  20788077.9384   20788072.1254
       -86.5784
 04  9  3 16 54  0.0000000  0  6G20G11G14G23G 1G25
 -10319869.01849  -8029060.83446  22249791.9064   22249785.8714
      2524.3284
  -7914419.82448  -6149410.09847  21693253.7664   21693247.5234
     -1143.0784
  16380417.37948  12754756.36944  23285528.4384   23285523.2154
     -2854.9064
  -4034619.93348  -3131369.77244  23515326.6884   23515319.2424
      2601.2034
 -15109660.04349 -11757449.94647  21062197.5554   21062193.0824
      1011.7194
 -14414723.65649 -11210385.94447  20788338.3054   20788332.5744
       -95.5314
 04  9  3 16 54 15.0000000  0  6G20G11G14G23G 1G25
 -10357707.82549  -8058545.61946  22242591.3284   22242585.5944
      2521.0164
  -7897204.78848  -6135995.79246  21696529.5164   21696523.4734
     -1152.0474
  16423253.58248  12788135.21844  23293679.9924   23293675.1134
     -2856.3444
  -4073614.18548  -3161754.87244  23507906.4224   23507899.2854
      2598.2504
 -15124796.42349 -11769244.51847  21059317.1884   21059312.4344
      1006.6414
 -14413220.58449 -11209214.72747  20788624.3594   20788618.6994
      -104.7504
 04  9  3 16 54 30.0000000  0  6G20G11G14G23G 1G25
 -10395502.15849  -8087995.73346  22235399.3914   22235393.9384
      2518.3284
  -7879859.78048  -6122480.22046  21699829.9384   21699824.0664
     -1160.5164
  16466105.86548  12821526.56444  23301834.6174   23301829.5514
     -2857.1724
  -4112569.50847  -3192109.64644  23500493.1484   23500485.9534
      2595.8444
 -15139861.04949 -11780983.18647  21056450.4694   21056445.8484
      1002.0784
 -14411584.45649 -11207939.82247  20788935.5234   20788929.9574
      -113.3124
 04  9  3 16 54 45.0000000  0  6G20G11G14G23G 1G25
 -10433252.51849  -8117411.60245  22228215.6254   22228209.7034
      2515.0944
  -7862385.81949  -6108864.15047  21703155.4454   21703149.2584
     -1169.3284
  16508973.54648  12854929.94143  23309992.0314   23309987.0704
     -2858.4374
  -4151486.70848  -3222434.72444  23493087.4614   23493080.5904
      2593.1094
 -15154854.73049 -11792666.58147  21053597.3284   21053592.6564
       997.1094
 -14409816.07949 -11206561.86647  20789272.3134   20789266.9924
      -122.3754
 04  9  3 16 55  0.0000000  0  6G20G11G14G23G 1G25
 -10470958.82449  -8146793.13045  22221040.4614   22221034.6334
      2512.3754
  -7844783.29149  -6095147.90547  21706504.9304   21706499.1254
     -1177.7194
  16551856.34448  12888345.08643  23318152.5554   23318147.3364
     -2859.2344
  -4190365.79648  -3252730.09244  23485688.9304   23485682.1644
      2590.7504
 -15169777.68049 -11804294.84747  21050757.4224   21050752.6294
       992.5634
 -14407915.68049 -11205081.04147  20789634.0944   20789628.1484
      -131.0314
 04  9  3 16 55 15.0000000  0  6G20G11G14G23G 1G25
 -10508622.40049  -8176141.36346  22213872.9304   22213867.2934
      2509.5004
  -7827053.94449  -6081332.83847  21709878.9304   21709873.0164
     -1186.2194
  16594752.46148  12921770.61143  23326315.7584   23326310.3554
     -2860.1414
  -4229208.28348  -3282996.94344  23478297.3834   23478290.4414
      2588.4064
 -15184631.50449 -11815869.24647  21047930.9384   21047926.3984
       988.0314
 -14405884.91749 -11203498.62648  20790020.4224   20790014.6764
      -139.6254
 04  9  3 16 55 30.0010000  0  6G20G11G14G23G 1G25
 -10546243.91849  -8205456.83346  22206713.9744   22206708.1814
      2506.4384
  -7809195.06648  -6067416.85447  21713277.4504   21713271.2674
     -1194.7344
  16637666.31048  12955209.94544  23334481.6224   23334476.2744
     -2861.2344
  -4268015.11648  -3313236.03544  23470912.5364   23470906.2714
      2585.6724
 -15199415.54349 -11827389.28147  21045117.8644   21045112.7164
       983.1884
 -14403722.15448 -11201813.36947  20790431.8494   20790426.2594
      -148.5314
 04  9  3 16 55 45.0010000  0  6G20G11G14G23G 1G25
 -10583815.20549  -8234733.13945  22199564.4114   22199558.5954
      2503.5784
  -7791206.15548  -6053399.51847  21716700.2554   21716694.7284
     -1203.2034
  16680595.11248  12988660.92344  23342650.8644   23342646.0284
     -2862.0624
  -4306778.13948  -3343440.97544  23463536.2394   23463529.5874
      2583.2344
 -15214124.94249 -11838851.13847  21042318.3724   21042313.6384
       978.6094
 -14401424.64649 -11200023.10647  20790868.9814   20790863.4034
      -157.2344
 04  9  3 16 56  0.0010000  0  6G20G11G14G23G 1G25
 -10621342.40049  -8263975.10446  22192423.3724   22192417.3494
      2500.2344
  -7773090.23348  -6039283.24047  21720148.0834   21720142.2554
     -1212.0624
  16723537.62848  13022122.58644  23350822.4424   23350817.7044
     -2863.3594
  -4345503.78648  -3373616.77244  23456167.0834   23456160.4234
      2580.4534
 -15228764.59749 -11850258.66547  21039532.9274   21039527.8684
       973.5634
 -14398996.37449 -11198130.95447  20791331.0674   20791325.4974
      -166.3754
 04  9  3 16 56 15.0010000  0  6G20G11G14G23G 1G25
 -10658821.83549  -8293179.85446  22185291.4354   22185285.8134
      2497.0314
  -7754844.11649  -6025065.49646  21723619.6064   21723614.1924
     -1220.7344
  16766497.14648  13055597.51244  23358996.8884   23358992.6614
     -2864.5474
  -4384188.65648  -3403760.82144  23448806.0214   23448798.2244
      2577.6254
 -15243331.18749 -11861609.24247  21036760.8494   21036756.0754
       968.7344
 -14396433.98549 -11196134.29047  20791818.8494   20791812.8374
      -175.3444
